[[{"header":{"parameterUnit":"m.s-1","parameterCategory":1,"la1":30.6,"la2":28.766,"lo1":-90.7593,"lo2":-88.6598,"dx":0.0162,"dy":0.0183,"nx":116,"ny":114,"refTime":"2023-02-02T18:00:00:Z","depth":0,"parameterNumber":2,"parameterNumberName":"U-component_of_WINDS"},"data":[0.0,0.0,0.0,0.0,0.0,0.0,0.0,0.0,0.0,0.0,0.0,0.0,0.0,0.0,0.0,0.0,0.0,0.0,0.0,0.0,0.0,0.0,0.0,0.0,0.0,0.0,0.0,0.0,0.0,0.0,0.0,0.0,0.0,0.0,0.0,0.0,0.0,0.0,0.0,0.0,0.0,0.0,0.0,0.0,0.0,0.0,0.0,0.0,0.0,0.0,0.0,0.0,0.0,0.0,0.0,0.0,0.0,0.0,0.0,0.0,0.0,0.0,0.0,0.0,0.0,0.0,0.0,0.0,0.0,0.0,0.0,0.0,0.0,0.0,0.0,0.0,0.0,0.0,0.0,0.0,0.0,0.0,0.0,0.0,0.0,0.0,0.0,0.0,0.0,0.0,0.0,0.0,0.0,0.0,0.0,0.0,0.0,0.0,0.0,0.0,0.0,0.0,0.0,0.0,0.0,0.0,0.0,0.0,0.0,0.0,0.0,0.0,0.0,0.0,0.0,0.0,0.0,0.0,0.0,0.0,0.0,0.0,0.0,0.0,0.0,0.0,0.0,0.0,0.0,0.0,0.0,0.0,0.0,0.0,0.0,0.0,0.0,0.0,0.0,0.0,0.0,0.0,0.0,0.0,0.0,0.0,0.0,0.0,0.0,0.0,0.0,0.0,0.0,0.0,0.0,0.0,0.0,0.0,0.0,0.0,0.0,0.0,0.0,0.0,0.0,0.0,0.0,0.0,0.0,0.0,0.0,0.0,0.0,0.0,0.0,0.0,0.0,0.0,0.0,0.0,0.0,0.0,0.0,0.0,0.0,0.0,0.0,0.0,0.0,0.0,0.0,0.0,0.0,0.0,0.0,0.0,0.0,0.0,0.0,0.0,0.0,0.0,0.0,0.0,0.0,0.0,0.0,0.0,0.0,0.0,0.0,0.0,0.0,0.0,0.0,0.0,0.0,0.0,0.0,0.0,0.0,0.0,0.0,0.0,0.0,0.0,0.0,0.0,0.0,0.0,0.0,0.0,0.0,0.0,0.0,0.0,0.0,0.0,0.0,0.0,0.0,0.0,0.0,0.0,0.0,0.0,0.0,0.0,0.0,0.0,0.0,0.0,0.0,0.0,0.0,0.0,0.0,0.0,0.0,0.0,0.0,0.0,0.0,0.0,0.0,0.0,0.0,0.0,0.0,0.0,0.0,0.0,0.0,0.0,0.0,0.0,0.0,0.0,0.0,0.0,0.0,0.0,0.0,0.0,0.0,0.0,0.0,0.0,0.0,0.0,0.0,0.0,0.0,0.0,0.0,0.0,0.0,0.0,0.0,0.0,0.0,0.0,0.0,0.0,0.0,0.0,0.0,0.0,0.0,0.0,0.0,0.0,0.0,0.0,0.0,0.0,0.0,0.0,0.0,0.0,0.0,0.0,0.0,0.0,0.0,0.0,0.0,0.0,0.0,0.0,0.0,0.0,0.0,0.0,0.0,0.0,0.0,0.0,0.0,0.0,0.0,0.0,0.0,0.0,0.0,0.0,0.0,0.0,0.0,0.0,0.0,0.0,0.0,0.0,0.0,0.0,0.0,0.0,0.0,0.0,0.0,0.0,0.0,0.0,0.0,0.0,0.0,0.0,0.0,0.0,0.0,0.0,0.0,0.0,0.0,0.0,0.0,0.0,0.0,0.0,0.0,0.0,0.0,0.0,0.0,0.0,0.0,0.0,0.0,0.0,0.0,0.0,0.0,0.0,0.0,0.0,0.0,0.0,0.0,0.0,0.0,0.0,0.0,0.0,0.0,0.0,0.0,0.0,0.0,0.0,0.0,0.0,0.0,0.0,0.0,0.0,0.0,0.0,0.0,0.0,0.0,0.0,0.0,0.0,0.0,0.0,0.0,0.0,0.0,0.0,0.0,0.0,0.0,0.0,0.0,0.0,0.0,0.0,0.0,0.0,0.0,0.0,0.0,0.0,0.0,0.0,0.0,0.0,0.0,0.0,0.0,0.0,0.0,0.0,0.0,0.0,0.0,0.0,0.0,0.0,0.0,0.0,0.0,0.0,0.0,0.0,0.0,0.0,0.0,0.0,0.0,0.0,0.0,0.0,0.0,0.0,0.0,0.0,0.0,0.0,0.0,0.0,0.0,0.0,0.0,0.0,0.0,0.0,0.0,0.0,0.0,0.0,0.0,0.0,0.0,0.0,0.0,0.0,0.0,0.0,0.0,0.0,0.0,0.0,0.0,0.0,0.0,0.0,0.0,0.0,0.0,0.0,0.0,0.0,0.0,0.0,0.0,0.0,0.0,0.0,0.0,0.0,0.0,0.0,0.0,0.0,0.0,0.0,0.0,0.0,0.0,0.0,0.0,0.0,0.0,0.0,0.0,0.0,0.0,0.0,0.0,0.0,0.0,0.0,0.0,0.0,0.0,0.0,0.0,0.0,0.0,0.0,0.0,0.0,0.0,0.0,0.0,0.0,0.0,0.0,0.0,0.0,0.0,0.0,0.0,0.0,0.0,0.0,0.0,0.0,0.0,0.0,0.0,0.0,0.0,0.0,0.0,0.0,0.0,0.0,0.0,0.0,0.0,0.0,0.0,0.0,0.0,0.0,0.0,0.0,0.0,0.0,0.0,0.0,0.0,0.0,0.0,0.0,0.0,0.0,0.0,0.0,0.0,0.0,0.0,0.0,0.0,0.0,0.0,0.0,0.0,0.0,0.0,0.0,0.0,0.0,0.0,0.0,0.0,0.0,0.0,0.0,0.0,0.0,0.0,0.0,0.0,0.0,0.0,0.0,0.0,0.0,0.0,0.0,0.0,0.0,0.0,0.0,0.0,0.0,0.0,0.0,0.0,0.0,0.0,0.0,0.0,0.0,0.0,0.0,0.0,0.0,0.0,0.0,0.0,0.0,0.0,0.0,0.0,0.0,0.0,0.0,0.0,0.0,0.0,0.0,0.0,0.0,0.0,0.0,0.0,0.0,0.0,0.0,0.0,0.0,0.0,0.0,0.0,0.0,0.0,0.0,0.0,0.0,0.0,0.0,0.0,0.0,0.0,0.0,0.0,0.0,0.0,0.0,0.0,0.0,0.0,0.0,0.0,0.0,0.0,0.0,0.0,0.0,0.0,0.0,0.0,0.0,0.0,0.0,0.0,0.0,0.0,0.0,0.0,0.0,0.0,0.0,0.0,0.0,0.0,0.0,0.0,0.0,0.0,0.0,0.0,0.0,0.0,0.0,0.0,0.0,0.0,0.0,0.0,0.0,0.0,0.0,0.0,0.0,0.0,0.0,0.0,0.0,0.0,0.0,0.0,0.0,0.0,0.0,0.0,0.0,0.0,0.0,0.0,0.0,0.0,0.0,0.0,0.0,0.0,0.0,0.0,0.0,0.0,0.0,0.0,0.0,0.0,0.0,0.0,0.0,0.0,0.0,0.0,0.0,0.0,0.0,0.0,0.0,0.0,0.0,0.0,0.0,0.0,0.0,0.0,0.0,0.0,0.0,0.0,0.0,0.0,0.0,0.0,0.0,0.0,0.0,0.0,0.0,0.0,0.0,0.0,0.0,0.0,0.0,0.0,0.0,0.0,0.0,0.0,0.0,0.0,0.0,0.0,0.0,0.0,0.0,0.0,0.0,0.0,0.0,0.0,0.0,0.0,0.0,0.0,0.0,0.0,0.0,0.0,0.0,0.0,0.0,0.0,0.0,0.0,0.0,0.0,0.0,0.0,0.0,0.0,0.0,0.0,0.0,0.0,0.0,0.0,0.0,0.0,0.0,0.0,0.0,0.0,0.0,0.0,0.0,0.0,0.0,0.0,0.0,0.0,0.0,0.0,0.0,0.0,0.0,0.0,0.0,0.0,0.0,0.0,0.0,0.0,0.0,0.0,0.0,0.0,0.0,0.0,0.0,0.0,0.0,0.0,0.0,0.0,0.0,0.0,0.0,0.0,0.0,0.0,0.0,0.0,0.0,0.0,0.0,0.0,0.0,0.0,0.0,0.0,0.0,0.0,0.0,0.0,0.0,0.0,0.0,0.0,0.0,0.0,0.0,0.0,0.0,0.0,0.0,0.0,0.0,0.0,0.0,0.0,0.0,0.0,0.0,0.0,0.0,0.0,0.0,0.0,0.0,0.0,0.0,0.0,0.0,0.0,0.0,0.0,0.0,0.0,0.0,0.0,0.0,0.0,0.0,0.0,0.0,0.0,0.0,0.0,0.0,0.0,0.0,0.0,0.0,0.0,0.0,0.0,0.0,0.0,0.0,0.0,0.0,0.0,0.0,0.0,0.0,0.0,0.0,0.0,0.0,0.0,0.0,0.0,0.0,0.0,0.0,0.0,0.0,0.0,0.0,0.0,0.0,0.0,0.0,0.0,0.0,0.0,0.0,0.0,0.0,0.0,0.0,0.0,0.0,0.0,0.0,0.0,0.0,0.0,0.0,0.0,0.0,0.0,0.0,0.0,0.0,0.0,0.0,0.0,0.0,0.0,0.0,0.0,0.0,0.0,0.0,0.0,0.0,0.0,0.0,0.0,0.0,0.0,0.0,0.0,0.0,0.0,0.0,0.0,0.0,0.0,0.0,0.0,0.0,0.0,0.0,0.0,0.0,0.0,0.0,0.0,0.0,0.0,0.0,0.0,0.0,0.0,0.0,0.0,0.0,0.0,0.0,0.0,0.0,0.0,0.0,0.0,0.0,0.0,0.0,0.0,0.0,0.0,0.0,0.0,0.0,0.0,0.0,0.0,0.0,0.0,0.0,0.0,0.0,0.0,0.0,0.0,0.0,0.0,0.0,0.0,0.0,0.0,0.0,0.0,0.0,0.0,0.0,0.0,0.0,0.0,0.0,0.0,0.0,0.0,0.0,0.0,0.0,0.0,0.0,0.0,0.0,0.0,0.0,0.0,0.0,0.0,0.0,0.0,0.0,0.0,0.0,0.0,0.0,0.0,0.0,0.0,0.0,0.0,0.0,0.0,0.0,0.0,0.0,0.0,0.0,0.0,0.0,0.0,0.0,0.0,0.0,0.0,0.0,0.0,0.0,0.0,0.0,0.0,0.0,0.0,0.0,0.0,0.0,0.0,0.0,0.0,0.0,0.0,0.0,0.0,0.0,0.0,0.0,0.0,0.0,0.0,0.0,0.0,0.0,0.0,0.0,0.0,0.0,0.0,0.0,0.0,0.0,0.0,0.0,0.0,0.0,0.0,0.0,0.0,0.0,0.0,0.0,0.0,0.0,0.0,0.0,0.0,0.0,0.0,0.0,0.0,0.0,0.0,0.0,0.0,0.0,0.0,0.0,0.0,0.0,0.0,0.0,0.0,0.0,0.0,0.0,0.0,0.0,0.0,0.0,0.0,0.0,0.0,0.0,0.0,0.0,0.0,0.0,0.0,0.0,0.0,0.0,0.0,0.0,0.0,0.0,0.0,0.0,0.0,0.0,0.0,0.0,0.0,0.0,0.0,0.0,0.0,0.0,0.0,0.0,0.0,0.0,0.0,0.0,0.0,0.0,0.0,0.0,0.0,0.0,0.0,0.0,0.0,0.0,0.0,0.0,0.0,0.0,0.0,0.0,0.0,0.0,0.0,0.0,0.0,0.0,0.0,0.0,0.0,0.0,0.0,0.0,0.0,0.0,0.0,0.0,0.0,0.0,0.0,0.0,0.0,0.0,0.0,0.0,0.0,0.0,0.0,0.0,0.0,0.0,0.0,0.0,0.0,0.0,0.0,0.0,0.0,0.0,0.0,0.0,0.0,0.0,0.0,0.0,0.0,0.0,0.0,0.0,0.0,0.0,0.0,0.0,0.0,0.0,0.0,0.0,0.0,0.0,0.0,0.0,0.0,0.0,0.0,0.0,0.0,0.0,0.0,0.0,0.0,0.0,0.0,0.0,0.0,0.0,0.0,0.0,0.0,0.0,0.0,0.0,0.0,0.0,0.0,0.0,0.0,0.0,0.0,0.0,0.0,0.0,0.0,0.0,0.0,0.0,0.0,0.0,0.0,0.0,0.0,0.0,0.0,0.0,0.0,0.0,0.0,0.0,0.0,0.0,0.0,0.0,0.0,0.0,0.0,0.0,0.0,0.0,0.0,0.0,0.0,0.0,0.0,0.0,6.1923,6.1695,0.0,0.0,0.0,0.0,0.0,0.0,0.0,0.0,0.0,0.0,0.0,0.0,0.0,0.0,0.0,0.0,0.0,0.0,0.0,0.0,0.0,0.0,0.0,0.0,0.0,0.0,0.0,0.0,0.0,0.0,0.0,0.0,0.0,0.0,0.0,0.0,0.0,0.0,0.0,0.0,0.0,0.0,0.0,0.0,0.0,0.0,0.0,0.0,0.0,0.0,0.0,0.0,0.0,0.0,0.0,0.0,0.0,0.0,0.0,0.0,0.0,0.0,0.0,0.0,0.0,0.0,0.0,0.0,0.0,0.0,0.0,0.0,0.0,0.0,0.0,0.0,0.0,0.0,0.0,0.0,0.0,0.0,0.0,0.0,0.0,0.0,0.0,0.0,0.0,0.0,0.0,0.0,0.0,0.0,0.0,0.0,0.0,0.0,0.0,0.0,0.0,0.0,0.0,0.0,0.0,0.0,0.0,0.0,0.0,0.0,0.0,0.0,0.0,0.0,6.5252,6.3817,0.0,0.0,0.0,0.0,0.0,0.0,0.0,0.0,0.0,0.0,0.0,0.0,0.0,0.0,0.0,0.0,0.0,0.0,0.0,0.0,0.0,0.0,0.0,0.0,0.0,0.0,0.0,0.0,0.0,0.0,0.0,0.0,0.0,0.0,0.0,0.0,0.0,0.0,0.0,0.0,0.0,0.0,0.0,0.0,0.0,0.0,0.0,0.0,0.0,0.0,0.0,0.0,0.0,0.0,0.0,0.0,0.0,0.0,0.0,0.0,0.0,0.0,0.0,0.0,0.0,0.0,0.0,0.0,0.0,0.0,0.0,0.0,0.0,0.0,0.0,0.0,0.0,0.0,0.0,0.0,0.0,0.0,0.0,0.0,0.0,0.0,0.0,0.0,0.0,0.0,0.0,0.0,0.0,0.0,0.0,0.0,0.0,0.0,0.0,0.0,0.0,0.0,0.0,0.0,0.0,0.0,0.0,0.0,7.2689,7.3649,7.4559,7.4166,7.4281,7.457,7.0806,6.7984,6.6052,6.7027,0.0,0.0,0.0,0.0,0.0,0.0,0.0,0.0,0.0,0.0,0.0,0.0,0.0,0.0,0.0,0.0,0.0,0.0,0.0,0.0,0.0,0.0,0.0,0.0,0.0,0.0,0.0,0.0,0.0,0.0,0.0,0.0,0.0,0.0,0.0,0.0,0.0,0.0,0.0,0.0,0.0,0.0,0.0,0.0,0.0,0.0,0.0,0.0,0.0,0.0,0.0,0.0,0.0,0.0,0.0,0.0,0.0,0.0,0.0,0.0,0.0,0.0,0.0,0.0,0.0,0.0,0.0,0.0,0.0,0.0,0.0,0.0,0.0,0.0,0.0,0.0,0.0,0.0,0.0,0.0,0.0,0.0,0.0,0.0,0.0,0.0,5.5985,5.7213,0.0,0.0,0.0,0.0,0.0,0.0,0.0,0.0,0.0,0.0,0.0,0.0,0.0,6.909,7.105,7.4849,7.6299,7.5441,7.8356,7.9112,7.7973,7.8591,7.9644,8.0956,7.9681,0.0,7.0834,6.8283,0.0,0.0,0.0,0.0,0.0,0.0,0.0,0.0,0.0,0.0,0.0,0.0,0.0,0.0,0.0,0.0,0.0,0.0,0.0,0.0,0.0,0.0,0.0,0.0,0.0,0.0,0.0,0.0,0.0,0.0,0.0,0.0,0.0,0.0,0.0,0.0,0.0,0.0,0.0,0.0,0.0,0.0,0.0,0.0,0.0,0.0,0.0,0.0,0.0,0.0,0.0,0.0,0.0,0.0,0.0,0.0,0.0,0.0,0.0,0.0,0.0,0.0,0.0,0.0,0.0,0.0,0.0,0.0,0.0,0.0,0.0,0.0,0.0,0.0,0.0,0.0,0.0,0.0,0.0,0.0,0.0,0.0,0.0,0.0,0.0,5.886,6.0577,5.8272,6.1182,6.261,0.0,0.0,0.0,0.0,0.0,0.0,0.0,0.0,0.0,6.8863,7.2317,7.4542,7.5375,7.9165,8.1473,8.2251,8.4123,8.5159,8.5343,8.5224,8.582,8.6848,8.56,8.3288,8.0064,7.5335,7.2118,7.0114,0.0,0.0,0.0,0.0,7.0432,7.1003,0.0,0.0,0.0,0.0,0.0,0.0,0.0,0.0,0.0,0.0,0.0,0.0,0.0,0.0,0.0,0.0,0.0,0.0,0.0,0.0,0.0,0.0,0.0,0.0,0.0,0.0,0.0,0.0,0.0,0.0,0.0,0.0,0.0,0.0,0.0,0.0,0.0,0.0,0.0,0.0,0.0,0.0,0.0,0.0,0.0,0.0,0.0,0.0,0.0,0.0,0.0,0.0,0.0,0.0,0.0,0.0,0.0,0.0,0.0,0.0,0.0,0.0,0.0,0.0,0.0,0.0,0.0,0.0,0.0,0.0,0.0,0.0,0.0,0.0,0.0,0.0,0.0,6.19,6.3635,5.9281,6.3339,6.5127,0.0,0.0,0.0,0.0,0.0,0.0,6.8458,7.2329,7.446,7.4439,7.7899,8.0126,8.0918,8.4236,8.6876,8.8895,8.9895,9.0996,9.2125,9.1345,9.1271,9.1794,9.0372,8.9197,8.7764,8.1723,7.6907,7.3396,7.3372,7.2699,7.1901,7.3588,7.4348,7.4866,0.0,0.0,0.0,0.0,0.0,0.0,0.0,0.0,0.0,0.0,0.0,0.0,0.0,0.0,0.0,0.0,0.0,0.0,0.0,0.0,0.0,0.0,0.0,0.0,0.0,0.0,0.0,0.0,0.0,0.0,0.0,0.0,0.0,0.0,0.0,0.0,0.0,0.0,0.0,0.0,0.0,0.0,0.0,0.0,0.0,0.0,0.0,0.0,0.0,0.0,0.0,0.0,0.0,0.0,0.0,0.0,0.0,0.0,0.0,0.0,0.0,0.0,0.0,0.0,0.0,0.0,0.0,0.0,0.0,0.0,0.0,0.0,0.0,0.0,0.0,0.0,0.0,0.0,0.0,6.0293,6.4786,0.0,0.0,0.0,0.0,6.7127,7.0189,7.2864,7.4662,7.5937,7.8392,8.2214,8.3595,8.5753,8.8783,9.1335,9.3051,9.3942,9.5511,9.6318,9.6355,9.5575,9.5208,9.5208,9.4373,9.3097,9.1161,8.4659,8.1239,7.9974,7.8468,7.8138,7.8511,7.8548,7.9125,7.9826,0.0,0.0,0.0,0.0,0.0,0.0,0.0,0.0,0.0,0.0,0.0,0.0,0.0,0.0,0.0,0.0,0.0,0.0,0.0,0.0,0.0,0.0,0.0,0.0,0.0,0.0,0.0,0.0,0.0,0.0,0.0,0.0,0.0,0.0,0.0,0.0,0.0,0.0,0.0,0.0,0.0,0.0,0.0,0.0,0.0,0.0,0.0,0.0,0.0,0.0,0.0,0.0,0.0,0.0,0.0,0.0,0.0,0.0,0.0,0.0,0.0,0.0,0.0,0.0,0.0,0.0,0.0,0.0,0.0,0.0,0.0,0.0,0.0,0.0,0.0,0.0,0.0,0.0,0.0,6.8177,7.1791,0.0,7.0024,6.9822,7.0732,7.2903,7.5775,7.7996,7.9305,8.2798,8.5241,8.6291,8.9247,9.1629,9.3308,9.5731,9.7126,9.7419,9.8484,9.8741,9.8217,9.796,9.7814,9.774,9.6428,9.5511,9.4749,9.1372,8.759,8.378,8.2157,8.1352,8.1185,8.2039,8.2579,8.3029,0.0,0.0,0.0,0.0,0.0,0.0,0.0,0.0,0.0,0.0,0.0,0.0,0.0,0.0,0.0,0.0,0.0,0.0,0.0,0.0,0.0,0.0,0.0,0.0,0.0,0.0,0.0,0.0,0.0,0.0,0.0,0.0,0.0,0.0,0.0,0.0,0.0,0.0,0.0,0.0,0.0,0.0,6.1861,0.0,0.0,0.0,0.0,0.0,0.0,0.0,0.0,0.0,0.0,0.0,0.0,0.0,0.0,0.0,0.0,0.0,0.0,0.0,0.0,0.0,0.0,0.0,0.0,0.0,0.0,0.0,0.0,0.0,0.0,0.0,0.0,0.0,0.0,7.135,7.4937,7.3861,7.7458,7.8819,7.5764,7.5449,7.6351,7.8676,8.157,8.38,8.5025,8.8795,9.108,9.1454,9.4373,9.6438,9.7512,9.9365,10.0309,10.0309,10.109,10.119,10.0713,10.0419,10.0309,10.0199,9.8631,9.7897,9.775,9.5878,9.2877,8.9279,8.706,8.593,8.5521,8.6187,8.6593,8.7044,0.0,0.0,0.0,0.0,0.0,0.0,0.0,0.0,0.0,0.0,0.0,0.0,0.0,0.0,0.0,0.0,0.0,0.0,0.0,0.0,0.0,0.0,0.0,0.0,0.0,0.0,0.0,0.0,0.0,0.0,0.0,0.0,0.0,0.0,0.0,0.0,0.0,0.0,0.0,0.0,0.0,0.0,6.4355,0.0,0.0,0.0,0.0,0.0,0.0,0.0,0.0,0.0,0.0,0.0,0.0,0.0,0.0,0.0,0.0,0.0,0.0,0.0,0.0,0.0,0.0,0.0,0.0,0.0,0.0,0.0,0.0,0.0,0.0,0.0,0.0,0.0,6.6438,7.3612,7.83,7.6929,8.1384,8.3168,7.9604,8.1714,8.3603,8.4331,8.7483,9.0128,9.1849,9.3538,9.552,9.787,9.8778,9.9989,10.1587,10.2412,10.2805,10.2815,10.3596,10.388,10.389,10.3109,10.2695,10.2585,10.109,10.0403,10.0219,9.7787,9.6795,9.6465,9.3161,9.1877,9.1767,9.0987,9.1179,9.182,0.0,0.0,0.0,0.0,0.0,0.0,0.0,0.0,0.0,0.0,0.0,0.0,0.0,0.0,0.0,0.0,0.0,0.0,0.0,0.0,0.0,0.0,0.0,0.0,0.0,0.0,0.0,0.0,0.0,0.0,0.0,0.0,0.0,0.0,0.0,0.0,0.0,0.0,0.0,0.0,0.0,0.0,6.5246,0.0,0.0,0.0,0.0,0.0,0.0,0.0,0.0,0.0,0.0,0.0,0.0,0.0,0.0,0.0,0.0,0.0,0.0,0.0,0.0,0.0,0.0,0.0,0.0,0.0,0.0,0.0,0.0,0.0,0.0,0.0,6.984,7.2908,7.4134,7.8594,8.2481,8.4505,8.668,8.7838,8.7287,8.7494,8.865,9.1117,9.2274,9.3629,9.5263,9.6906,9.808,9.8741,10.119,10.2789,10.3182,10.4698,10.5091,10.441,10.4714,10.4504,10.389,10.3707,10.3596,10.3513,10.2485,10.1714,10.11,9.9805,9.8961,9.8107,9.4887,9.3611,9.3575,9.3345,9.3051,9.2758,0.0,0.0,0.0,0.0,0.0,0.0,0.0,0.0,0.0,0.0,0.0,0.0,0.0,0.0,0.0,0.0,0.0,0.0,0.0,0.0,0.0,0.0,0.0,0.0,0.0,0.0,0.0,0.0,0.0,0.0,0.0,0.0,0.0,0.0,0.0,0.0,0.0,0.0,0.0,0.0,0.0,0.0,6.9786,6.6516,6.5093,6.4628,6.3205,6.2861,6.2834,6.0834,0.0,0.0,0.0,0.0,0.0,0.0,0.0,0.0,0.0,0.0,0.0,0.0,0.0,0.0,0.0,0.0,0.0,0.0,0.0,0.0,0.0,0.0,0.0,0.0,7.4448,7.8829,8.2302,8.4356,8.6756,9.0168,9.1097,9.1883,9.292,9.2386,9.2959,9.5434,9.605,9.6869,9.8154,9.9722,10.0897,10.1594,10.3806,10.5285,10.5899,10.689,10.7,10.6108,10.6108,10.5715,10.4908,10.4908,10.4908,10.4918,10.41,10.3392,10.2889,10.1394,10.0503,9.9805,0.0,0.0,0.0,0.0,9.4079,9.3088,0.0,0.0,0.0,0.0,0.0,0.0,0.0,0.0,0.0,0.0,0.0,0.0,0.0,0.0,0.0,0.0,0.0,0.0,0.0,0.0,0.0,0.0,0.0,0.0,0.0,0.0,0.0,0.0,0.0,0.0,0.0,0.0,0.0,0.0,0.0,0.0,0.0,0.0,0.0,0.0,0.0,0.0,7.5488,7.1611,7.0826,7.1409,6.8373,6.6406,6.493,6.3159,0.0,0.0,0.0,0.0,0.0,0.0,0.0,0.0,0.0,0.0,0.0,0.0,0.0,0.0,0.0,0.0,0.0,0.0,0.0,0.0,0.0,0.0,0.0,0.0,7.9355,8.4288,9.0164,9.0554,9.1324,9.4236,9.4749,9.5401,9.6832,9.6475,9.6815,9.8347,9.9108,9.9906,10.0796,10.2301,0.0,0.0,0.0,10.7404,10.8799,10.8909,10.8505,10.7708,10.7708,10.7388,10.6717,10.6717,10.6717,10.6596,10.5789,10.5301,10.5081,10.2815,10.1798,10.132,9.819,9.7419,9.787,9.6309,9.4804,9.3492,0.0,0.0,0.0,0.0,0.0,0.0,0.0,0.0,0.0,0.0,0.0,0.0,0.0,0.0,0.0,0.0,0.0,0.0,0.0,0.0,0.0,0.0,0.0,0.0,0.0,0.0,0.0,0.0,0.0,0.0,0.0,0.0,0.0,0.0,0.0,0.0,0.0,0.0,0.0,0.0,0.0,0.0,7.5267,7.3557,7.1434,6.9272,6.8615,6.8665,6.8646,6.6046,6.5993,6.6556,6.3946,0.0,0.0,0.0,0.0,0.0,0.0,0.0,0.0,0.0,0.0,0.0,0.0,0.0,0.0,0.0,0.0,0.0,0.0,0.0,0.0,7.9467,8.4342,8.934,9.459,9.6388,9.6911,9.6301,9.7373,9.8291,9.8621,9.9668,10.0686,10.1714,10.1888,10.2585,10.409,10.5081,10.6093,10.7095,10.8516,10.9092,10.8799,10.9386,10.9397,10.8589,10.8589,0.0,10.8321,10.8321,10.8321,10.8285,10.7488,10.6706,10.6093,10.4908,10.3613,10.2191,9.9649,9.8731,9.8731,9.7787,9.6832,9.5914,0.0,0.0,0.0,0.0,0.0,0.0,0.0,0.0,0.0,0.0,6.0973,6.5859,6.7628,0.0,0.0,0.0,0.0,0.0,0.0,0.0,0.0,0.0,0.0,0.0,0.0,0.0,0.0,0.0,0.0,0.0,0.0,0.0,0.0,0.0,0.0,0.0,0.0,0.0,0.0,0.0,0.0,0.0,7.9781,7.8235,7.6098,7.3803,7.295,7.2159,7.1143,6.8886,6.8193,6.795,6.6013,6.4483,6.3134,0.0,0.0,0.0,0.0,0.0,0.0,0.0,0.0,0.0,0.0,0.0,0.0,0.0,0.0,6.6879,6.9283,0.0,8.035,8.5084,8.9738,9.4356,9.8965,10.0384,10.0503,9.9255,10.0209,10.119,10.1998,10.2805,10.3613,10.4504,10.4908,10.5505,10.6302,10.711,10.8002,10.882,10.9591,11.001,11.001,11.0414,11.0193,10.9397,10.9397,10.9202,10.8799,10.8799,10.8799,10.8799,10.8406,10.7708,10.69,10.5595,10.4383,10.3109,10.1484,10.0383,9.9548,9.8347,9.7392,9.6575,0.0,0.0,0.0,0.0,0.0,0.0,0.0,0.0,0.0,0.0,0.0,6.3163,6.4746,6.7901,0.0,0.0,0.0,0.0,0.0,0.0,0.0,0.0,0.0,0.0,0.0,0.0,0.0,0.0,0.0,0.0,0.0,0.0,0.0,0.0,0.0,0.0,0.0,0.0,0.0,0.0,0.0,0.0,8.511,8.3333,8.14,7.9439,7.7936,7.5513,7.2853,7.1764,6.9966,6.8168,6.8082,6.7219,6.5853,6.4014,6.3416,0.0,0.0,0.0,0.0,0.0,0.0,0.0,0.0,0.0,6.4413,6.6571,6.8777,7.1554,7.5589,8.0765,8.5866,9.0295,9.4642,9.8743,10.2393,10.3209,10.3219,10.2715,10.3109,10.399,10.5411,10.5705,10.6108,10.678,10.7488,10.7902,10.8086,10.8799,10.9617,11.0204,11.0388,11.0707,11.121,11.121,11.0891,11.0193,11.0193,10.9911,10.9312,10.9312,10.9312,10.9191,10.8909,10.8285,10.7498,10.6009,10.5018,10.4284,10.3513,10.2301,10.0806,9.8851,9.7713,9.7052,0.0,0.0,0.0,0.0,0.0,0.0,0.0,0.0,0.0,0.0,0.0,0.0,0.0,0.0,0.0,0.0,0.0,0.0,0.0,0.0,0.0,0.0,0.0,0.0,0.0,0.0,0.0,0.0,0.0,0.0,0.0,0.0,0.0,0.0,0.0,0.0,0.0,0.0,0.0,0.0,0.0,0.0,8.7673,8.6742,8.4382,8.1471,8.0569,7.7253,7.3553,7.4962,7.2781,6.9975,7.272,7.1597,6.9005,6.8017,0.0,6.2475,6.0615,5.9449,5.9144,6.0865,6.2285,6.4141,0.0,0.0,6.9903,7.229,7.5074,7.7759,7.9936,8.5926,9.1247,9.3482,9.7858,10.1614,10.3497,10.5018,10.6203,10.679,10.6386,10.6313,10.7194,10.8002,10.8395,10.8505,10.8615,10.8993,10.969,11.0487,11.1001,11.1111,11.1808,11.1808,11.121,11.121,11.1184,11.1111,11.1111,11.099,11.0917,11.0917,11.0917,11.0891,10.9386,10.8285,10.7488,10.6607,10.6203,10.6009,10.5201,10.431,10.3109,10.0099,9.8915,9.8621,0.0,0.0,0.0,0.0,0.0,0.0,0.0,0.0,0.0,0.0,0.0,0.0,0.0,0.0,0.0,0.0,0.0,0.0,0.0,0.0,0.0,0.0,0.0,0.0,0.0,0.0,0.0,0.0,0.0,0.0,0.0,0.0,0.0,0.0,0.0,0.0,0.0,0.0,0.0,0.0,0.0,0.0,9.0041,8.783,8.4964,8.1772,7.9519,7.6512,0.0,0.0,7.243,7.1646,7.3465,7.2481,7.0464,6.9638,6.6942,0.0,6.1111,6.1118,6.2133,6.3418,6.6628,7.0086,7.2516,7.4111,7.5733,7.8156,8.0758,8.3595,8.6724,9.1255,9.5553,9.868,10.1714,10.4504,10.7084,10.7708,10.7697,10.7609,10.7708,10.8101,10.8883,10.9716,11.0193,11.0193,11.0193,11.0293,11.0707,11.1478,11.1919,11.1919,11.2701,11.2701,11.1919,11.1919,11.1698,11.121,11.121,11.121,11.121,11.121,11.121,11.11,11.001,10.8982,10.8211,10.7414,10.679,10.6313,10.4908,10.421,10.3596,10.0796,9.9805,9.9585,0.0,0.0,0.0,0.0,0.0,0.0,0.0,0.0,0.0,0.0,0.0,0.0,0.0,0.0,0.0,0.0,0.0,0.0,0.0,8.2016,8.838,9.3736,0.0,0.0,0.0,0.0,0.0,0.0,0.0,0.0,0.0,0.0,0.0,0.0,0.0,0.0,0.0,0.0,0.0,0.0,0.0,0.0,9.14,8.772,8.4352,8.113,7.8067,7.4691,0.0,0.0,7.0103,7.0139,7.2099,7.1762,7.0499,6.9926,6.7173,6.3863,6.1924,6.3068,6.5234,6.713,7.1688,7.6203,7.8038,8.0057,8.2186,8.4397,8.6416,8.8912,9.2501,9.5658,9.8851,10.2401,10.4614,10.6816,10.9617,10.9103,10.8295,10.7682,10.7708,10.8211,10.9213,11.0314,11.1111,11.1504,11.1284,11.1405,11.1797,11.2396,11.2689,11.2689,11.3508,11.3497,11.2689,11.2506,11.2102,11.1504,11.1284,11.121,11.121,11.121,11.121,11.1184,11.0304,10.9496,10.8688,10.7892,10.7084,10.6313,10.5102,10.4394,10.399,10.2008,10.0907,10.0099,0.0,0.0,0.0,0.0,0.0,0.0,0.0,0.0,0.0,0.0,0.0,0.0,0.0,0.0,0.0,0.0,0.0,0.0,0.0,7.9169,8.5132,9.1162,9.4696,9.6907,9.7739,9.7811,9.7825,9.7833,0.0,0.0,0.0,0.0,0.0,0.0,0.0,0.0,0.0,0.0,0.0,0.0,0.0,0.0,9.1289,8.6481,8.2663,7.9559,7.7047,0.0,0.0,0.0,6.5705,6.393,6.8715,6.9633,0.0,6.8928,6.5521,0.0,0.0,0.0,6.754,7.2283,7.7121,8.1407,8.3801,8.6803,8.9555,9.1179,9.2244,9.3639,9.6098,9.8557,10.098,10.3486,10.5909,10.8086,10.9811,10.8589,10.7609,10.7609,10.6192,10.5899,10.7488,10.9103,11.0718,11.2212,11.1614,11.1919,11.3398,11.3593,11.3593,11.3593,11.4305,11.4389,11.3593,11.2811,11.2396,11.2407,11.1588,11.121,11.121,11.121,11.121,11.1184,11.0304,10.9496,10.8688,10.7892,10.7084,10.6386,10.6302,10.5789,10.5007,10.41,10.2301,10.0209,0.0,0.0,0.0,0.0,0.0,0.0,0.0,0.0,0.0,0.0,0.0,0.0,0.0,0.0,0.0,0.0,0.0,0.0,0.0,7.8092,8.4032,8.7872,9.2417,9.5021,9.5404,9.6012,9.6575,9.7089,9.7089,9.7089,0.0,0.0,0.0,0.0,0.0,0.0,0.0,0.0,0.0,0.0,0.0,0.0,9.0482,8.5628,8.0783,7.6019,0.0,0.0,0.0,0.0,0.0,0.0,6.5418,0.0,0.0,6.5178,0.0,0.0,0.0,0.0,7.5432,7.9205,8.3793,8.8014,9.0482,9.2721,9.44,9.4923,9.485,9.4951,9.5758,9.7456,9.9668,10.2585,10.5605,10.8295,11.0487,11.0304,10.8809,10.5505,10.6093,10.6093,10.4504,10.679,10.9287,11.1394,11.1797,11.2212,11.2811,11.3791,11.4415,11.4415,11.5197,11.5185,11.4415,11.4121,11.3717,11.3215,11.2407,11.1698,11.121,11.121,11.121,11.1221,11.0891,11.0304,10.9496,10.8688,10.7892,10.7095,10.6009,10.5411,10.5007,10.421,10.2999,10.1788,0.0,0.0,0.0,0.0,0.0,0.0,0.0,0.0,0.0,0.0,0.0,0.0,0.0,0.0,0.0,0.0,0.0,0.0,0.0,0.0,7.9142,8.2727,8.6462,8.8751,8.9466,8.975,9.0583,9.195,9.195,9.2675,9.4107,9.44,0.0,0.0,0.0,0.0,0.0,0.0,0.0,0.0,0.0,0.0,8.571,8.0269,7.5425,0.0,0.0,0.0,0.0,0.0,0.0,0.0,0.0,0.0,0.0,0.0,0.0,0.0,0.0,7.668,8.2011,8.5563,9.0069,9.4033,9.5658,9.7052,9.7823,9.7236,9.5804,9.4547,9.4253,9.4556,9.6025,9.9539,10.2385,10.5505,10.9397,10.9202,10.7807,10.5505,10.5799,10.5689,10.421,10.6203,10.8589,11.099,11.1907,11.2701,11.3203,11.4183,11.488,11.5185,11.5699,11.5784,11.5185,11.488,11.4415,11.3582,11.2811,11.2102,11.1577,11.1284,11.121,11.121,11.121,11.0696,10.9984,10.9386,10.8589,10.7498,10.6413,10.5778,10.5484,10.4991,10.4284,10.3392,0.0,0.0,0.0,0.0,0.0,0.0,0.0,0.0,0.0,0.0,0.0,0.0,0.0,0.0,0.0,0.0,0.0,0.0,0.0,0.0,0.0,7.5894,7.7448,7.8936,8.0587,7.9955,8.0755,8.3087,8.3087,8.5032,8.8812,8.9629,9.0408,9.1225,0.0,0.0,0.0,0.0,0.0,0.0,0.0,0.0,7.7598,7.1321,0.0,0.0,0.0,0.0,0.0,0.0,0.0,0.0,0.0,0.0,0.0,0.0,0.0,7.08,7.7341,8.2635,8.726,9.1308,9.5804,9.9208,9.9208,9.9769,9.9805,9.809,9.5144,9.2611,9.1546,9.0289,9.0721,9.4841,9.7089,10.0596,10.69,10.592,10.5212,0.0,0.0,0.0,0.0,0.0,10.8809,11.1111,11.1992,11.3203,11.4697,11.488,11.5296,11.6005,11.5993,11.5993,11.6005,11.5211,11.4415,11.3582,11.28,11.2396,11.2286,11.1504,11.121,11.121,11.121,11.0781,11.0105,10.9984,10.9103,10.7719,10.7682,10.7205,10.6497,10.6497,10.5899,10.5007,0.0,0.0,0.0,0.0,0.0,0.0,0.0,0.0,0.0,0.0,0.0,0.0,0.0,0.0,0.0,0.0,0.0,0.0,0.0,0.0,0.0,0.0,0.0,0.0,0.0,0.0,0.0,0.0,0.0,7.9381,8.04,8.126,8.1782,0.0,8.3875,0.0,0.0,0.0,0.0,0.0,0.0,0.0,7.367,0.0,0.0,0.0,0.0,0.0,0.0,0.0,0.0,0.0,0.0,6.3943,6.6079,0.0,0.0,7.7524,8.3985,8.9316,9.3841,9.7319,9.9522,10.0917,10.0917,10.0586,9.9328,9.5924,9.2611,8.9363,8.6142,8.7675,9.0721,9.4841,10.0393,10.5909,11.0498,11.1111,0.0,10.9507,0.0,10.9008,10.8295,10.9496,11.0817,11.1992,11.3387,11.4415,11.4818,11.6507,11.6984,11.5993,11.6617,11.6617,11.6005,11.581,11.5013,11.3582,11.3398,11.2701,11.1504,11.1284,11.121,11.121,11.121,11.1111,11.0806,11.0193,10.9811,10.9287,10.8688,10.8002,10.7315,10.7315,10.6386,10.5191,0.0,0.0,0.0,0.0,0.0,0.0,0.0,0.0,0.0,0.0,0.0,0.0,0.0,0.0,0.0,0.0,0.0,0.0,0.0,0.0,0.0,0.0,0.0,0.0,0.0,0.0,0.0,0.0,0.0,0.0,0.0,7.4103,7.4727,7.5469,7.7084,7.7818,0.0,0.0,0.0,0.0,0.0,0.0,0.0,0.0,0.0,0.0,0.0,0.0,0.0,0.0,0.0,6.3686,6.6402,6.8605,7.1204,7.6423,0.0,8.4205,9.0702,9.5483,9.9265,10.1788,10.2999,10.3083,10.0907,9.9805,9.7613,9.1776,8.7986,8.46,8.0893,8.3206,8.706,9.1097,9.7897,10.4698,11.0487,11.1709,11.2003,0.0,11.2212,0.0,11.1012,11.1981,11.3313,11.4403,11.5002,11.5296,11.5296,11.7314,11.7792,11.658,11.7021,11.6789,11.6005,11.6005,11.5479,11.461,11.4316,11.3508,11.2212,11.1919,11.1504,11.121,11.121,11.121,11.1221,11.0707,11.0304,10.9984,10.9507,10.8799,10.8112,10.7708,10.7011,10.6192,0.0,0.0,0.0,0.0,0.0,0.0,0.0,0.0,0.0,0.0,0.0,0.0,0.0,0.0,0.0,0.0,0.0,0.0,0.0,0.0,0.0,0.0,0.0,0.0,0.0,0.0,0.0,0.0,0.0,0.0,0.0,0.0,0.0,0.0,0.0,0.0,0.0,0.0,0.0,0.0,0.0,0.0,0.0,0.0,0.0,0.0,0.0,0.0,0.0,0.0,6.6873,6.727,7.1307,7.439,7.7582,8.3087,8.6876,9.0702,9.6989,10.0907,10.3586,10.5191,10.5778,10.4798,10.0209,9.7897,9.4529,8.6636,8.2443,7.9242,7.6203,7.8479,8.2362,8.706,9.3749,10.12,10.9507,11.0718,11.1893,11.488,11.472,11.4206,11.4206,11.5013,11.5982,11.7413,11.7094,11.6702,11.6287,11.7913,11.8294,11.7413,11.7303,11.6789,11.6005,11.6005,11.5883,11.581,11.5002,11.4194,11.3398,11.2579,11.1882,11.121,11.121,11.121,11.121,11.121,11.0817,11.0204,11.0204,10.969,10.8909,10.8196,10.7902,10.7682,0.0,0.0,0.0,0.0,0.0,0.0,0.0,0.0,0.0,0.0,0.0,0.0,0.0,0.0,0.0,0.0,0.0,0.0,0.0,0.0,0.0,0.0,0.0,0.0,0.0,0.0,0.0,0.0,0.0,0.0,0.0,0.0,0.0,0.0,0.0,0.0,0.0,0.0,0.0,0.0,0.0,0.0,0.0,0.0,0.0,0.0,0.0,0.0,0.0,0.0,7.1711,7.3949,7.8031,8.1884,8.5775,9.0143,9.3235,9.6355,10.1504,10.4294,10.6119,10.7807,10.6192,10.3403,9.9906,9.4841,0.0,8.2231,7.8222,7.5388,7.3479,7.6908,8.2635,9.073,9.7025,10.389,11.2689,11.4488,11.5711,0.0,11.7693,11.7608,11.7608,11.8306,11.8905,11.9198,12.0288,12.0104,11.8085,11.959,11.9811,11.8184,11.7523,11.6789,11.6005,11.6005,11.5711,11.5002,11.4206,11.3398,11.259,11.1808,11.1284,11.121,11.121,11.121,11.121,11.121,11.11,11.1001,11.1001,11.0487,10.9801,10.9617,10.9213,10.8589,0.0,0.0,0.0,0.0,0.0,0.0,0.0,0.0,0.0,0.0,0.0,0.0,0.0,0.0,0.0,0.0,0.0,0.0,0.0,0.0,0.0,0.0,0.0,0.0,0.0,0.0,0.0,0.0,0.0,0.0,0.0,0.0,0.0,0.0,0.0,0.0,0.0,0.0,0.0,0.0,0.0,0.0,0.0,0.0,0.0,0.0,0.0,0.0,0.0,0.0,7.2929,7.8948,8.383,8.7867,9.1583,9.5658,9.8264,10.0796,10.5201,10.7294,10.8589,10.979,10.689,10.2485,9.719,0.0,0.0,7.6357,7.3156,7.1424,7.022,7.5036,8.1277,8.7655,9.3418,10.0503,11.0304,11.1992,11.3791,11.7902,11.8795,11.9187,11.97,12.0116,12.0581,12.1511,12.2307,12.2013,12.0398,12.0691,12.0288,11.9088,11.7817,11.7009,11.6605,11.6213,11.581,11.5406,11.5002,11.4206,11.2994,11.2579,11.1992,11.121,11.121,11.121,11.121,11.121,11.121,11.121,11.121,11.1001,11.0597,11.0204,10.9801,10.9397,0.0,0.0,0.0,0.0,0.0,0.0,0.0,0.0,0.0,0.0,0.0,0.0,0.0,0.0,0.0,0.0,0.0,0.0,0.0,0.0,0.0,0.0,0.0,0.0,0.0,0.0,0.0,5.8002,0.0,0.0,0.0,0.0,0.0,0.0,5.8002,0.0,0.0,0.0,0.0,0.0,0.0,0.0,0.0,0.0,0.0,0.0,0.0,0.0,0.0,0.0,7.2312,7.9939,8.5766,9.1023,9.5704,9.8851,10.1688,10.4614,10.8285,10.99,11.0718,11.1295,10.7099,10.109,9.4373,8.7133,7.9499,7.1291,6.8935,6.8304,6.8024,7.309,7.8956,8.4022,8.905,9.6052,10.678,10.8909,11.1577,11.7902,11.9407,12.03,12.1316,12.1389,12.2013,12.3396,12.3701,12.3298,12.2221,12.1511,12.0703,11.9602,11.8184,11.7413,11.7193,11.6397,11.6005,11.6005,11.581,11.5087,11.3802,11.3508,11.2701,11.1394,11.1295,11.121,11.121,11.121,11.121,11.121,11.121,11.121,11.11,11.0498,11.0314,11.0204,0.0,0.0,0.0,0.0,0.0,0.0,0.0,0.0,0.0,0.0,0.0,0.0,0.0,0.0,0.0,0.0,0.0,0.0,0.0,0.0,0.0,0.0,0.0,0.0,0.0,0.0,0.0,5.8002,5.7923,0.0,0.0,0.0,0.0,0.0,0.0,5.8002,5.8002,0.0,0.0,0.0,0.0,0.0,0.0,0.0,0.0,0.0,0.0,0.0,0.0,0.0,0.0,7.3325,7.9756,8.905,9.7649,9.8016,10.2385,10.7708,11.0304,11.1588,11.2223,11.2286,10.5899,9.8227,9.3171,0.0,7.5102,6.9132,6.729,6.7136,6.8525,7.1138,7.5836,8.4324,0.0,9.3703,10.4981,10.9081,11.3093,11.8795,12.03,12.1389,12.2882,12.3114,12.3396,12.4289,12.5109,12.4485,12.2209,12.1988,12.1291,11.9712,11.8709,11.789,11.7193,11.6397,11.6005,11.6005,11.5296,11.4807,11.4587,11.3203,11.2396,11.2212,11.1504,11.121,11.121,11.121,11.121,11.121,11.121,11.121,11.121,11.11,11.1111,11.1111,0.0,0.0,0.0,0.0,0.0,0.0,0.0,0.0,0.0,0.0,0.0,0.0,0.0,0.0,0.0,0.0,0.0,0.0,0.0,0.0,0.0,0.0,0.0,0.0,0.0,0.0,0.0,0.0,0.0,0.0,0.0,0.0,0.0,0.0,0.0,5.8002,5.8002,0.0,0.0,0.0,0.0,0.0,0.0,0.0,0.0,0.0,0.0,0.0,5.9092,0.0,0.0,0.0,7.0624,7.8927,0.0,0.0,9.9999,10.4991,10.99,11.2102,11.2994,11.2506,10.5715,9.7703,9.2354,0.0,7.2606,6.7951,6.5968,6.5711,6.7804,7.0146,7.3883,8.0424,0.0,8.5775,9.6218,9.9181,10.3796,11.3387,11.6092,11.9003,12.3591,12.3995,12.4411,12.5182,12.5513,12.5109,12.3591,12.3077,12.2307,12.1095,11.9811,11.9015,11.8599,11.7388,11.6679,11.6679,11.592,11.5296,11.4818,11.3607,11.2884,11.2407,11.1504,11.121,11.121,11.121,11.121,11.121,11.121,11.121,11.121,11.121,11.121,11.121,0.0,0.0,0.0,0.0,0.0,0.0,0.0,0.0,0.0,0.0,0.0,0.0,0.0,0.0,0.0,0.0,0.0,0.0,0.0,0.0,0.0,0.0,0.0,0.0,0.0,0.0,0.0,0.0,0.0,0.0,0.0,0.0,5.8136,5.8002,0.0,0.0,0.0,0.0,0.0,0.0,0.0,0.0,0.0,0.0,0.0,0.0,0.0,0.0,0.0,0.0,0.0,0.0,0.0,0.0,0.0,0.0,9.6318,10.2385,10.8211,11.1489,11.3215,11.28,10.5311,9.6685,9.1436,8.0865,7.0984,6.6983,6.5228,6.5051,6.7003,6.9522,7.2665,7.6827,7.7994,8.1481,9.0271,9.3051,9.796,10.82,11.11,11.5002,12.1683,12.3897,12.5109,12.5709,12.5696,12.5488,12.4888,12.4105,12.3188,12.2098,12.0703,11.97,11.9187,11.7902,11.7083,11.6789,11.6298,11.5699,11.5112,11.4305,11.3508,11.2701,11.1919,11.1394,11.121,11.121,11.121,11.121,11.121,11.121,11.121,11.121,11.121,11.121,0.0,0.0,0.0,0.0,0.0,0.0,0.0,0.0,0.0,0.0,0.0,0.0,0.0,0.0,0.0,0.0,0.0,0.0,0.0,0.0,0.0,0.0,0.0,0.0,0.0,0.0,0.0,0.0,0.0,0.0,0.0,0.0,0.0,5.8002,0.0,0.0,0.0,0.0,0.0,0.0,0.0,0.0,0.0,0.0,0.0,0.0,0.0,0.0,0.0,0.0,0.0,0.0,0.0,0.0,0.0,0.0,9.1501,10.12,10.5311,10.9397,11.2579,11.3398,10.4488,9.4465,9.0353,8.0021,7.0169,6.6132,6.5288,6.5552,6.6366,6.9148,7.2114,7.4536,7.8324,8.3206,8.9702,9.4116,9.8768,10.4493,10.5888,10.9312,11.6605,12.2392,12.5696,12.5696,12.5696,12.5696,12.5696,12.4888,12.3787,12.2221,12.1279,12.0104,11.8416,11.7596,11.6789,11.5993,11.6005,11.6005,11.6005,11.5185,11.4305,11.3508,11.2689,11.1907,11.121,11.121,11.121,11.121,11.121,11.121,11.121,11.121,11.121,11.121,0.0,0.0,0.0,0.0,0.0,0.0,0.0,0.0,0.0,0.0,0.0,0.0,0.0,0.0,0.0,0.0,0.0,0.0,0.0,0.0,0.0,0.0,0.0,0.0,0.0,0.0,0.0,0.0,0.0,0.0,0.0,0.0,0.0,0.0,5.8002,0.0,0.0,0.0,0.0,0.0,0.0,0.0,0.0,0.0,0.0,0.0,0.0,0.0,0.0,0.0,0.0,0.0,0.0,0.0,0.0,0.0,0.0,0.0,9.6732,10.0686,10.2999,10.1604,9.5841,8.9316,8.4719,7.6827,6.9486,6.6022,6.4854,6.4897,6.6256,6.8678,7.2018,7.668,7.9001,8.1864,8.6636,9.1776,9.7566,10.431,11.3681,12.0483,12.2796,12.4595,12.5696,12.5696,12.5696,12.5696,12.5696,12.4913,12.3995,12.3004,12.2086,12.0887,11.9187,11.8416,11.7596,11.6789,11.6298,11.6005,11.6005,11.461,11.3802,11.3508,11.2223,11.1394,11.121,11.121,11.121,11.121,11.121,11.121,11.121,11.121,11.121,11.121,0.0,0.0,0.0,0.0,0.0,0.0,0.0,0.0,0.0,0.0,0.0,0.0,0.0,0.0,0.0,0.0,0.0,0.0,0.0,0.0,0.0,0.0,0.0,0.0,0.0,0.0,0.0,0.0,0.0,0.0,0.0,0.0,0.0,0.0,0.0,0.0,0.0,0.0,0.0,0.0,0.0,0.0,5.7593,0.0,0.0,0.0,0.0,0.0,0.0,0.0,0.0,0.0,0.0,0.0,0.0,0.0,0.0,0.0,0.0,9.4116,9.7016,9.5804,9.1143,8.582,8.1884,7.5094,6.8898,6.6286,6.5118,6.4934,6.6256,6.8715,7.1725,7.5278,7.7524,8.0388,8.4719,8.9977,9.6392,10.4604,11.5589,12.249,12.249,12.4411,12.5696,12.5696,12.5696,12.5586,12.5292,12.4815,12.3897,12.2405,12.1903,12.0802,11.9198,11.8294,11.7486,11.6716,11.6213,11.581,11.5516,11.4488,11.3692,11.3104,11.2102,11.1515,0.0,11.121,11.121,11.121,11.121,11.121,11.121,11.121,11.121,11.121,0.0,0.0,0.0,0.0,0.0,0.0,0.0,0.0,0.0,0.0,0.0,0.0,0.0,0.0,0.0,0.0,0.0,0.0,0.0,0.0,0.0,0.0,0.0,0.0,0.0,0.0,0.0,0.0,0.0,0.0,0.0,0.0,0.0,0.0,0.0,0.0,0.0,0.0,0.0,0.0,0.0,0.0,0.0,0.0,0.0,0.0,0.0,0.0,0.0,0.0,0.0,0.0,0.0,0.0,0.0,0.0,0.0,0.0,0.0,0.0,0.0,0.0,0.0,0.0,0.0,0.0,0.0,0.0,6.5809,6.5582,6.6512,6.9148,7.1344,7.1747,7.5014,7.9197,8.4087,8.9491,9.6438,10.5983,11.3412,11.7707,11.7596,12.249,12.5696,12.5696,12.5696,12.5292,12.4509,12.4399,12.3298,12.0985,12.0802,11.9909,11.8294,11.7608,11.6789,11.6005,11.6005,11.5589,11.4818,11.4697,11.3901,11.2396,11.2286,11.1919,11.121,11.121,11.121,11.121,11.121,11.121,11.121,11.121,11.121,11.121,0.0,0.0,0.0,0.0,0.0,0.0,0.0,0.0,0.0,0.0,0.0,0.0,0.0,0.0,0.0,0.0,0.0,0.0,0.0,0.0,0.0,0.0,0.0,0.0,0.0,0.0,0.0,0.0,0.0,0.0,0.0,0.0,0.0,0.0,0.0,0.0,0.0,0.0,0.0,0.0,0.0,0.0,0.0,0.0,0.0,0.0,5.8002,5.8002,0.0,0.0,0.0,0.0,0.0,0.0,0.0,0.0,6.5295,0.0,0.0,0.0,0.0,0.0,0.0,0.0,0.0,0.0,0.0,0.0,0.0,6.5919,6.7974,6.9449,7.1798,7.6166,7.8185,8.0901,8.5738,9.6511,10.6313,11.2994,11.959,12.3016,12.1095,12.3787,12.5696,12.5696,12.5696,12.5292,12.4509,12.3922,12.2784,12.0997,11.97,11.8489,11.7486,11.7303,11.6789,11.6005,11.6005,11.5589,11.4818,11.4206,11.3313,11.2407,11.1687,11.1405,11.121,11.121,11.121,11.121,11.121,11.121,11.121,11.121,11.121,11.121,0.0,0.0,0.0,0.0,0.0,0.0,0.0,0.0,0.0,0.0,0.0,0.0,0.0,0.0,0.0,0.0,0.0,0.0,0.0,0.0,0.0,0.0,0.0,0.0,0.0,0.0,0.0,0.0,0.0,0.0,0.0,0.0,0.0,0.0,0.0,0.0,0.0,0.0,0.0,0.0,5.785,0.0,0.0,0.0,0.0,0.0,5.8002,5.8253,0.0,6.0334,6.1141,6.1588,0.0,0.0,0.0,0.0,6.3209,0.0,0.0,0.0,0.0,0.0,0.0,0.0,0.0,0.0,0.0,0.0,0.0,0.0,6.8451,6.9846,7.2011,7.6232,7.8523,8.2525,9.0363,10.0099,10.8993,11.5688,12.0703,12.3604,12.3714,12.4888,12.5696,12.5696,12.5402,12.4595,12.3493,12.26,12.1316,11.9297,11.8294,11.7596,11.7193,11.6789,11.6202,11.5394,11.5394,11.4818,11.3681,11.3203,11.2579,11.1797,11.1405,11.121,11.121,11.121,11.121,11.121,11.121,11.121,11.121,11.121,11.121,11.121,0.0,0.0,0.0,0.0,0.0,0.0,0.0,0.0,0.0,0.0,0.0,0.0,0.0,0.0,0.0,0.0,0.0,0.0,0.0,0.0,0.0,0.0,0.0,0.0,0.0,0.0,0.0,0.0,0.0,0.0,0.0,0.0,0.0,0.0,0.0,0.0,0.0,0.0,0.0,0.0,5.774,0.0,0.0,0.0,0.0,0.0,0.0,0.0,0.0,6.1398,6.2242,6.2536,6.2995,0.0,0.0,0.0,0.0,0.0,0.0,0.0,0.0,0.0,0.0,0.0,0.0,0.0,0.0,0.0,0.0,0.0,0.0,7.0866,0.0,7.5417,7.9213,8.5608,9.6465,10.2695,10.8887,11.6312,11.9689,12.238,12.4888,12.5488,12.5696,12.5696,12.4999,12.3824,12.2209,12.1316,11.9811,11.7303,11.7193,11.7108,11.7009,11.6213,11.5491,11.4818,11.4708,11.3791,11.2396,11.2396,11.1992,11.121,11.121,11.121,11.121,11.121,11.121,11.121,11.121,11.121,11.121,11.121,11.121,11.121,0.0,0.0,0.0,0.0,0.0,0.0,0.0,0.0,0.0,0.0,0.0,0.0,0.0,0.0,0.0,0.0,0.0,0.0,0.0,0.0,0.0,0.0,0.0,0.0,0.0,0.0,0.0,0.0,0.0,0.0,0.0,0.0,0.0,0.0,0.0,0.0,0.0,0.0,0.0,0.0,5.7966,0.0,0.0,0.0,0.0,0.0,0.0,0.0,0.0,5.8621,5.9642,6.056,5.9318,0.0,0.0,0.0,0.0,0.0,6.6159,0.0,0.0,0.0,0.0,0.0,0.0,0.0,0.0,0.0,0.0,0.0,0.0,7.381,7.6379,7.9535,8.6261,9.4042,10.2585,10.809,11.28,11.6716,12.1205,12.3591,12.2686,12.4485,12.5696,12.5696,12.4999,12.3824,12.2209,12.1316,11.9811,11.7303,11.7193,11.6911,11.6213,11.5406,11.488,11.4818,11.4096,11.3288,11.2396,11.2396,11.1992,11.121,11.121,11.121,11.121,11.121,11.121,11.121,11.121,11.121,11.121,11.121,11.121,11.121,0.0,0.0,0.0,0.0,0.0,0.0,0.0,0.0,0.0,0.0,0.0,0.0,0.0,0.0,0.0,0.0,0.0,0.0,0.0,0.0,0.0,0.0,0.0,0.0,0.0,0.0,0.0,0.0,0.0,0.0,0.0,0.0,0.0,0.0,0.0,0.0,0.0,0.0,0.0,0.0,0.0,0.0,0.0,0.0,0.0,0.0,0.0,0.0,0.0,0.0,6.141,6.2181,6.0964,0.0,0.0,0.0,0.0,0.0,6.431,6.71,0.0,0.0,0.0,0.0,0.0,0.0,0.0,0.0,0.0,0.0,0.0,7.7157,8.1599,8.839,9.3712,9.9035,10.4897,10.8505,11.2286,11.7314,12.0214,12.2392,12.3897,12.4999,12.5513,12.5109,12.3897,12.2502,12.0802,11.959,11.8195,11.6617,11.658,11.6213,11.5406,11.461,11.4206,11.4084,11.3313,11.2506,11.1808,11.1808,11.1504,11.121,11.121,11.121,11.121,11.121,11.121,11.121,11.121,11.121,11.121,11.121,11.121,11.121,0.0,0.0,0.0,0.0,0.0,0.0,0.0,0.0,0.0,0.0,0.0,0.0,0.0,0.0,0.0,0.0,0.0,0.0,0.0,0.0,0.0,0.0,0.0,0.0,0.0,0.0,0.0,0.0,0.0,0.0,0.0,0.0,0.0,0.0,0.0,0.0,0.0,0.0,0.0,0.0,0.0,0.0,0.0,0.0,0.0,0.0,0.0,0.0,0.0,0.0,0.0,0.0,0.0,0.0,0.0,0.0,6.1447,6.1441,6.3637,6.5735,0.0,0.0,0.0,0.0,0.0,0.0,0.0,0.0,0.0,0.0,0.0,8.1195,8.7407,9.6355,10.0319,10.3586,10.7488,10.979,11.2898,11.8085,11.97,12.1695,12.4815,12.5292,12.5109,12.4289,12.271,12.1181,11.9712,11.8085,11.6716,11.5784,11.5699,11.5296,11.4488,11.3681,11.3288,11.3288,11.2506,11.1808,11.121,11.121,11.121,11.121,11.121,11.121,11.121,11.121,11.121,11.121,11.121,11.121,11.121,11.121,11.121,11.121,0.0,0.0,0.0,0.0,0.0,0.0,0.0,0.0,0.0,0.0,0.0,0.0,0.0,0.0,0.0,0.0,0.0,0.0,0.0,0.0,0.0,0.0,0.0,0.0,0.0,0.0,0.0,0.0,0.0,0.0,0.0,0.0,0.0,0.0,0.0,0.0,0.0,0.0,0.0,0.0,0.0,0.0,0.0,0.0,0.0,0.0,0.0,0.0,0.0,0.0,0.0,0.0,0.0,0.0,0.0,0.0,0.0,6.349,6.7387,6.9155,0.0,0.0,0.0,0.0,0.0,0.0,0.0,0.0,0.0,0.0,0.0,8.6416,9.34,10.0119,10.5091,10.9312,11.259,11.5699,11.8207,11.9382,12.1609,12.3102,12.3396,12.4105,12.4301,12.3396,12.1903,12.0593,11.959,11.8085,11.6495,11.488,11.4892,11.4488,11.3692,11.2921,11.2506,11.2506,11.1698,11.1295,11.121,11.121,11.121,11.121,11.121,11.121,11.121,11.121,11.121,11.121,11.121,11.121,11.121,11.121,11.121,11.121,0.0,0.0,0.0,0.0,0.0,0.0,0.0,0.0,0.0,0.0,0.0,0.0,0.0,0.0,0.0,0.0,0.0,0.0,0.0,0.0,0.0,0.0,0.0,0.0,0.0,0.0,0.0,0.0,0.0,0.0,0.0,0.0,0.0,0.0,0.0,0.0,0.0,0.0,0.0,0.0,0.0,0.0,0.0,0.0,0.0,0.0,0.0,0.0,0.0,0.0,0.0,0.0,0.0,0.0,0.0,0.0,0.0,6.327,6.5338,6.7614,0.0,0.0,0.0,0.0,0.0,0.0,0.0,0.0,0.0,0.0,0.0,9.3896,9.8751,10.3696,10.8589,11.2689,11.5479,11.7718,11.959,12.0997,12.2417,12.3285,12.3285,12.3114,12.2686,12.1903,12.0288,11.9003,11.8195,11.7094,11.5908,11.4807,11.4818,11.4194,11.2884,11.259,11.2091,11.1698,11.1284,11.121,11.121,11.121,11.121,11.121,11.121,11.121,11.121,11.121,11.121,11.121,11.121,11.121,11.121,11.121,11.121,11.121,0.0,0.0,0.0,0.0,0.0,0.0,0.0,0.0,0.0,0.0,0.0,0.0,0.0,0.0,0.0,0.0,0.0,0.0,0.0,0.0,0.0,0.0,0.0,0.0,0.0,0.0,0.0,0.0,0.0,0.0,0.0,0.0,0.0,0.0,0.0,0.0,0.0,0.0,0.0,0.0,0.0,0.0,0.0,0.0,0.0,0.0,0.0,0.0,0.0,0.0,0.0,0.0,0.0,0.0,0.0,0.0,0.0,0.0,6.4383,6.6256,0.0,0.0,0.0,0.0,0.0,0.0,0.0,0.0,0.0,0.0,0.0,0.0,10.1484,10.5385,11.0718,11.5002,11.6899,11.8819,12.0288,12.1217,12.2319,12.271,12.2196,12.1903,12.1291,12.0214,11.8819,11.7718,11.6911,11.6103,11.5112,11.4084,11.4,11.3387,11.1992,11.1992,11.1687,11.121,11.121,11.121,11.121,11.121,11.121,11.121,11.121,11.121,11.121,11.121,11.121,11.121,11.121,11.121,11.121,11.121,11.121,11.121,0.0,0.0,0.0,0.0,0.0,0.0,0.0,0.0,0.0,0.0,0.0,0.0,0.0,0.0,0.0,0.0,0.0,0.0,0.0,0.0,0.0,0.0,0.0,0.0,0.0,0.0,0.0,0.0,0.0,0.0,0.0,0.0,0.0,0.0,0.0,0.0,0.0,0.0,0.0,0.0,0.0,0.0,0.0,0.0,0.0,0.0,0.0,0.0,0.0,0.0,0.0,0.0,0.0,0.0,0.0,0.0,6.5845,6.6329,6.5515,6.5882,0.0,0.0,0.0,0.0,0.0,0.0,0.0,0.0,0.0,9.6044,9.7649,9.9292,10.1384,10.4593,11.121,11.6287,11.7083,11.9285,12.0593,11.9712,12.1107,12.1401,11.9786,12.041,12.0214,11.8489,11.7596,11.6789,11.5993,11.5185,11.4084,11.2517,11.2396,11.1992,11.121,11.121,11.121,11.121,11.121,11.121,11.121,11.121,11.121,11.121,11.121,11.121,11.121,11.121,11.121,11.121,11.121,11.121,11.121,11.121,11.121,11.121,0.0,0.0,0.0,0.0,0.0,0.0,0.0,0.0,0.0,0.0,0.0,0.0,0.0,0.0,0.0,0.0,0.0,0.0,0.0,0.0,0.0,0.0,0.0,0.0,0.0,0.0,0.0,0.0,0.0,0.0,0.0,0.0,0.0,0.0,0.0,0.0,0.0,0.0,0.0,0.0,0.0,0.0,0.0,0.0,0.0,0.0,0.0,0.0,0.0,0.0,0.0,0.0,0.0,0.0,0.0,0.0,6.5411,6.6182,6.4824,0.0,0.0,7.1879,0.0,0.0,0.0,0.0,0.0,0.0,10.2301,10.11,10.2705,10.389,10.5285,10.7404,11.1919,11.5798,11.7792,11.9187,12.0104,12.0508,12.041,12.0104,11.959,11.8819,11.7902,11.6801,11.5993,11.5185,11.4401,11.4096,11.3508,11.2396,11.2396,11.1992,11.121,11.121,11.121,11.121,11.121,11.121,11.121,11.121,11.121,11.1221,11.0597,11.0707,11.121,11.121,11.121,11.121,11.121,11.121,11.121,11.121,11.121,11.121,0.0,0.0,0.0,0.0,0.0,0.0,0.0,0.0,0.0,0.0,0.0,0.0,0.0,0.0,0.0,0.0,0.0,0.0,0.0,0.0,0.0,0.0,0.0,0.0,0.0,0.0,0.0,0.0,0.0,0.0,0.0,0.0,0.0,0.0,0.0,0.0,0.0,0.0,0.0,0.0,0.0,0.0,0.0,0.0,0.0,0.0,0.0,0.0,0.0,0.0,0.0,0.0,0.0,0.0,0.0,6.4096,6.4794,6.5595,6.5932,0.0,0.0,7.5395,8.0747,8.7206,9.6291,0.0,0.0,0.0,10.6119,10.4614,10.5899,10.6486,10.7414,10.8982,11.2701,11.592,11.7718,11.8599,11.9297,11.9811,11.9407,11.9003,11.8709,11.7792,11.6716,11.5589,11.5112,11.4305,11.3215,11.3104,11.2811,11.1907,11.1919,11.1698,11.121,11.121,11.099,11.0707,11.099,11.0891,11.0304,11.088,11.121,11.1184,11.0304,11.0314,11.0707,11.0707,11.0891,11.1221,11.0806,11.0891,11.1184,11.0806,11.088,11.121,0.0,0.0,0.0,0.0,0.0,0.0,0.0,0.0,0.0,0.0,0.0,0.0,0.0,0.0,0.0,0.0,0.0,0.0,0.0,0.0,0.0,0.0,0.0,0.0,0.0,0.0,0.0,0.0,0.0,0.0,0.0,0.0,0.0,0.0,0.0,0.0,0.0,0.0,0.0,0.0,0.0,0.0,0.0,0.0,0.0,0.0,0.0,0.0,0.0,0.0,0.0,0.0,0.0,0.0,6.1074,6.3325,6.4133,6.4977,6.8084,0.0,0.0,7.9682,8.5114,0.0,10.0897,10.6192,10.9386,11.0696,10.8799,10.7084,10.7902,10.8002,10.86,11.0204,11.3582,11.6287,11.7083,11.7817,11.8306,11.8416,11.8306,11.7902,11.7303,11.7083,11.6312,11.4818,11.4587,11.3901,11.2407,11.2286,11.1992,11.121,11.121,11.121,11.121,11.121,11.0817,10.9984,11.0696,11.0304,10.8909,11.0414,11.099,11.0806,11.0204,10.9911,10.9911,10.9911,11.0388,11.099,11.0314,11.0414,11.099,11.0388,11.0597,11.121,0.0,0.0,0.0,0.0,0.0,0.0,0.0,0.0,0.0,0.0,0.0,0.0,0.0,0.0,0.0,0.0,0.0,0.0,0.0,0.0,0.0,0.0,0.0,0.0,0.0,0.0,0.0,0.0,0.0,0.0,0.0,0.0,0.0,0.0,0.0,0.0,0.0,0.0,0.0,0.0,0.0,0.0,0.0,0.0,0.0,0.0,0.0,0.0,0.0,0.0,0.0,0.0,5.9899,6.1251,6.2389,6.2909,6.4457,6.6402,0.0,7.0396,0.0,0.0,9.3519,10.2098,10.5689,10.8688,11.0403,10.9496,10.979,11.0414,11.1184,11.1416,11.1893,11.3497,11.5002,11.6287,11.7083,11.7291,11.7707,11.8306,11.7278,11.669,11.7193,11.6103,11.4892,11.3901,11.3288,11.2506,11.1504,11.1515,11.1405,11.121,11.121,11.121,11.121,11.121,11.0817,10.9984,11.0204,10.9716,10.8799,10.979,10.958,10.8406,10.8883,10.9103,10.9103,10.9103,10.9496,11.0193,11.0094,11.0094,11.0304,11.0781,11.1111,11.121,0.0,0.0,0.0,0.0,0.0,0.0,0.0,0.0,0.0,0.0,0.0,0.0,0.0,0.0,0.0,0.0,0.0,0.0,0.0,0.0,0.0,0.0,0.0,0.0,0.0,0.0,0.0,0.0,0.0,0.0,0.0,0.0,0.0,0.0,0.0,0.0,0.0,0.0,0.0,0.0,0.0,0.0,0.0,0.0,0.0,0.0,0.0,0.0,0.0,0.0,0.0,0.0,0.0,0.0,6.0817,6.2352,6.3423,0.0,0.0,0.0,0.0,8.9776,0.0,10.6313,10.8295,11.001,11.1001,11.0109,11.0586,11.1284,11.1687,11.2102,11.2701,11.3497,11.4587,11.5589,11.5982,11.6397,11.6801,11.7204,11.6213,11.5589,11.5982,11.488,11.3912,11.3104,11.2616,11.1992,11.121,11.121,11.099,11.0597,11.0597,11.0403,11.0083,11.0083,10.9606,10.8894,10.9202,10.8993,10.8295,10.9103,10.8809,10.7609,10.8002,10.8185,10.8185,10.8185,10.8699,10.9397,10.8993,10.9103,10.9507,10.99,11.0304,11.0707,0.0,0.0,0.0,0.0,0.0,0.0,0.0,0.0,0.0,0.0,0.0,0.0,0.0,0.0,0.0,0.0,0.0,0.0,0.0,0.0,0.0,0.0,0.0,0.0,0.0,0.0,0.0,0.0,0.0,0.0,0.0,0.0,0.0,0.0,0.0,0.0,0.0,0.0,0.0,0.0,0.0,0.0,0.0,0.0,0.0,0.0,0.0,0.0,0.0,0.0,0.0,0.0,0.0,0.0,5.8951,6.1582,6.2101,0.0,0.0,0.0,8.2757,9.6015,10.3109,10.7414,10.9507,11.0597,11.121,11.121,11.121,11.121,11.1405,11.1992,11.2396,11.259,11.3717,11.4598,11.4598,11.5197,11.5601,11.5601,11.5002,11.4598,11.4598,11.3912,11.3104,11.2517,11.2286,11.1919,11.121,11.1111,11.0707,10.9984,10.9911,10.9507,10.8799,10.8799,10.8406,10.7609,10.8101,10.7991,10.7388,10.8112,10.8002,10.7388,10.7388,10.7498,10.7609,10.7498,10.7902,10.8505,10.7902,10.8002,10.8615,10.8909,10.9312,10.99,0.0,0.0,0.0,0.0,0.0,0.0,0.0,0.0,0.0,0.0,0.0,0.0,0.0,0.0,0.0,0.0,0.0,0.0,0.0,0.0,0.0,0.0,0.0,0.0,0.0,0.0,0.0,0.0,0.0,0.0,0.0,0.0,0.0,0.0,0.0,0.0,0.0,0.0,0.0,0.0,0.0,0.0,0.0,0.0,0.0,0.0,0.0,0.0,0.0,0.0,6.034,0.0,0.0,0.0,6.0156,6.0597,6.1624,0.0,0.0,0.0,9.0656,9.8227,10.431,10.8688,10.9801,11.0597,11.121,11.121,11.121,11.1394,11.2102,11.2286,11.2616,11.3288,11.3582,11.3802,11.3802,11.3887,11.3912,11.3912,11.3802,11.3802,11.3802,11.2983,11.2506,11.2396,11.1808,11.1284,11.121,11.0487,11.0094,10.9984,10.9312,10.8909,10.8799,10.8799,10.8406,10.7609,10.7011,10.6717,10.6607,10.6717,10.6717,10.6607,10.6607,10.7021,10.7488,10.679,10.7011,10.7708,10.7598,10.7682,10.7892,10.9287,10.9507,10.9202,0.0,0.0,0.0,0.0,0.0,0.0,0.0,0.0,0.0,0.0,0.0,0.0,0.0,0.0,0.0,0.0,0.0,0.0,0.0,0.0,0.0,0.0,0.0,0.0,0.0,0.0,0.0,0.0,0.0,0.0,0.0,6.7504,6.9552,0.0,0.0,0.0,0.0,0.0,0.0,0.0,0.0,0.0,0.0,0.0,0.0,0.0,0.0,0.0,0.0,0.0,0.0,6.1006,6.067,0.0,0.0,0.0,6.1881,6.4591,7.2789,8.1966,9.1253,9.9585,10.4614,10.7991,11.0193,11.088,11.1111,11.0597,11.0891,11.1284,11.1698,11.1687,11.1797,11.2212,11.2616,11.291,11.291,11.3288,11.3582,11.3582,11.3215,11.291,11.291,11.2212,11.1687,11.1687,11.1394,11.099,11.0608,11.0204,10.958,10.871,10.8295,10.7892,10.7488,10.7488,10.7304,10.69,10.6093,10.5899,10.6386,10.6386,10.6386,10.6386,10.6386,10.6607,10.69,10.6486,10.6607,10.69,10.69,10.69,10.7095,10.8185,10.8699,10.8982,0.0,0.0,0.0,0.0,0.0,0.0,0.0,0.0,0.0,0.0,0.0,0.0,0.0,0.0,0.0,0.0,0.0,0.0,0.0,0.0,0.0,0.0,0.0,0.0,0.0,0.0,0.0,0.0,0.0,0.0,6.9516,6.9736,7.2202,0.0,7.2239,0.0,0.0,0.0,0.0,0.0,0.0,0.0,0.0,0.0,0.0,0.0,0.0,0.0,0.0,0.0,0.0,0.0,6.1673,6.1196,0.0,0.0,0.0,6.5031,7.5183,8.1937,8.8353,9.7897,10.2889,10.6302,10.9496,11.0597,11.0817,11.0388,11.0817,11.11,11.088,11.1111,11.121,11.121,11.1698,11.2102,11.2102,11.2579,11.2994,11.2994,11.2517,11.2102,11.2102,11.1588,11.121,11.121,11.121,11.0806,11.001,10.9801,10.9114,10.7598,10.7194,10.679,10.6386,10.6203,10.6203,10.6386,10.5484,10.5605,10.6386,10.6386,10.6386,10.6386,10.6386,10.6386,10.6386,10.6386,10.6386,10.6386,10.6386,10.6386,10.6497,10.7315,10.8002,10.8615,0.0,0.0,0.0,0.0,0.0,0.0,0.0,0.0,0.0,0.0,0.0,0.0,0.0,0.0,0.0,0.0,0.0,0.0,0.0,0.0,0.0,0.0,0.0,0.0,0.0,0.0,0.0,0.0,0.0,0.0,7.1197,7.1975,7.6489,8.3765,7.7407,7.37,7.1835,0.0,0.0,0.0,0.0,0.0,0.0,0.0,0.0,0.0,0.0,0.0,0.0,0.0,0.0,0.0,0.0,0.0,0.0,0.0,0.0,0.0,7.102,7.6468,8.2378,9.1363,9.8291,10.3806,10.7011,10.9004,11.0314,11.1001,11.1221,11.1001,11.0204,11.0707,11.121,11.121,11.121,11.1295,11.1295,11.1284,11.1284,11.1284,11.1284,11.1295,11.1295,11.121,11.121,11.121,11.121,11.0806,11.001,10.9287,10.8516,10.7609,10.6082,10.5595,10.6386,10.5605,10.5605,10.6386,10.5484,10.5605,10.6386,10.6386,10.6386,10.6386,10.6386,10.6386,10.6386,10.6386,10.6386,10.6386,10.6386,10.6386,10.6497,10.7315,10.7609,10.7902,0.0,0.0,0.0,0.0,0.0,0.0,0.0,0.0,0.0,0.0,0.0,0.0,0.0,0.0,0.0,0.0,0.0,0.0,0.0,0.0,0.0,0.0,0.0,0.0,0.0,0.0,0.0,0.0,0.0,6.1783,6.9015,7.033,7.4441,8.0571,7.6636,7.4287,7.2826,6.6109,0.0,0.0,0.0,0.0,0.0,0.0,0.0,0.0,0.0,0.0,0.0,0.0,0.0,0.0,0.0,0.0,0.0,0.0,0.0,6.6139,7.0543,7.4911,8.0086,8.7986,9.3675,9.83,10.2091,10.5395,10.7587,10.732,10.8615,10.9386,10.8589,10.9984,11.099,11.0487,11.0891,11.121,11.121,11.121,11.121,11.121,11.121,11.099,11.0498,11.0891,11.0817,10.9705,11.012,10.9911,10.8516,10.8196,10.7414,10.5998,10.6009,10.6093,10.6386,10.5484,10.5484,10.6386,10.5484,10.5605,10.6386,10.6386,10.6386,10.6386,10.6386,10.6386,10.6386,10.6386,10.6386,10.6386,10.6386,10.6386,10.6413,10.6717,10.7488,10.8516,0.0,0.0,0.0,0.0,0.0,0.0,0.0,0.0,0.0,0.0,0.0,0.0,0.0,0.0,0.0,0.0,0.0,0.0,0.0,0.0,0.0,0.0,0.0,0.0,0.0,0.0,0.0,0.0,0.0,0.0,0.0,0.0,7.2863,7.8442,7.5168,0.0,0.0,0.0,0.0,6.5852,0.0,0.0,6.4921,0.0,0.0,0.0,0.0,0.0,0.0,0.0,0.0,0.0,0.0,0.0,0.0,0.0,0.0,0.0,6.9442,7.2819,7.7436,8.4747,8.883,9.2611,9.8557,10.1788,10.3817,10.4493,10.6486,10.7807,10.7304,10.8909,11.0193,10.969,11.001,11.0403,11.0403,11.0403,11.0403,11.0403,11.0403,11.0193,10.9606,11.0083,11.001,10.8909,10.9312,10.8993,10.7682,10.7609,10.679,10.5191,10.5715,10.6009,10.6009,10.5411,10.5484,10.6386,10.5484,10.5605,10.6386,10.6386,10.6386,10.6386,10.6386,10.6386,10.6386,10.6386,10.6386,10.6386,10.6386,10.6386,10.6413,10.6717,10.7708,10.8799,0.0,0.0,0.0,0.0,0.0,0.0,0.0,0.0,0.0,0.0,0.0,0.0,0.0,0.0,0.0,0.0,0.0,0.0,0.0,0.0,0.0,0.0,0.0,0.0,0.0,0.0,0.0,0.0,0.0,0.0,0.0,0.0,7.2165,0.0,7.3399,7.483,8.0416,0.0,7.3964,7.4177,0.0,6.6072,6.9185,0.0,0.0,0.0,7.312,7.2209,0.0,6.754,0.0,0.0,0.0,0.0,0.0,0.0,0.0,0.0,0.0,0.0,0.0,8.1289,8.372,8.6848,9.6382,9.8043,9.8714,10.2789,10.4908,10.6203,10.6313,10.7587,10.8688,10.8688,10.8688,10.8799,10.8799,10.8799,10.8799,10.8799,10.8799,10.8799,10.8799,10.8799,10.8799,10.8688,10.8688,10.8406,10.7609,10.7498,10.679,10.5191,10.5081,10.5081,10.5117,10.5117,10.5484,10.6386,10.5484,10.5605,10.6386,10.6386,10.6386,10.6386,10.6386,10.6386,10.6386,10.6386,10.6386,10.6386,10.6386,10.6386,10.6497,10.7315,10.8112,10.8909,0.0,0.0,0.0,0.0,0.0,0.0,0.0,0.0,0.0,0.0,0.0,0.0,0.0,0.0,0.0,0.0,0.0,0.0,0.0,0.0,0.0,0.0,0.0,0.0,0.0,0.0,0.0,0.0,0.0,0.0,0.0,0.0,0.0,0.0,7.138,7.2628,7.4507,6.9052,0.0,0.0,6.6946,6.7607,0.0,0.0,0.0,0.0,0.0,7.3274,7.2686,0.0,7.1497,6.9779,0.0,0.0,0.0,0.0,0.0,0.0,6.7627,0.0,0.0,0.0,0.0,0.0,8.4857,8.7619,9.0638,9.5887,9.8264,10.0293,10.3182,10.4588,10.5285,10.5285,10.722,10.8799,10.8799,10.8799,10.8799,10.8799,10.8799,10.8589,10.8002,10.8516,10.8285,10.7194,10.7084,10.7011,10.6706,10.5616,10.4991,10.5117,10.4016,10.3906,10.5117,10.5117,10.5484,10.6386,10.6203,10.6203,10.6386,10.6386,10.6386,10.6386,10.6386,10.6386,10.6386,10.6386,10.6386,10.6386,10.6386,10.6386,10.6413,10.6607,10.7587,10.8799,0.0,0.0,0.0,0.0,0.0,0.0,0.0,0.0,0.0,0.0,0.0,0.0,0.0,0.0,0.0,0.0,0.0,0.0,0.0,0.0,0.0,0.0,0.0,0.0,0.0,0.0,0.0,0.0,0.0,0.0,0.0,0.0,0.0,0.0,0.0,0.0,0.0,0.0,0.0,0.0,6.9626,0.0,0.0,7.4213,7.5241,0.0,0.0,0.0,7.8112,7.7231,7.5175,0.0,0.0,0.0,0.0,0.0,0.0,0.0,0.0,0.0,0.0,0.0,0.0,0.0,8.0783,8.2663,8.4984,9.1033,9.3822,9.6208,9.9575,10.1384,10.2495,10.2815,10.4798,10.6413,10.6706,10.679,10.689,10.721,10.7,10.6706,10.6607,10.6706,10.6486,10.5899,10.5899,10.5899,10.5899,10.4284,10.3806,10.4614,10.3403,10.3282,10.4604,10.4887,10.5411,10.5899,10.6192,10.6386,10.6386,10.6386,10.6386,10.6386,10.6386,10.6386,10.6386,10.6386,10.6386,10.6386,10.6386,10.6607,10.69,10.69,10.7892,10.9312,0.0,0.0,0.0,0.0,0.0,0.0,0.0,0.0,0.0,0.0,0.0,0.0,0.0,0.0,0.0,0.0,0.0,0.0,0.0,0.0,0.0,0.0,0.0,0.0,0.0,0.0,0.0,0.0,0.0,0.0,0.0,0.0,0.0,0.0,0.0,0.0,0.0,0.0,0.0,7.2312,7.312,7.5623,0.0,0.0,8.2178,8.3756,8.4564,8.4939,8.4535,8.1387,7.7679,0.0,0.0,0.0,0.0,0.0,6.9559,0.0,0.0,0.0,0.0,0.0,7.439,0.0,8.0518,8.0755,8.1203,8.7124,9.0289,9.2822,9.5547,9.8007,9.9815,10.0293,10.1384,10.2595,10.3696,10.389,10.421,10.4897,10.4394,10.4284,10.4897,10.4394,10.4284,10.4897,10.4997,10.4997,10.4813,10.3586,10.3109,10.3696,10.2999,10.2999,10.3817,10.4614,10.5007,10.5117,10.6009,10.6386,10.6386,10.6386,10.6386,10.6386,10.6386,10.6386,10.6386,10.6386,10.6386,10.6386,10.6386,10.69,10.7609,10.7609,10.8589,10.9984,0.0,0.0,0.0,0.0,0.0,0.0,0.0,0.0,0.0,0.0,0.0,0.0,0.0,0.0,0.0,0.0,0.0,0.0,0.0,0.0,0.0,0.0,0.0,0.0,0.0,0.0,0.0,0.0,0.0,0.0,0.0,0.0,0.0,0.0,0.0,0.0,0.0,0.0,0.0,7.0624,7.1424,0.0,8.0645,8.1599,8.3369,8.5453,8.6252,8.6958,8.7105,8.4535,8.1423,7.8083,0.0,0.0,0.0,0.0,0.0,0.0,0.0,0.0,0.0,0.0,0.0,0.0,7.4059,7.5784,7.8544,8.113,8.3618,8.6619,9.0987,9.3822,9.508,9.3905,9.6585,9.9999,10.3403,10.389,10.4,10.41,10.4614,10.4687,10.421,10.4614,10.4687,10.421,10.4714,10.4483,10.3209,10.3513,10.3403,10.2915,10.2201,10.2081,10.2879,10.3686,10.4504,10.5117,10.6009,10.6386,10.6386,10.6386,10.6386,10.6386,10.6386,10.6386,10.6386,10.6386,10.6386,10.6386,10.6386,10.69,10.7609,10.7609,10.8589,10.9984,0.0,0.0,0.0,0.0,0.0,0.0,0.0,0.0,0.0,0.0,0.0,0.0,0.0,0.0,0.0,0.0,0.0,0.0,0.0,0.0,0.0,0.0,0.0,0.0,0.0,0.0,0.0,0.0,0.0,0.0,0.0,0.0,0.0,0.0,0.0,0.0,0.0,0.0,6.7687,6.9926,7.4764,0.0,8.2472,8.4857,8.6811,8.8243,8.8638,8.9042,8.8793,8.4756,8.3149,0.0,0.0,7.6085,7.6342,0.0,7.4287,7.4764,0.0,0.0,0.0,7.5322,0.0,0.0,0.0,7.4316,7.5351,7.9037,7.9764,8.1114,8.56,8.7435,8.8655,8.9821,9.2391,9.5694,9.9732,10.1017,10.1688,10.2091,10.2485,10.2512,10.2118,10.2815,10.3293,10.3293,10.3686,10.3586,10.2695,10.2705,10.2495,10.2081,10.1688,10.1688,10.2081,10.2889,10.3513,10.3906,10.5201,10.5789,10.5789,10.6192,10.6386,10.6386,10.6386,10.6386,10.6386,10.6386,10.6386,10.6386,10.6386,10.711,10.8101,10.7708,10.8883,11.0487,0.0,0.0,0.0,0.0,0.0,0.0,0.0,0.0,0.0,0.0,0.0,0.0,0.0,0.0,0.0,0.0,0.0,0.0,0.0,0.0,0.0,0.0,0.0,5.711,0.0,0.0,0.0,0.0,0.0,0.0,0.0,0.0,0.0,0.0,0.0,0.0,0.0,0.0,0.0,7.0984,0.0,8.2406,8.3169,8.7344,8.951,9.0436,9.0913,9.106,9.0289,8.5086,8.4544,8.4903,7.8544,7.9132,0.0,0.0,0.0,0.0,0.0,0.0,0.0,0.0,0.0,7.5058,0.0,0.0,0.0,7.7606,7.7165,7.7157,8.0608,8.1525,8.2635,8.5416,8.8023,9.0739,9.3712,9.5795,9.763,9.9402,9.9732,9.9842,9.9842,10.0293,10.099,10.1888,10.1998,10.2118,10.2181,10.1898,10.1688,10.1504,10.1504,10.1504,10.1504,10.2301,10.2695,10.2695,10.42,10.4897,10.4897,10.5799,10.6119,10.6203,10.6302,10.6386,10.6386,10.6386,10.6386,10.6386,10.6386,10.7304,10.8505,10.8002,10.9213,11.0891,0.0,0.0,0.0,0.0,0.0,0.0,0.0,0.0,0.0,0.0,0.0,0.0,0.0,0.0,0.0,0.0,0.0,0.0,6.4351,0.0,0.0,0.0,0.0,0.0,5.6926,0.0,0.0,0.0,0.0,0.0,0.0,0.0,0.0,0.0,6.0413,0.0,0.0,0.0,6.9743,0.0,8.0314,8.1387,0.0,8.5481,8.8189,8.9803,9.2014,9.2822,9.2271,0.0,8.7215,8.6362,0.0,8.2325,8.1974,8.0791,0.0,0.0,0.0,0.0,0.0,0.0,8.0938,0.0,7.3692,0.0,7.6937,7.3927,0.0,7.646,7.7656,0.0,0.0,7.7745,8.2451,8.6004,8.5041,8.75,9.1363,9.6502,9.775,9.8163,9.8163,9.7613,9.786,9.9392,9.9502,9.9832,10.0503,10.1777,10.2191,10.1504,10.1504,10.1504,10.1504,10.2301,10.2695,10.2695,10.3586,10.399,10.411,10.4897,10.518,10.5301,10.6093,10.6386,10.6386,10.6386,10.6386,10.6386,10.6386,10.69,10.7781,10.8395,10.9287,11.0204,0.0,0.0,0.0,0.0,0.0,0.0,0.0,0.0,0.0,0.0,0.0,0.0,0.0,0.0,0.0,0.0,0.0,6.3837,0.0,0.0,0.0,0.0,0.0,0.0,0.0,0.0,0.0,0.0,5.8474,0.0,0.0,0.0,0.0,0.0,6.1887,0.0,6.5882,0.0,7.0257,0.0,0.0,0.0,0.0,8.7977,9.095,9.1758,9.3272,9.3161,9.1913,0.0,8.8271,0.0,0.0,0.0,0.0,0.0,0.0,0.0,0.0,0.0,0.0,0.0,0.0,0.0,7.5858,0.0,7.4287,7.3957,0.0,0.0,0.0,0.0,0.0,0.0,7.9507,8.2039,8.3242,8.4564,8.7353,9.2528,9.2611,9.3024,9.4923,9.4813,9.5281,9.6896,9.7016,9.7576,9.8824,10.0393,10.1394,10.1504,10.098,10.099,10.1504,10.1394,10.1484,10.2008,10.2815,10.3403,10.388,10.4714,10.5411,10.5899,10.6192,10.6386,10.6386,10.6386,10.6386,10.6386,10.6386,10.69,10.7719,10.8505,10.9312,11.0094,0.0,0.0,0.0,0.0,0.0,0.0,0.0,0.0,0.0,0.0,0.0,0.0,7.4588,7.4126,0.0,0.0,6.9177,6.7009,0.0,0.0,6.0835,5.9457,5.8929,0.0,0.0,0.0,0.0,0.0,0.0,0.0,0.0,0.0,0.0,0.0,0.0,6.5888,6.7423,0.0,7.2892,7.6423,7.9617,8.2553,8.5527,9.0776,9.3015,9.3529,9.4088,9.3538,9.2143,8.9931,8.9739,0.0,8.8491,8.8161,8.8197,0.0,0.0,0.0,8.5326,0.0,0.0,0.0,0.0,0.0,0.0,0.0,0.0,7.5608,7.4771,0.0,0.0,0.0,0.0,0.0,0.0,7.958,8.1473,8.1546,8.3206,8.8051,8.8564,8.9739,9.2794,9.2492,9.2859,9.4694,9.4015,9.4602,9.7099,9.8557,9.9879,10.11,10.0806,10.0806,10.121,10.0806,10.0806,10.121,10.2008,10.2715,10.3303,10.41,10.4897,10.5678,10.5899,10.6203,10.6386,10.6386,10.6386,10.6386,10.6386,10.6801,10.7388,10.8185,10.8993,10.9801,0.0,5.7552,0.0,0.0,0.0,0.0,0.0,0.0,0.0,0.0,0.0,0.0,0.0,0.0,0.0,0.0,0.0,7.0047,7.0425,0.0,6.1823,5.8238,5.9507,5.9239,0.0,0.0,0.0,0.0,0.0,0.0,0.0,0.0,0.0,0.0,0.0,6.9346,7.2422,7.4845,7.9551,8.5462,8.6362,9.0078,9.4795,0.0,9.284,9.4272,9.4309,0.0,0.0,9.2253,9.2244,9.2684,9.1023,0.0,0.0,0.0,0.0,0.0,0.0,0.0,0.0,8.4784,0.0,0.0,0.0,0.0,7.9331,0.0,0.0,8.2765,8.2039,0.0,0.0,0.0,0.0,0.0,0.0,7.6819,7.8141,8.3051,8.7014,9.0354,9.2868,9.0941,9.0537,9.2969,9.0225,9.0519,9.5318,9.6345,9.7897,10.0293,10.11,10.11,10.0319,10.11,10.11,10.0319,10.121,10.1587,10.1614,10.2412,10.3209,10.399,10.4787,10.5595,10.6386,10.6386,10.6386,10.6386,10.6386,10.6413,10.6486,10.7304,10.8101,10.8993,0.0,0.0,0.0,0.0,0.0,0.0,0.0,6.6317,0.0,0.0,0.0,0.0,0.0,8.3478,8.2808,0.0,0.0,7.6624,7.2684,7.0397,0.0,0.0,0.0,6.4053,0.0,0.0,0.0,0.0,0.0,0.0,0.0,0.0,0.0,0.0,0.0,6.9786,0.0,0.0,0.0,0.0,0.0,9.2464,9.6878,9.4979,9.4602,9.518,9.5694,9.518,9.4382,9.4887,9.3786,9.2427,9.3483,9.2198,9.0289,9.0519,9.0776,9.0996,9.0996,9.2565,9.3005,8.7876,8.5783,8.3654,7.8516,7.8633,0.0,0.0,0.0,0.0,0.0,0.0,0.0,0.0,0.0,0.0,0.0,7.5021,7.5946,7.9764,8.3316,8.5555,8.5857,8.6069,8.6811,8.8169,8.6252,8.7353,9.2758,9.4373,9.6218,9.8641,9.9475,9.9769,9.9502,10.0283,10.0586,10.0283,10.11,10.1798,10.2301,10.2595,10.3392,10.4714,10.5007,10.5605,10.6386,10.6386,10.6386,10.6386,10.6386,10.6386,10.6497,10.7315,10.8112,10.8982,5.9911,0.0,0.0,0.0,0.0,0.0,0.0,0.0,0.0,0.0,8.0746,0.0,8.7897,0.0,8.726,0.0,8.4622,8.1474,7.5484,7.519,0.0,6.9499,6.9155,0.0,0.0,0.0,0.0,0.0,0.0,6.2768,0.0,0.0,0.0,0.0,0.0,7.1438,7.4478,7.9764,8.3536,0.0,0.0,9.4556,9.776,9.6438,9.6108,9.6309,9.5988,9.5364,9.4813,9.5254,9.4593,9.3712,9.474,9.3446,9.1675,9.2134,9.2097,9.1987,9.2207,9.3639,9.418,9.0408,8.85,8.6481,8.248,8.2663,8.3398,8.2627,8.5188,8.7325,0.0,0.0,0.0,0.0,0.0,0.0,0.0,7.3854,7.4705,7.7378,8.0314,8.237,8.2994,8.2965,8.3222,8.403,8.2325,8.3463,8.8528,9.1179,9.3795,9.6548,9.8521,9.9392,9.9098,10.0209,10.0586,10.0283,10.11,10.1798,10.2301,10.2301,10.3182,10.4687,10.4687,10.5311,10.6386,10.6386,10.6386,10.6386,10.6386,10.6386,10.6497,10.7021,10.7892,10.9008,0.0,0.0,0.0,0.0,6.2201,0.0,0.0,0.0,7.5658,0.0,8.3134,8.7235,8.99,8.9514,8.9043,8.8933,8.7834,8.4725,7.9104,8.0367,0.0,0.0,7.2943,7.2283,6.8398,0.0,0.0,0.0,0.0,0.0,0.0,0.0,0.0,0.0,7.0777,0.0,7.5527,8.4352,8.9124,9.106,9.429,9.6539,9.787,9.7016,9.7236,9.7649,9.5263,9.4923,9.5318,9.3739,9.473,9.6355,9.485,9.485,9.5171,9.3666,9.3749,9.4189,9.3418,9.3822,9.4088,9.2464,9.1363,9.0106,8.783,8.9078,9.051,8.9693,9.1501,9.3161,0.0,0.0,0.0,0.0,0.0,0.0,0.0,7.3193,7.4228,7.5836,7.8009,8.0653,8.3875,8.1387,7.9882,8.0637,7.8463,7.8904,8.3051,8.7068,9.0711,9.4015,9.8007,9.9769,9.9061,10.0613,10.111,10.0283,10.11,10.1504,10.1504,10.1504,10.2395,10.3806,10.389,10.4798,10.6302,10.6386,10.6386,10.6386,10.6386,10.6386,10.6386,10.6497,10.7488,10.9008,6.0683,6.099,6.1496,0.0,6.2512,6.3428,0.0,0.0,0.0,0.0,8.6131,8.9577,9.3472,9.32,9.2242,9.1039,9.1229,0.0,0.0,0.0,0.0,8.1048,8.0322,7.8964,7.6732,7.4515,0.0,7.033,0.0,0.0,6.5858,0.0,0.0,0.0,0.0,7.3927,7.6269,8.3398,8.9096,9.3529,9.5584,9.7346,9.8621,9.7236,9.7566,9.8557,9.6722,9.6208,9.6245,9.5208,9.5318,9.5758,9.5318,9.4923,9.463,9.4841,9.5024,9.5134,9.4951,9.5914,9.6732,9.5694,9.3932,9.2308,9.1684,9.2014,9.2198,9.1363,9.3171,9.3942,0.0,0.0,0.0,0.0,0.0,0.0,0.0,7.3046,7.3413,7.5021,7.4177,7.4764,7.7965,7.7003,7.6232,7.6452,7.5315,7.668,8.1371,8.4866,8.8215,9.1427,9.5511,9.7823,9.819,9.9805,10.0503,10.0283,10.11,10.1504,10.1504,10.1504,10.2091,10.2989,10.3586,10.4504,10.5484,10.6119,10.6386,10.6386,10.6386,10.6386,10.6486,10.7697,10.8395,10.9008,6.0962,6.256,0.0,6.4253,0.0,0.0,7.0394,7.3446,0.0,8.4235,8.7979,0.0,9.3402,9.4251,9.4301,9.3392,9.3482,0.0,8.8297,0.0,0.0,8.527,8.4939,8.3728,8.1415,7.8875,0.0,7.3553,0.0,0.0,6.7504,0.0,0.0,0.0,0.0,7.4184,7.6644,8.4911,9.1115,9.5437,9.6355,9.7456,0.0,9.7163,9.7273,9.7924,9.7016,9.6685,9.6539,9.5364,9.5208,9.5501,9.5501,9.5171,9.4997,9.5795,9.6015,9.6015,9.6015,9.6685,9.7346,9.7246,9.5951,9.4666,9.4666,9.44,9.4006,9.3538,9.3978,9.3868,9.1904,0.0,0.0,0.0,0.0,0.0,0.0,0.0,7.2973,7.4213,7.2855,7.2525,7.4368,7.2826,7.2349,7.3736,7.3413,7.4515,7.7635,8.2892,8.6775,8.8968,9.4373,9.7429,9.7906,10.0209,10.1017,10.0283,10.11,10.1504,10.1504,10.1504,10.1898,10.2695,10.3182,10.4016,10.5107,10.5595,10.6093,10.6386,10.6386,10.6386,10.6607,10.8211,10.8799,10.9008,6.1518,0.0,0.0,0.0,0.0,0.0,0.0,7.7895,0.0,8.5453,0.0,9.2117,9.2126,9.3994,9.5239,9.5239,0.0,9.3198,9.0244,9.2051,9.1326,8.6967,8.7876,8.717,8.4262,8.2288,7.9425,0.0,0.0,6.9743,6.8671,0.0,0.0,0.0,0.0,7.4955,7.7708,8.7362,9.3272,9.6098,9.6428,9.7016,9.7686,9.6979,9.6685,9.6685,9.6685,9.6685,9.6465,9.496,9.4997,9.5648,9.5538,9.5575,9.5795,9.6502,9.6685,9.6685,9.6685,9.6685,9.6906,9.7686,9.7356,9.6869,9.6979,9.6382,9.5795,9.5814,9.4529,9.3492,9.3749,8.9169,8.3332,0.0,0.0,0.0,0.0,0.0,0.0,0.0,7.3156,0.0,7.2679,6.9933,6.9272,7.1975,7.2268,7.2753,7.3641,8.0873,8.56,8.6949,9.3565,9.7503,9.8347,10.0907,10.1704,10.0806,10.1284,10.1504,10.1504,10.1504,10.1908,10.2512,10.2705,10.3586,10.5007,10.5081,10.5595,10.6386,10.6497,10.6607,10.679,10.8406,10.8993,10.9202,6.2652,0.0,0.0,0.0,0.0,7.6625,8.169,8.4461,8.7089,9.002,9.2931,9.4776,9.4801,9.4613,9.4485,9.4485,9.4981,0.0,0.0,0.0,0.0,9.1877,9.0776,8.9629,8.8372,8.4812,8.1664,0.0,7.3663,6.9993,6.7877,0.0,0.0,0.0,7.1548,7.6827,8.2472,8.7638,9.0913,9.2831,9.4877,9.6199,9.6906,9.6759,9.6685,9.6685,9.6685,9.6685,9.6575,9.5611,9.5832,9.6355,9.5704,9.5961,9.6539,9.6649,9.6685,9.6685,9.6685,9.6685,9.6906,9.7686,9.7796,9.787,9.8511,9.8043,9.7466,9.7466,9.6208,9.429,9.1721,8.6628,8.1562,7.7729,0.0,0.0,0.0,0.0,0.0,0.0,0.0,7.3494,7.3494,7.1791,7.0617,7.0513,7.113,7.2158,7.3604,7.8237,8.2745,8.6876,9.0812,9.5447,10.0806,10.0099,10.0897,10.3303,10.2091,10.1504,10.1504,10.1504,10.1587,10.1688,10.2412,10.3209,10.421,10.4787,10.5595,10.6497,10.7084,10.7388,10.7609,10.9213,10.9801,10.9911,6.6734,0.0,0.0,0.0,7.7106,8.1852,8.6205,8.9997,9.2368,9.23,9.3418,9.437,9.4824,9.6025,9.6612,9.6218,9.6502,9.6245,9.4997,9.4923,9.4556,9.3749,9.2528,9.1501,9.0702,8.6738,8.3471,8.1056,7.4507,7.072,0.0,0.0,0.0,6.729,7.1291,7.693,8.3601,8.6794,8.9555,9.206,9.496,9.6355,9.6685,9.6685,9.6685,9.6685,9.6685,9.6685,9.6649,9.6235,9.6088,9.6088,9.6098,9.6098,9.6162,9.6575,9.6685,9.6685,9.6685,9.6685,9.6795,9.7163,9.7282,9.7383,9.7787,9.7566,9.7282,9.7282,9.6309,9.4363,9.0647,8.6738,8.3287,8.0849,7.9425,0.0,0.0,0.0,7.6342,0.0,0.0,0.0,7.2532,7.2121,7.2635,7.4375,7.2892,7.3377,7.6688,7.8715,8.1644,8.5628,8.972,9.4162,9.8971,9.9879,10.0907,10.2008,10.1688,10.1504,10.1504,10.1504,10.1504,10.1504,10.2385,10.3182,10.399,10.5311,10.6009,10.6497,10.7315,10.7609,10.7792,10.9397,10.9984,11.0094,0.0,7.4053,0.0,0.0,8.318,8.7351,8.9579,9.3923,9.6261,9.4319,9.4251,9.463,9.5254,9.7566,9.8768,9.798,9.7906,9.7273,9.5868,9.5575,9.5208,9.4593,9.3639,9.2794,9.218,8.8325,8.4874,8.1937,7.5637,7.1784,7.0213,6.738,6.6843,6.8361,7.1945,7.6893,8.2839,8.5775,8.8858,9.2106,9.5217,9.6539,9.6685,9.6685,9.6685,9.6685,9.6685,9.6685,9.6685,9.6685,9.6272,9.5868,9.6502,9.6272,9.5868,9.6502,9.6685,9.6685,9.6685,9.6685,9.6685,9.6685,9.6685,9.6685,9.6685,9.6685,9.6685,9.6685,9.6052,9.4363,9.062,8.839,8.6371,8.4233,8.2443,8.1423,0.0,0.0,0.0,0.0,0.0,0.0,7.1564,7.2342,7.4434,7.7818,7.5241,7.4992,7.8348,7.9669,8.146,8.4022,8.8839,9.3171,9.6906,9.9632,10.098,10.11,10.1394,10.1504,10.1504,10.1504,10.1504,10.1504,10.2385,10.3293,10.4284,10.5799,10.6386,10.6497,10.7498,10.7902,10.8086,10.969,11.0314,11.0304,0.0,0.0,8.0372,8.1218,8.6238,9.0452,9.1409,9.5116,9.7715,9.7481,9.8102,9.8584,9.8621,9.8915,9.8768,9.798,9.7906,9.7539,9.6649,9.5905,9.5465,9.5391,9.3923,9.3042,9.2978,8.9674,8.571,8.1114,7.817,7.3362,6.699,6.8047,6.9045,7.008,7.4757,7.8067,8.044,8.5041,8.8904,9.2115,9.462,9.6052,9.6685,9.6685,9.6685,9.6685,9.6685,9.6685,9.6685,9.6685,9.6649,9.6612,9.6685,9.6649,9.6612,9.6685,9.6685,9.6685,9.6685,9.6685,9.6685,9.6685,9.6685,9.6685,9.6685,9.6685,9.6685,9.6685,9.6052,9.4694,9.2143,9.1445,9.0014,8.6196,8.6004,8.5848,0.0,0.0,8.2884,7.9698,0.0,0.0,7.1894,7.3362,7.5131,7.624,7.6665,7.6085,7.4375,7.9184,8.2121,8.2415,8.7096,9.2271,9.7723,9.8814,10.0796,10.3513,10.2212,10.1504,10.1504,10.1504,10.1504,10.1504,10.2385,10.3586,10.5081,10.6009,10.6386,10.6607,10.8101,10.8688,10.8909,11.0487,11.1111,11.11,8.002,8.1969,8.4294,8.6619,8.8996,9.1693,9.497,9.7686,9.9338,9.9338,9.9622,9.9989,10.0513,10.0503,10.0209,9.9402,9.9338,9.8787,9.7503,9.7126,9.6722,9.6235,9.5134,9.429,9.3822,9.1069,8.75,0.0,7.9756,7.5828,7.1497,6.9736,7.011,7.2393,7.5278,7.8581,8.2223,8.6077,8.9307,9.2106,9.5034,9.6428,9.6685,9.6685,9.6685,9.6685,9.6685,9.6685,9.6685,9.6685,9.6685,9.6685,9.6685,9.6685,9.6685,9.6685,9.6685,9.6685,9.6685,9.6685,9.6832,9.7309,9.7429,9.7429,9.7429,9.7429,9.7282,9.6795,9.6428,9.5758,9.4336,9.2831,9.1436,9.0372,8.9188,8.8225,0.0,0.0,0.0,8.0183,0.0,7.4691,7.16,7.1754,7.2936,7.5204,7.4801,7.5285,7.7246,7.7635,7.8948,8.1415,8.5702,9.0473,9.5704,9.797,10.0199,10.2495,10.1798,10.1504,10.1504,10.1504,10.2018,10.3009,10.3806,10.4787,10.5899,10.6313,10.6386,10.6497,10.7598,10.8406,10.8909,11.0094,11.0817,11.121,8.4754,8.5976,8.7981,9.1131,9.2281,9.4006,9.7686,9.9402,10.0393,10.0613,10.0696,10.0917,10.1394,10.1688,10.1384,10.0393,10.0283,9.9732,9.8337,9.8264,9.7897,9.7089,9.6272,9.5465,9.4666,9.2464,8.9482,8.5673,8.259,7.9066,7.5204,7.2342,7.2496,7.5256,7.7561,8.0783,8.4665,8.7876,9.0665,9.3125,9.5658,9.6685,9.6685,9.6685,9.6685,9.6685,9.6685,9.6832,9.7052,9.7052,9.7199,9.7346,9.7126,9.6906,9.6795,9.7273,9.7089,9.6795,9.7273,9.7236,9.7236,9.8043,9.809,9.798,9.82,9.809,9.776,9.7163,9.6869,9.6539,9.5942,9.4226,9.2941,9.3088,9.1647,9.0244,8.951,8.7243,0.0,8.124,7.7194,7.378,7.1527,7.0984,7.1644,7.3692,7.3223,7.4551,7.8487,7.7414,7.7921,8.0571,8.5004,8.9601,9.4235,9.7483,9.9916,10.1504,10.1504,10.1504,10.1504,10.1688,10.2705,10.4284,10.4897,10.5605,10.6386,10.6386,10.6386,10.6497,10.7315,10.8112,10.8909,10.969,11.0487,11.121,8.7692,8.9417,9.1335,9.3832,9.6218,9.809,9.8951,9.9769,10.0613,10.1394,10.1504,10.1504,10.1504,10.2191,10.1998,10.0393,10.0283,9.9952,9.9135,9.9098,9.8741,9.7906,9.7126,9.6309,9.5501,9.3886,9.1473,8.8169,8.7316,8.3206,7.6093,7.6056,7.69,7.8699,8.2737,8.5408,8.717,9.0372,9.3198,9.5538,9.6345,9.6685,9.6685,9.6685,9.6685,9.6685,9.6685,9.7199,9.7906,9.7906,9.8411,9.8915,9.8127,9.7356,9.7016,9.8584,9.796,9.7052,9.8621,9.8484,9.809,9.8878,9.8484,9.8127,9.8915,9.8484,9.7906,9.7906,9.7246,9.6685,9.6685,9.6015,9.4951,9.3372,9.3079,9.2198,8.973,8.8674,0.0,8.3748,8.1195,7.7495,7.1857,7.2011,7.2158,7.1417,7.2789,7.4412,7.6056,7.9176,8.0571,7.9853,8.527,9.0152,9.4272,9.7483,9.9916,10.1504,10.1504,10.1504,10.1504,10.2301,10.3586,10.5117,10.5117,10.5605,10.6386,10.6386,10.6386,10.6497,10.7315,10.8112,10.8909,10.969,11.0487,11.121,9.14,9.2822,9.4363,9.5694,9.7025,9.8347,9.9695,10.0613,10.121,10.1514,10.2495,10.2889,10.2412,10.2091,10.1688,10.121,10.11,10.0806,9.9989,9.9916,9.9292,9.7943,9.7649,9.6869,9.5538,9.4987,9.3116,8.9858,8.9042,8.5775,8.0277,8.1379,8.2186,8.2847,8.6325,8.8785,9.0445,9.3152,9.4767,9.5611,9.6979,9.7539,9.7576,9.8117,9.8007,9.7576,9.8154,9.8154,9.798,9.8521,9.8878,9.9135,9.9438,9.8604,9.7613,9.8127,9.7906,9.776,9.8805,9.8915,9.8924,9.9732,9.9732,9.9585,9.9879,9.9292,9.8557,9.8016,9.7686,9.7346,9.6795,9.6502,9.5795,9.4189,9.3932,9.2684,8.9078,8.6949,8.4352,8.0571,7.7965,7.5094,7.1637,7.3039,7.4023,7.3766,7.4735,7.5322,7.5278,7.8911,8.0901,8.0645,8.7142,9.2106,9.5089,9.83,10.0513,10.1504,10.2091,10.2595,10.3193,10.399,10.4593,10.5107,10.5705,10.6119,10.6386,10.6386,10.6386,10.6413,10.668,10.7598,10.8799,10.9092,10.9999,11.121,9.3492,9.4584,9.5758,9.6575,9.7603,9.8778,10.0099,10.099,10.1504,10.1504,10.2595,10.3293,10.2815,10.2485,10.2312,10.2018,10.1688,10.1284,10.0806,10.0806,10.0182,9.8861,9.8521,9.775,9.6428,9.5795,9.451,9.2455,9.0391,8.8161,8.582,8.5894,8.6628,8.7912,9.0501,9.2418,9.3749,9.5621,9.6392,9.6502,9.7503,9.7906,9.798,9.8778,9.8778,9.8411,9.8915,9.8961,9.8898,9.9365,9.9769,9.9989,10.0209,9.9622,9.8861,9.9155,9.8824,9.8668,10.0099,9.9979,9.9805,10.0907,10.0713,10.0283,10.0283,9.9916,9.9402,9.8898,9.831,9.776,9.7236,9.6649,9.5841,9.4529,9.4042,9.2427,8.8307,8.5922,8.3214,7.9478,7.7671,7.5792,7.3333,7.5572,7.693,7.6342,7.7884,7.8471,7.7664,7.9507,8.1232,8.2774,8.8692,9.3318,9.6374,9.9301,10.121,10.1981,10.2789,10.3586,10.4394,10.4897,10.5301,10.5595,10.6203,10.6386,10.6386,10.6386,10.6386,10.6386,10.6386,10.7414,10.8799,10.8799,10.979,11.121,9.4309,9.5107,9.5942,9.6795,9.8217,9.9539,10.0319,10.109,10.1698,10.1698,10.2301,10.2805,10.2889,10.3513,10.3586,10.2915,10.2081,10.1614,10.1614,10.1587,10.121,10.0319,9.9548,9.8741,9.8016,9.6428,9.5575,9.5501,9.1638,9.051,9.1923,8.9674,9.0298,9.3336,9.4877,9.6015,9.6832,9.7649,9.7943,9.7906,9.798,9.798,9.809,9.8888,9.9172,9.9172,9.9245,9.9695,10.0283,10.0403,10.0907,10.1514,10.0686,10.0503,10.0696,10.12,10.0403,9.9685,10.2118,10.1604,10.0806,10.2412,10.1714,10.0503,10.0503,10.0503,10.0503,10.0393,9.9191,9.809,9.7943,9.6649,9.5281,9.4446,9.3492,9.1464,8.7463,8.5518,8.3324,8.0102,7.9918,7.9074,7.6607,7.9213,8.0461,7.8956,8.1628,8.3022,8.2406,8.1166,8.2194,8.6012,9.0169,9.4199,9.8127,10.0403,10.2008,10.2879,10.3586,10.4394,10.5191,10.5191,10.5595,10.6386,10.6386,10.6386,10.6386,10.6386,10.6386,10.6386,10.6386,10.7414,10.8799,10.8799,10.979,11.121,9.5988,9.6795,9.7787,9.9181,10.0293,10.12,10.2008,10.2815,10.3293,10.3293,10.3513,10.3796,10.4493,10.421,10.41,10.4493,10.3806,10.3119,10.2485,10.2412,10.1788,10.0403,9.9548,9.9025,9.8814,9.7226,9.6125,9.5501,9.3932,9.3345,9.3685,9.3125,9.3602,9.4987,9.5978,9.6869,9.7686,9.8484,9.8447,9.7943,9.8557,9.8814,9.8888,9.9695,9.9989,10.0099,10.0686,10.0696,10.0393,10.099,10.1798,10.2412,10.2191,10.2595,10.2705,10.11,10.0283,10.0393,10.2181,10.2008,10.1614,10.3182,10.3293,10.2999,10.2999,10.2999,10.2715,10.1504,10.0917,10.0109,9.8237,9.7089,9.5951,9.4529,9.2051,8.9298,8.6481,8.4719,8.2472,7.925,8.1048,8.1591,7.9147,8.0726,8.1746,8.1387,8.2039,8.292,8.3985,8.5995,8.7867,8.9409,9.4015,9.7833,10.0586,10.1788,10.3099,10.4483,10.4714,10.5311,10.6082,10.6082,10.6192,10.6386,10.6386,10.6386,10.6386,10.6386,10.6386,10.6386,10.6386,10.7414,10.8799,10.8799,10.979,11.121,9.7016,9.7613,9.853,10.0513,10.121,10.1908,10.3109,10.3586,10.389,10.389,10.421,10.4604,10.5081,10.5091,10.5201,10.5715,10.4614,10.3596,10.2815,10.2695,10.2108,10.0917,10.0099,9.9659,9.9659,9.808,9.6832,9.6052,9.5244,9.5217,9.5924,9.5547,9.6025,9.719,9.8374,9.8934,9.9044,9.9842,9.9732,9.9044,9.9475,9.9659,9.9732,10.0503,10.0796,10.0917,10.132,10.1504,10.1494,10.1898,10.2595,10.3209,10.3209,10.3513,10.3586,10.2301,10.1898,10.2191,10.3513,10.3219,10.2789,10.3707,10.389,10.389,10.389,10.389,10.3707,10.2789,10.1981,10.099,9.9301,9.7456,9.5354,9.2978,9.0473,8.761,8.4095,8.3499,8.2472,7.9984,8.2875,8.4527,8.3214,8.5205,8.6122,8.5013,8.5976,8.6811,8.7325,9.0436,9.2042,9.1758,9.574,9.9044,10.1514,10.2989,10.442,10.5715,10.5715,10.5899,10.6386,10.6386,10.6386,10.6386,10.6386,10.6386,10.6386,10.6386,10.6386,10.6386,10.6386,10.7414,10.8799,10.8799,10.979,11.121,9.7943,9.8347,9.9118,10.1284,10.1908,10.2495,10.389,10.421,10.4294,10.4294,10.4908,10.5301,10.5301,10.6019,10.6386,10.6386,10.5102,10.389,10.2915,10.2989,10.2595,10.1504,10.0796,10.0513,10.0513,9.9008,9.787,9.7052,9.6382,9.6749,9.809,9.7383,9.786,9.9355,10.0686,10.099,10.0503,10.121,10.098,10.0283,10.0283,10.0283,10.0403,10.111,10.1504,10.1688,10.1504,10.2008,10.2695,10.2695,10.3209,10.388,10.399,10.4184,10.4294,10.4294,10.4294,10.4394,10.5018,10.4687,10.421,10.41,10.4294,10.4394,10.4284,10.4404,10.4404,10.41,10.3009,10.1688,10.0503,9.786,9.4841,9.1647,8.9197,8.6224,8.2113,8.2618,8.2949,8.1701,8.5188,8.7794,8.7904,9.0143,9.0922,8.9234,9.0665,9.1546,9.1354,9.4107,9.5208,9.4226,9.6952,9.9595,10.2018,10.421,10.5715,10.6386,10.6386,10.6386,10.6386,10.6386,10.6386,10.6386,10.6386,10.6386,10.6386,10.6386,10.6386,10.6386,10.6386,10.7414,10.8799,10.8799,10.979,11.121,9.9622,10.0513,10.1284,10.2291,10.3613,10.4604,10.4897,10.5495,10.6019,10.6019,10.6082,10.6192,10.6192,10.6302,10.6386,10.6386,10.6203,10.5395,10.3806,10.4394,10.3806,10.1614,10.1394,10.1284,10.1284,10.0403,9.9548,9.8731,9.8584,9.8658,9.8915,9.8805,9.9208,10.0099,10.0403,10.0806,10.1284,10.1394,10.098,10.0283,10.0283,10.0283,10.0283,10.0393,10.131,10.2401,10.1688,10.2008,10.2695,10.2695,10.3209,10.399,10.4714,10.5411,10.6019,10.6019,10.6019,10.5909,10.5301,10.5484,10.5789,10.5081,10.6019,10.679,10.6203,10.6497,10.6607,10.5191,10.4714,10.3686,10.0796,9.8778,9.6695,9.4153,8.8904,8.4903,8.4168,8.3683,8.3573,8.3985,8.8206,9.1326,9.2088,9.1317,9.151,9.3207,9.1767,9.1941,9.462,9.5868,9.7346,9.9145,10.0293,10.2091,10.4493,10.5605,10.6313,10.6386,10.6386,10.6386,10.6386,10.6386,10.6386,10.6386,10.6386,10.6386,10.6386,10.6386,10.6386,10.6386,10.6386,10.7414,10.8799,10.8799,10.979,11.121,10.0503,10.12,10.2008,10.3686,10.4593,10.5301,10.5705,10.6119,10.6607,10.7011,10.7011,10.7011,10.7011,10.7011,10.69,10.6413,10.6386,10.5909,10.4604,10.4504,10.3596,10.1587,10.1504,10.1284,10.0917,10.0513,9.9916,9.9098,9.9098,9.9318,9.9769,9.9769,10.0209,10.099,10.1908,10.1981,10.1587,10.2385,10.2091,10.0907,10.0907,10.0907,10.099,10.142,10.1788,10.2091,10.2081,10.2715,10.3282,10.3282,10.421,10.5311,10.5715,10.6093,10.6386,10.6386,10.6386,10.6386,10.6413,10.6413,10.6386,10.6413,10.6717,10.6911,10.6497,10.7011,10.7315,10.5998,10.5789,10.4897,10.2118,9.9548,9.6989,9.4116,8.8573,8.4756,8.5196,8.4535,8.5004,8.7537,9.1363,9.4272,9.5547,9.4997,9.4997,9.6144,9.4777,9.474,9.6685,9.797,9.9328,10.0917,10.2595,10.399,10.5117,10.6009,10.6386,10.6386,10.6386,10.6386,10.6386,10.6386,10.6386,10.6386,10.6386,10.6386,10.6386,10.6386,10.6386,10.6386,10.6386,10.7414,10.8799,10.8799,10.979,11.121,10.11,10.1798,10.2595,10.4493,10.5117,10.5595,10.6313,10.6386,10.6607,10.7194,10.7498,10.7609,10.7609,10.7609,10.7388,10.6717,10.6497,10.6009,10.5191,10.4493,10.3513,10.2091,10.2101,10.1798,10.121,10.099,10.0613,9.9942,9.9769,10.0099,10.0907,10.0907,10.1394,10.2385,10.3403,10.3293,10.2385,10.3303,10.2889,10.1798,10.1798,10.1798,10.1788,10.2485,10.2512,10.2385,10.2585,10.3282,10.421,10.421,10.5018,10.6119,10.6302,10.6497,10.668,10.668,10.679,10.7084,10.7708,10.7414,10.7121,10.7708,10.7609,10.711,10.6801,10.7304,10.7598,10.6607,10.6386,10.5689,10.3403,10.0696,9.7686,9.4446,8.9482,8.6151,8.6591,8.6114,8.706,9.073,9.3905,9.6401,9.8016,9.819,9.819,9.819,9.7787,9.7897,9.8677,10.0099,10.131,10.2312,10.409,10.5191,10.5411,10.6093,10.6386,10.6386,10.6386,10.6386,10.6386,10.6386,10.6386,10.6386,10.6386,10.6386,10.6386,10.6386,10.6386,10.6413,10.6607,10.7514,10.8799,10.8982,11.001,11.121,10.1284,10.2715,10.3817,10.4,10.5285,10.6302,10.6386,10.6386,10.6413,10.6497,10.7084,10.7609,10.7609,10.7609,10.7609,10.7498,10.679,10.6009,10.5191,10.4997,10.4604,10.3817,10.3696,10.3707,10.3586,10.2889,10.2522,10.2401,10.1688,10.1714,10.2512,10.2512,10.3403,10.4787,10.421,10.42,10.4703,10.3403,10.2695,10.2585,10.2585,10.2585,10.2585,10.2705,10.3613,10.4593,10.3209,10.3686,10.5007,10.5007,10.5117,10.5301,10.6119,10.69,10.7498,10.7498,10.8002,10.8615,10.8688,10.8688,10.8615,10.8688,10.9202,10.9287,10.7902,10.8101,10.8295,10.6706,10.6386,10.5909,10.41,10.2385,10.0182,9.6942,9.2895,8.9922,8.9216,8.9069,9.0024,9.2611,9.5107,9.7236,9.8841,9.9025,9.9025,9.9025,9.9659,10.0403,10.121,10.2091,10.3209,10.4787,10.5007,10.5484,10.6313,10.6386,10.6386,10.6386,10.6386,10.6386,10.6386,10.6386,10.6386,10.6386,10.6386,10.6386,10.6386,10.6386,10.6386,10.6497,10.7194,10.8002,10.8909,10.9606,11.0498,11.121,10.2595,10.3486,10.421,10.5285,10.5983,10.6386,10.6386,10.679,10.7084,10.7084,10.7807,10.8196,10.7682,10.7609,10.7388,10.69,10.6607,10.6313,10.5899,10.5899,10.5311,10.4,10.389,10.389,10.389,10.3586,10.3403,10.3403,10.3109,10.3109,10.3403,10.3403,10.3806,10.4394,10.4614,10.4493,10.431,10.42,10.3906,10.3403,10.3403,10.3403,10.3513,10.4016,10.432,10.431,10.42,10.4604,10.5117,10.5117,10.5789,10.6717,10.7011,10.7708,10.8395,10.8919,10.9287,10.969,11.0193,10.9606,10.8909,10.9386,10.9397,10.9103,10.8516,10.8993,10.9202,10.8101,10.7881,10.7414,10.5799,10.3696,10.1688,9.9962,9.5841,9.3308,9.452,9.3382,9.3712,9.7163,9.8814,10.0293,10.1898,10.2081,10.2081,10.2081,10.2385,10.2715,10.3009,10.4294,10.5495,10.6607,10.6717,10.6607,10.6386,10.6386,10.6386,10.6386,10.6386,10.6386,10.6386,10.6386,10.6386,10.6386,10.6386,10.6386,10.6386,10.6386,10.6386,10.6497,10.7315,10.8112,10.8909,10.969,11.0487,11.121,10.3513,10.41,10.4604,10.5789,10.6192,10.6497,10.6717,10.7194,10.7609,10.7609,10.8295,10.8516,10.7719,10.7781,10.7719,10.679,10.679,10.668,10.6413,10.6386,10.5909,10.4687,10.4698,10.4698,10.4698,10.4394,10.4284,10.4284,10.399,10.399,10.4284,10.4284,10.4394,10.4698,10.5311,10.5201,10.4698,10.5007,10.4787,10.4284,10.4284,10.4284,10.431,10.4897,10.4897,10.4687,10.5007,10.5301,10.5484,10.5789,10.6596,10.7598,10.7902,10.8516,10.9312,11.0083,11.0388,11.0487,11.1111,11.0403,10.9716,11.0193,11.001,10.9496,10.9202,10.9617,10.9801,10.8982,10.8799,10.8516,10.7414,10.5616,10.389,10.2789,9.9438,9.7419,9.8824,9.7392,9.7383,10.0686,10.1494,10.2385,10.3817,10.389,10.389,10.389,10.4404,10.4908,10.5385,10.6313,10.7121,10.8012,10.8002,10.7708,10.7194,10.69,10.679,10.679,10.679,10.6607,10.6386,10.6386,10.6386,10.6386,10.6386,10.6386,10.6413,10.668,10.679,10.69,10.7892,10.8699,10.9287,11.0094,11.0707,11.121,10.3696,10.4493,10.5117,10.5117,10.5789,10.668,10.7498,10.7609,10.7609,10.7609,10.8295,10.8516,10.7682,10.8295,10.8516,10.7682,10.7609,10.7315,10.6497,10.6386,10.6386,10.6386,10.6386,10.6386,10.6386,10.5605,10.5117,10.5117,10.432,10.431,10.5117,10.5117,10.5605,10.6386,10.6386,10.6386,10.6302,10.5484,10.5117,10.5117,10.5117,10.5117,10.5117,10.5117,10.5595,10.6313,10.5411,10.5715,10.6497,10.7304,10.7609,10.7792,10.8589,10.9397,11.0204,11.1001,11.121,11.121,11.121,11.121,11.121,11.121,11.121,11.1001,11.0204,10.9984,10.9801,10.8982,10.8799,10.8799,10.8799,10.8196,10.7095,10.5411,10.3796,10.2485,10.1614,10.0796,10.0907,10.2512,10.2695,10.2989,10.3806,10.388,10.388,10.388,10.5505,10.7121,10.8688,10.8002,10.8002,10.8799,10.8799,10.8799,10.8799,10.8002,10.7609,10.7609,10.7609,10.7205,10.6386,10.6386,10.6386,10.6386,10.6386,10.6386,10.6497,10.7315,10.7609,10.7792,10.9408,10.9984,11.0094,11.0891,11.121,11.121,10.3696,10.4493,10.5301,10.5899,10.6192,10.6497,10.6717,10.7708,10.7991,10.69,10.8395,10.8919,10.7011,10.8002,10.8211,10.69,10.7818,10.8112,10.7315,10.7194,10.7011,10.6413,10.6386,10.6386,10.6386,10.6119,10.6009,10.6009,10.5799,10.5799,10.6009,10.6009,10.6203,10.6386,10.6386,10.6386,10.6386,10.6082,10.6009,10.6009,10.6009,10.6009,10.6009,10.6009,10.6203,10.6413,10.6706,10.7011,10.7388,10.8185,10.8809,10.9397,11.0182,11.0586,11.0891,11.11,11.121,11.121,11.121,11.121,11.121,11.121,11.121,11.11,11.0891,11.0806,11.0817,11.0513,11.001,10.9606,10.9606,10.8993,10.8112,10.7,10.6507,10.5605,10.42,10.431,10.4504,10.4383,10.4897,10.5395,10.5605,10.5689,10.5689,10.5689,10.6607,10.7498,10.7892,10.8809,10.9397,10.9606,10.9606,10.99,11.0487,10.9092,10.8196,10.7609,10.7609,10.7205,10.6386,10.6386,10.6386,10.6386,10.6386,10.6386,10.6413,10.668,10.7095,10.7719,10.8809,10.9507,11.0094,11.0891,11.121,11.121,10.4698,10.5311,10.5789,10.6313,10.6386,10.6497,10.679,10.7708,10.8002,10.7011,10.8406,10.8799,10.7095,10.7991,10.8395,10.7404,10.8211,10.8589,10.8112,10.8112,10.7708,10.69,10.69,10.6717,10.6386,10.6386,10.6386,10.6386,10.6386,10.6386,10.6386,10.6717,10.6717,10.6386,10.6717,10.6717,10.6413,10.6717,10.6717,10.6413,10.6706,10.668,10.6386,10.6386,10.6607,10.69,10.7388,10.7781,10.8185,10.8993,10.979,11.0608,11.099,11.121,11.121,11.121,11.121,11.121,11.121,11.121,11.121,11.121,11.121,11.121,11.121,11.121,11.121,11.121,11.0817,11.0498,11.0498,11.0083,10.9606,10.9103,10.882,10.8185,10.7183,10.7183,10.7194,10.6586,10.7,10.7194,10.69,10.7194,10.7488,10.7818,10.8002,10.8416,10.8993,10.9617,11.0083,11.0498,11.0498,11.0707,11.121,11.0182,10.9312,10.8516,10.8516,10.8112,10.7294,10.7294,10.7194,10.69,10.69,10.6717,10.6413,10.7121,10.7587,10.8185,10.9312,10.9999,11.0487,11.099,11.121,11.121,10.6019,10.6302,10.6413,10.6497,10.6497,10.6801,10.7498,10.7682,10.7682,10.7498,10.8295,10.8516,10.7719,10.8406,10.8909,10.8799,10.8799,10.8799,10.8909,10.8909,10.8505,10.7708,10.7792,10.7388,10.6497,10.6413,10.6386,10.6386,10.6386,10.6413,10.6497,10.7205,10.7084,10.6486,10.7194,10.7095,10.6413,10.7205,10.7095,10.6497,10.7194,10.7095,10.6497,10.6497,10.7011,10.7708,10.7792,10.8295,10.9019,10.979,11.0597,11.121,11.121,11.121,11.121,11.121,11.121,11.121,11.121,11.121,11.121,11.121,11.121,11.121,11.121,11.121,11.121,11.121,11.121,11.121,11.121,11.121,11.121,11.121,11.0597,11.0094,10.9984,10.9386,10.8982,10.8799,10.8909,10.8589,10.7792,10.8406,10.9092,10.979,10.9287,10.9485,11.099,11.0498,11.0414,11.1221,11.121,11.121,11.121,11.121,11.0817,10.9984,10.9984,10.9617,10.8799,10.8799,10.8406,10.7609,10.7609,10.7084,10.6497,10.8112,10.8688,10.8982,11.0487,11.11,11.121,11.121,11.121,11.121,10.5301,10.5899,10.6607,10.7194,10.7304,10.7388,10.7609,10.8112,10.8112,10.679,10.7881,10.8516,10.7719,10.8883,10.9507,10.8909,10.8799,10.9103,10.969,10.969,10.9397,10.8589,10.9103,10.8809,10.7388,10.6717,10.6386,10.6386,10.6386,10.6717,10.7304,10.69,10.69,10.7304,10.6911,10.6607,10.6386,10.6607,10.6607,10.6413,10.6607,10.69,10.7304,10.7304,10.7818,10.8615,10.9297,10.958,10.9911,11.0707,11.1111,11.121,11.121,11.121,11.121,11.121,11.121,11.121,11.121,11.121,11.121,11.121,11.121,11.121,11.121,11.121,11.121,11.121,11.121,11.121,11.121,11.121,11.121,11.121,11.1111,11.0707,11.0094,11.0414,11.0182,10.8898,10.9397,10.9397,10.8615,10.8688,10.8909,10.9019,10.9507,10.9911,11.0193,11.0707,11.099,11.121,11.121,11.121,11.121,11.121,11.0817,10.9984,10.9984,10.9617,10.8799,10.8799,10.8406,10.7609,10.7609,10.7084,10.6497,10.7498,10.8185,10.8909,10.9911,11.0597,11.121,11.121,11.121,11.121,10.5595,10.6093,10.6691,10.7498,10.7609,10.7708,10.8112,10.8185,10.7892,10.7095,10.7708,10.8185,10.8185,10.8909,10.9397,10.9397,10.9716,11.012,11.0487,11.0597,11.0193,10.9397,10.9801,10.9397,10.8185,10.7781,10.7194,10.6386,10.7194,10.7414,10.7011,10.7414,10.7414,10.7011,10.7011,10.6801,10.6413,10.679,10.6801,10.6497,10.7183,10.7294,10.7095,10.7498,10.8112,10.8909,10.9287,10.99,11.0597,11.1111,11.121,11.121,11.121,11.121,11.121,11.121,11.121,11.121,11.121,11.121,11.121,11.121,11.121,11.121,11.121,11.121,11.121,11.121,11.121,11.121,11.121,11.121,11.121,11.121,11.121,11.1111,11.0597,11.088,11.0891,10.9999,11.0304,11.0414,11.001,10.9606,10.9496,10.9889,11.0304,11.0597,11.0597,11.1001,11.121,11.121,11.121,11.121,11.121,11.121,11.1001,11.0597,11.0597,11.0414,10.9889,10.9889,10.9496,10.8699,10.8295,10.7881,10.7598,10.8002,10.8615,10.9507,11.0314,11.0806,11.121,11.121,11.121,11.121,10.6497,10.6717,10.7011,10.7708,10.7902,10.8196,10.8688,10.8416,10.8012,10.7781,10.7781,10.8112,10.8909,10.8918,10.9204,11.0109,11.0593,11.0889,11.1199,11.121,11.0891,11.0193,11.0204,10.979,10.8982,10.9092,10.8406,10.6607,10.8101,10.7991,10.6607,10.8002,10.7892,10.6607,10.7205,10.7011,10.6413,10.7084,10.7011,10.6486,10.8002,10.7892,10.69,10.7708,10.8516,10.9202,10.9202,11.012,11.121,11.121,11.121,11.121,11.121,11.121,11.121,11.121,11.121,11.121,11.121,11.121,11.121,11.121,11.121,11.121,11.121,11.121,11.121,11.121,11.121,11.121,11.121,11.121,11.121,11.121,11.121,11.121,11.121,11.121,11.121,11.121,11.121,11.121,11.121,11.0597,11.0498,11.11,11.121,11.121,11.121,11.121,11.121,11.121,11.121,11.121,11.121,11.121,11.121,11.121,11.121,11.121,11.121,11.121,11.0781,10.9984,10.9092,10.8799,10.8799,10.8799,10.9287,11.0094,11.0891,11.121,11.121,11.121,11.121,11.121,10.7388,10.8002,10.8505,10.8615,10.9213,10.9507,10.8909,10.9287,10.9397,10.8688,10.8615,10.8909,10.9679,10.9305,10.9483,11.0901,11.001,10.9797,11.1107,11.121,11.1184,11.099,11.099,11.0707,10.9911,11.0487,10.9716,10.7414,10.8406,10.8285,10.7414,10.7682,10.7598,10.7388,10.679,10.6497,10.6386,10.6497,10.6497,10.6497,10.7388,10.8002,10.8589,10.9397,11.0204,11.0891,11.0891,11.099,11.121,11.121,11.121,11.121,11.121,11.121,11.121,11.121,11.121,11.121,11.121,11.121,11.121,11.121,11.121,11.121,11.121,11.121,11.121,11.121,11.121,11.121,11.121,11.121,11.121,11.121,11.121,11.121,11.121,11.121,11.121,11.121,11.121,11.121,11.121,11.11,11.1111,11.121,11.121,11.121,11.121,11.121,11.121,11.121,11.121,11.121,11.121,11.121,11.121,11.121,11.121,11.121,11.121,11.121,11.0781,10.9984,10.9092,10.8799,10.8799,10.8799,10.9287,11.0094,11.0891,11.121,11.121,11.121,11.121,11.121,10.7498,10.7902,10.8295,10.8688,10.9507,10.9911,10.9496,10.9397,10.8982,10.8185,10.8112,10.8395,10.9202,10.991,11.0188,11.0,11.008,11.0513,11.1188,11.121,11.099,11.0487,11.1001,11.0817,10.9984,11.0817,11.0487,10.8883,10.9287,10.8809,10.7609,10.7609,10.7388,10.69,10.6607,10.6386,10.6297,10.5586,10.5904,10.6994,10.6607,10.7397,10.8799,10.9202,10.979,11.0597,11.099,11.121,11.121,11.121,11.121,11.121,11.121,11.121,11.121,11.121,11.121,11.121,11.121,11.121,11.121,11.121,11.121,11.121,11.121,11.121,11.121,11.121,11.121,11.121,11.121,11.121,11.121,11.121,11.121,11.121,11.121,11.121,11.121,11.121,11.121,11.121,11.121,11.121,11.121,11.121,11.121,11.121,11.121,11.121,11.121,11.121,11.121,11.121,11.121,11.121,11.121,11.121,11.121,11.121,11.121,11.121,11.099,11.0597,10.979,10.9716,11.012,10.969,10.99,11.0707,11.1111,11.121,11.121,11.121,11.121,11.121]},{"header":{"parameterUnit":"m.s-1","parameterCategory":1,"la1":30.6,"la2":28.766,"lo1":-90.7593,"lo2":-88.6598,"dx":0.0162,"dy":0.0183,"nx":116,"ny":114,"refTime":"2023-02-02T18:00:00:Z","depth":0,"parameterNumber":3,"parameterNumberName":"V-component_of_WINDS"},"data":[0.0,0.0,0.0,0.0,0.0,0.0,0.0,0.0,0.0,0.0,0.0,0.0,0.0,0.0,0.0,0.0,0.0,0.0,0.0,0.0,0.0,0.0,0.0,0.0,0.0,0.0,0.0,0.0,0.0,0.0,0.0,0.0,0.0,0.0,0.0,0.0,0.0,0.0,0.0,0.0,0.0,0.0,0.0,0.0,0.0,0.0,0.0,0.0,0.0,0.0,0.0,0.0,0.0,0.0,0.0,0.0,0.0,0.0,0.0,0.0,0.0,0.0,0.0,0.0,0.0,0.0,0.0,0.0,0.0,0.0,0.0,0.0,0.0,0.0,0.0,0.0,0.0,0.0,0.0,0.0,0.0,0.0,0.0,0.0,0.0,0.0,0.0,0.0,0.0,0.0,0.0,0.0,0.0,0.0,0.0,0.0,0.0,0.0,0.0,0.0,0.0,0.0,0.0,0.0,0.0,0.0,0.0,0.0,0.0,0.0,0.0,0.0,0.0,0.0,0.0,0.0,0.0,0.0,0.0,0.0,0.0,0.0,0.0,0.0,0.0,0.0,0.0,0.0,0.0,0.0,0.0,0.0,0.0,0.0,0.0,0.0,0.0,0.0,0.0,0.0,0.0,0.0,0.0,0.0,0.0,0.0,0.0,0.0,0.0,0.0,0.0,0.0,0.0,0.0,0.0,0.0,0.0,0.0,0.0,0.0,0.0,0.0,0.0,0.0,0.0,0.0,0.0,0.0,0.0,0.0,0.0,0.0,0.0,0.0,0.0,0.0,0.0,0.0,0.0,0.0,0.0,0.0,0.0,0.0,0.0,0.0,0.0,0.0,0.0,0.0,0.0,0.0,0.0,0.0,0.0,0.0,0.0,0.0,0.0,0.0,0.0,0.0,0.0,0.0,0.0,0.0,0.0,0.0,0.0,0.0,0.0,0.0,0.0,0.0,0.0,0.0,0.0,0.0,0.0,0.0,0.0,0.0,0.0,0.0,0.0,0.0,0.0,0.0,0.0,0.0,0.0,0.0,0.0,0.0,0.0,0.0,0.0,0.0,0.0,0.0,0.0,0.0,0.0,0.0,0.0,0.0,0.0,0.0,0.0,0.0,0.0,0.0,0.0,0.0,0.0,0.0,0.0,0.0,0.0,0.0,0.0,0.0,0.0,0.0,0.0,0.0,0.0,0.0,0.0,0.0,0.0,0.0,0.0,0.0,0.0,0.0,0.0,0.0,0.0,0.0,0.0,0.0,0.0,0.0,0.0,0.0,0.0,0.0,0.0,0.0,0.0,0.0,0.0,0.0,0.0,0.0,0.0,0.0,0.0,0.0,0.0,0.0,0.0,0.0,0.0,0.0,0.0,0.0,0.0,0.0,0.0,0.0,0.0,0.0,0.0,0.0,0.0,0.0,0.0,0.0,0.0,0.0,0.0,0.0,0.0,0.0,0.0,0.0,0.0,0.0,0.0,0.0,0.0,0.0,0.0,0.0,0.0,0.0,0.0,0.0,0.0,0.0,0.0,0.0,0.0,0.0,0.0,0.0,0.0,0.0,0.0,0.0,0.0,0.0,0.0,0.0,0.0,0.0,0.0,0.0,0.0,0.0,0.0,0.0,0.0,0.0,0.0,0.0,0.0,0.0,0.0,0.0,0.0,0.0,0.0,0.0,0.0,0.0,0.0,0.0,0.0,0.0,0.0,0.0,0.0,0.0,0.0,0.0,0.0,0.0,0.0,0.0,0.0,0.0,0.0,0.0,0.0,0.0,0.0,0.0,0.0,0.0,0.0,0.0,0.0,0.0,0.0,0.0,0.0,0.0,0.0,0.0,0.0,0.0,0.0,0.0,0.0,0.0,0.0,0.0,0.0,0.0,0.0,0.0,0.0,0.0,0.0,0.0,0.0,0.0,0.0,0.0,0.0,0.0,0.0,0.0,0.0,0.0,0.0,0.0,0.0,0.0,0.0,0.0,0.0,0.0,0.0,0.0,0.0,0.0,0.0,0.0,0.0,0.0,0.0,0.0,0.0,0.0,0.0,0.0,0.0,0.0,0.0,0.0,0.0,0.0,0.0,0.0,0.0,0.0,0.0,0.0,0.0,0.0,0.0,0.0,0.0,0.0,0.0,0.0,0.0,0.0,0.0,0.0,0.0,0.0,0.0,0.0,0.0,0.0,0.0,0.0,0.0,0.0,0.0,0.0,0.0,0.0,0.0,0.0,0.0,0.0,0.0,0.0,0.0,0.0,0.0,0.0,0.0,0.0,0.0,0.0,0.0,0.0,0.0,0.0,0.0,0.0,0.0,0.0,0.0,0.0,0.0,0.0,0.0,0.0,0.0,0.0,0.0,0.0,0.0,0.0,0.0,0.0,0.0,0.0,0.0,0.0,0.0,0.0,0.0,0.0,0.0,0.0,0.0,0.0,0.0,0.0,0.0,0.0,0.0,0.0,0.0,0.0,0.0,0.0,0.0,0.0,0.0,0.0,0.0,0.0,0.0,0.0,0.0,0.0,0.0,0.0,0.0,0.0,0.0,0.0,0.0,0.0,0.0,0.0,0.0,0.0,0.0,0.0,0.0,0.0,0.0,0.0,0.0,0.0,0.0,0.0,0.0,0.0,0.0,0.0,0.0,0.0,0.0,0.0,0.0,0.0,0.0,0.0,0.0,0.0,0.0,0.0,0.0,0.0,0.0,0.0,0.0,0.0,0.0,0.0,0.0,0.0,0.0,0.0,0.0,0.0,0.0,0.0,0.0,0.0,0.0,0.0,0.0,0.0,0.0,0.0,0.0,0.0,0.0,0.0,0.0,0.0,0.0,0.0,0.0,0.0,0.0,0.0,0.0,0.0,0.0,0.0,0.0,0.0,0.0,0.0,0.0,0.0,0.0,0.0,0.0,0.0,0.0,0.0,0.0,0.0,0.0,0.0,0.0,0.0,0.0,0.0,0.0,0.0,0.0,0.0,0.0,0.0,0.0,0.0,0.0,0.0,0.0,0.0,0.0,0.0,0.0,0.0,0.0,0.0,0.0,0.0,0.0,0.0,0.0,0.0,0.0,0.0,0.0,0.0,0.0,0.0,0.0,0.0,0.0,0.0,0.0,0.0,0.0,0.0,0.0,0.0,0.0,0.0,0.0,0.0,0.0,0.0,0.0,0.0,0.0,0.0,0.0,0.0,0.0,0.0,0.0,0.0,0.0,0.0,0.0,0.0,0.0,0.0,0.0,0.0,0.0,0.0,0.0,0.0,0.0,0.0,0.0,0.0,0.0,0.0,0.0,0.0,0.0,0.0,0.0,0.0,0.0,0.0,0.0,0.0,0.0,0.0,0.0,0.0,0.0,0.0,0.0,0.0,0.0,0.0,0.0,0.0,0.0,0.0,0.0,0.0,0.0,0.0,0.0,0.0,0.0,0.0,0.0,0.0,0.0,0.0,0.0,0.0,0.0,0.0,0.0,0.0,0.0,0.0,0.0,0.0,0.0,0.0,0.0,0.0,0.0,0.0,0.0,0.0,0.0,0.0,0.0,0.0,0.0,0.0,0.0,0.0,0.0,0.0,0.0,0.0,0.0,0.0,0.0,0.0,0.0,0.0,0.0,0.0,0.0,0.0,0.0,0.0,0.0,0.0,0.0,0.0,0.0,0.0,0.0,0.0,0.0,0.0,0.0,0.0,0.0,0.0,0.0,0.0,0.0,0.0,0.0,0.0,0.0,0.0,0.0,0.0,0.0,0.0,0.0,0.0,0.0,0.0,0.0,0.0,0.0,0.0,0.0,0.0,0.0,0.0,0.0,0.0,0.0,0.0,0.0,0.0,0.0,0.0,0.0,0.0,0.0,0.0,0.0,0.0,0.0,0.0,0.0,0.0,0.0,0.0,0.0,0.0,0.0,0.0,0.0,0.0,0.0,0.0,0.0,0.0,0.0,0.0,0.0,0.0,0.0,0.0,0.0,0.0,0.0,0.0,0.0,0.0,0.0,0.0,0.0,0.0,0.0,0.0,0.0,0.0,0.0,0.0,0.0,0.0,0.0,0.0,0.0,0.0,0.0,0.0,0.0,0.0,0.0,0.0,0.0,0.0,0.0,0.0,0.0,0.0,0.0,0.0,0.0,0.0,0.0,0.0,0.0,0.0,0.0,0.0,0.0,0.0,0.0,0.0,0.0,0.0,0.0,0.0,0.0,0.0,0.0,0.0,0.0,0.0,0.0,0.0,0.0,0.0,0.0,0.0,0.0,0.0,0.0,0.0,0.0,0.0,0.0,0.0,0.0,0.0,0.0,0.0,0.0,0.0,0.0,0.0,0.0,0.0,0.0,0.0,0.0,0.0,0.0,0.0,0.0,0.0,0.0,0.0,0.0,0.0,0.0,0.0,0.0,0.0,0.0,0.0,0.0,0.0,0.0,0.0,0.0,0.0,0.0,0.0,0.0,0.0,0.0,0.0,0.0,0.0,0.0,0.0,0.0,0.0,0.0,0.0,0.0,0.0,0.0,0.0,0.0,0.0,0.0,0.0,0.0,0.0,0.0,0.0,0.0,0.0,0.0,0.0,0.0,0.0,0.0,0.0,0.0,0.0,0.0,0.0,0.0,0.0,0.0,0.0,0.0,0.0,0.0,0.0,0.0,0.0,0.0,0.0,0.0,0.0,0.0,0.0,0.0,0.0,0.0,0.0,0.0,0.0,0.0,0.0,0.0,0.0,0.0,0.0,0.0,0.0,0.0,0.0,0.0,0.0,0.0,0.0,0.0,0.0,0.0,0.0,0.0,0.0,0.0,0.0,0.0,0.0,0.0,0.0,0.0,0.0,0.0,0.0,0.0,0.0,0.0,0.0,0.0,0.0,0.0,0.0,0.0,0.0,0.0,0.0,0.0,0.0,0.0,0.0,0.0,0.0,0.0,0.0,0.0,0.0,0.0,0.0,0.0,0.0,0.0,0.0,0.0,0.0,0.0,0.0,0.0,0.0,0.0,0.0,0.0,0.0,0.0,0.0,0.0,0.0,0.0,0.0,0.0,0.0,0.0,0.0,0.0,0.0,0.0,0.0,0.0,0.0,0.0,0.0,0.0,0.0,0.0,0.0,0.0,0.0,0.0,0.0,0.0,0.0,0.0,0.0,0.0,0.0,0.0,0.0,0.0,0.0,0.0,0.0,0.0,0.0,0.0,0.0,0.0,0.0,0.0,0.0,0.0,0.0,0.0,0.0,0.0,0.0,0.0,0.0,0.0,0.0,0.0,0.0,0.0,0.0,0.0,0.0,0.0,0.0,0.0,0.0,0.0,0.0,0.0,0.0,0.0,0.0,0.0,0.0,0.0,0.0,0.0,0.0,0.0,0.0,0.0,0.0,0.0,0.0,0.0,0.0,0.0,0.0,0.0,0.0,0.0,0.0,0.0,0.0,0.0,0.0,0.0,0.0,0.0,0.0,0.0,0.0,0.0,0.0,0.0,0.0,0.0,0.0,0.0,0.0,0.0,0.0,0.0,0.0,0.0,0.0,0.0,0.0,0.0,0.0,0.0,0.0,0.0,0.0,0.0,0.0,0.0,0.0,0.0,0.0,0.0,0.0,0.0,0.0,0.0,0.0,0.0,0.0,0.0,0.0,0.0,0.0,0.0,0.0,0.0,0.0,0.0,0.0,0.0,0.0,0.0,0.0,0.0,0.0,0.0,0.0,0.0,0.0,0.0,0.0,0.0,0.0,0.0,0.0,0.0,0.0,0.0,0.0,0.0,0.0,0.0,0.0,0.0,0.0,0.0,0.0,0.0,0.0,0.0,0.0,0.0,0.0,0.0,0.0,0.0,0.0,0.0,0.0,0.0,0.0,0.0,0.0,0.0,0.0,0.0,0.0,0.0,0.0,0.0,0.0,0.0,0.0,0.0,0.0,0.0,0.0,0.0,0.0,0.0,0.0,0.0,0.0,0.0,0.0,0.0,0.0,0.0,0.0,0.0,0.0,0.0,0.0,0.0,0.0,0.0,0.0,0.0,0.0,0.0,0.0,0.0,0.0,0.0,0.0,0.0,0.0,0.0,0.0,0.0,0.0,0.0,0.0,0.0,0.0,0.0,0.0,0.0,0.0,0.0,0.0,0.0,0.0,0.0,0.0,0.0,0.0,1.3958,1.336,0.0,0.0,0.0,0.0,0.0,0.0,0.0,0.0,0.0,0.0,0.0,0.0,0.0,0.0,0.0,0.0,0.0,0.0,0.0,0.0,0.0,0.0,0.0,0.0,0.0,0.0,0.0,0.0,0.0,0.0,0.0,0.0,0.0,0.0,0.0,0.0,0.0,0.0,0.0,0.0,0.0,0.0,0.0,0.0,0.0,0.0,0.0,0.0,0.0,0.0,0.0,0.0,0.0,0.0,0.0,0.0,0.0,0.0,0.0,0.0,0.0,0.0,0.0,0.0,0.0,0.0,0.0,0.0,0.0,0.0,0.0,0.0,0.0,0.0,0.0,0.0,0.0,0.0,0.0,0.0,0.0,0.0,0.0,0.0,0.0,0.0,0.0,0.0,0.0,0.0,0.0,0.0,0.0,0.0,0.0,0.0,0.0,0.0,0.0,0.0,0.0,0.0,0.0,0.0,0.0,0.0,0.0,0.0,0.0,0.0,0.0,0.0,0.0,0.0,1.7275,1.643,0.0,0.0,0.0,0.0,0.0,0.0,0.0,0.0,0.0,0.0,0.0,0.0,0.0,0.0,0.0,0.0,0.0,0.0,0.0,0.0,0.0,0.0,0.0,0.0,0.0,0.0,0.0,0.0,0.0,0.0,0.0,0.0,0.0,0.0,0.0,0.0,0.0,0.0,0.0,0.0,0.0,0.0,0.0,0.0,0.0,0.0,0.0,0.0,0.0,0.0,0.0,0.0,0.0,0.0,0.0,0.0,0.0,0.0,0.0,0.0,0.0,0.0,0.0,0.0,0.0,0.0,0.0,0.0,0.0,0.0,0.0,0.0,0.0,0.0,0.0,0.0,0.0,0.0,0.0,0.0,0.0,0.0,0.0,0.0,0.0,0.0,0.0,0.0,0.0,0.0,0.0,0.0,0.0,0.0,0.0,0.0,0.0,0.0,0.0,0.0,0.0,0.0,0.0,0.0,0.0,0.0,0.0,0.0,2.2375,2.3619,2.6999,2.354,2.3043,2.4702,2.1584,2.0663,2.1084,1.7744,0.0,0.0,0.0,0.0,0.0,0.0,0.0,0.0,0.0,0.0,0.0,0.0,0.0,0.0,0.0,0.0,0.0,0.0,0.0,0.0,0.0,0.0,0.0,0.0,0.0,0.0,0.0,0.0,0.0,0.0,0.0,0.0,0.0,0.0,0.0,0.0,0.0,0.0,0.0,0.0,0.0,0.0,0.0,0.0,0.0,0.0,0.0,0.0,0.0,0.0,0.0,0.0,0.0,0.0,0.0,0.0,0.0,0.0,0.0,0.0,0.0,0.0,0.0,0.0,0.0,0.0,0.0,0.0,0.0,0.0,0.0,0.0,0.0,0.0,0.0,0.0,0.0,0.0,0.0,0.0,0.0,0.0,0.0,0.0,0.0,0.0,1.0455,1.2275,0.0,0.0,0.0,0.0,0.0,0.0,0.0,0.0,0.0,0.0,0.0,0.0,0.0,1.9954,2.2253,2.3712,2.5321,2.7086,2.7868,2.8307,2.8356,2.8023,2.8326,2.9066,2.8339,0.0,2.293,2.1284,0.0,0.0,0.0,0.0,0.0,0.0,0.0,0.0,0.0,0.0,0.0,0.0,0.0,0.0,0.0,0.0,0.0,0.0,0.0,0.0,0.0,0.0,0.0,0.0,0.0,0.0,0.0,0.0,0.0,0.0,0.0,0.0,0.0,0.0,0.0,0.0,0.0,0.0,0.0,0.0,0.0,0.0,0.0,0.0,0.0,0.0,0.0,0.0,0.0,0.0,0.0,0.0,0.0,0.0,0.0,0.0,0.0,0.0,0.0,0.0,0.0,0.0,0.0,0.0,0.0,0.0,0.0,0.0,0.0,0.0,0.0,0.0,0.0,0.0,0.0,0.0,0.0,0.0,0.0,0.0,0.0,0.0,0.0,0.0,0.0,1.0362,1.0971,1.1393,1.1979,1.2206,0.0,0.0,0.0,0.0,0.0,0.0,0.0,0.0,0.0,1.9178,2.1443,2.3257,2.4627,2.6969,2.8776,2.9962,3.0644,3.0996,3.1062,3.1045,3.1236,3.161,3.1156,2.9852,2.7837,2.4751,2.2501,2.0769,0.0,0.0,0.0,0.0,1.433,1.4264,0.0,0.0,0.0,0.0,0.0,0.0,0.0,0.0,0.0,0.0,0.0,0.0,0.0,0.0,0.0,0.0,0.0,0.0,0.0,0.0,0.0,0.0,0.0,0.0,0.0,0.0,0.0,0.0,0.0,0.0,0.0,0.0,0.0,0.0,0.0,0.0,0.0,0.0,0.0,0.0,0.0,0.0,0.0,0.0,0.0,0.0,0.0,0.0,0.0,0.0,0.0,0.0,0.0,0.0,0.0,0.0,0.0,0.0,0.0,0.0,0.0,0.0,0.0,0.0,0.0,0.0,0.0,0.0,0.0,0.0,0.0,0.0,0.0,0.0,0.0,0.0,0.0,1.0897,1.14,1.1104,1.2348,1.277,0.0,0.0,0.0,0.0,0.0,0.0,1.6712,1.8306,2.0039,2.1984,2.5076,2.6931,2.7394,2.9985,3.1647,3.2382,3.2719,3.312,3.3559,3.3303,3.3276,3.3439,3.2893,3.2465,3.1835,2.794,2.5221,2.3384,2.1734,2.0546,1.9624,1.8262,1.7785,1.7629,0.0,0.0,0.0,0.0,0.0,0.0,0.0,0.0,0.0,0.0,0.0,0.0,0.0,0.0,0.0,0.0,0.0,0.0,0.0,0.0,0.0,0.0,0.0,0.0,0.0,0.0,0.0,0.0,0.0,0.0,0.0,0.0,0.0,0.0,0.0,0.0,0.0,0.0,0.0,0.0,0.0,0.0,0.0,0.0,0.0,0.0,0.0,0.0,0.0,0.0,0.0,0.0,0.0,0.0,0.0,0.0,0.0,0.0,0.0,0.0,0.0,0.0,0.0,0.0,0.0,0.0,0.0,0.0,0.0,0.0,0.0,0.0,0.0,0.0,0.0,0.0,0.0,0.0,0.0,1.3005,1.5778,0.0,0.0,0.0,0.0,1.5555,1.6184,1.7935,2.0925,2.3375,2.5329,2.6713,2.9218,3.1079,3.2232,3.3215,3.3868,3.4163,3.4763,3.5057,3.507,3.4816,3.4682,3.4682,3.4349,3.3856,3.3123,3.0657,2.8146,2.5768,2.5094,2.3656,2.1957,2.1968,2.2083,2.2185,0.0,0.0,0.0,0.0,0.0,0.0,0.0,0.0,0.0,0.0,0.0,0.0,0.0,0.0,0.0,0.0,0.0,0.0,0.0,0.0,0.0,0.0,0.0,0.0,0.0,0.0,0.0,0.0,0.0,0.0,0.0,0.0,0.0,0.0,0.0,0.0,0.0,0.0,0.0,0.0,0.0,0.0,0.0,0.0,0.0,0.0,0.0,0.0,0.0,0.0,0.0,0.0,0.0,0.0,0.0,0.0,0.0,0.0,0.0,0.0,0.0,0.0,0.0,0.0,0.0,0.0,0.0,0.0,0.0,0.0,0.0,0.0,0.0,0.0,0.0,0.0,0.0,0.0,0.0,1.5525,1.8358,0.0,1.6207,1.8017,1.8705,1.7103,1.9178,2.1768,2.4648,2.6429,2.8263,3.0266,3.2098,3.3322,3.3961,3.4843,3.5351,3.5458,3.5845,3.5939,3.5778,3.5685,3.5631,3.5605,3.5097,3.4763,3.4457,3.3228,3.1394,2.9283,2.8716,2.7937,2.6967,2.5719,2.5296,2.5162,0.0,0.0,0.0,0.0,0.0,0.0,0.0,0.0,0.0,0.0,0.0,0.0,0.0,0.0,0.0,0.0,0.0,0.0,0.0,0.0,0.0,0.0,0.0,0.0,0.0,0.0,0.0,0.0,0.0,0.0,0.0,0.0,0.0,0.0,0.0,0.0,0.0,0.0,0.0,0.0,0.0,0.0,1.089,0.0,0.0,0.0,0.0,0.0,0.0,0.0,0.0,0.0,0.0,0.0,0.0,0.0,0.0,0.0,0.0,0.0,0.0,0.0,0.0,0.0,0.0,0.0,0.0,0.0,0.0,0.0,0.0,0.0,0.0,0.0,0.0,0.0,0.0,1.5655,1.784,1.8458,2.1367,2.216,1.922,2.1012,2.1983,2.1058,2.3197,2.5845,2.8785,2.9953,3.1361,3.323,3.4349,3.5071,3.5431,3.6166,3.6541,3.6541,3.6794,3.6861,3.6688,3.6581,3.6541,3.65,3.5899,3.5631,3.5578,3.4897,3.3776,3.2467,3.1714,3.1276,3.0916,2.9493,2.9026,2.8782,0.0,0.0,0.0,0.0,0.0,0.0,0.0,0.0,0.0,0.0,0.0,0.0,0.0,0.0,0.0,0.0,0.0,0.0,0.0,0.0,0.0,0.0,0.0,0.0,0.0,0.0,0.0,0.0,0.0,0.0,0.0,0.0,0.0,0.0,0.0,0.0,0.0,0.0,0.0,0.0,0.0,0.0,1.1366,0.0,0.0,0.0,0.0,0.0,0.0,0.0,0.0,0.0,0.0,0.0,0.0,0.0,0.0,0.0,0.0,0.0,0.0,0.0,0.0,0.0,0.0,0.0,0.0,0.0,0.0,0.0,0.0,0.0,0.0,0.0,0.0,0.0,1.5759,1.7333,1.9386,2.1809,2.493,2.5775,2.2967,2.5055,2.6862,2.7528,2.832,3.0156,3.3288,3.4016,3.4737,3.5591,3.5952,3.6393,3.6912,3.7275,3.745,3.7422,3.7674,3.7809,3.7781,3.7529,3.741,3.737,3.6794,3.6513,3.6446,3.5591,3.5231,3.511,3.3908,3.344,3.34,3.3145,3.3187,3.3023,0.0,0.0,0.0,0.0,0.0,0.0,0.0,0.0,0.0,0.0,0.0,0.0,0.0,0.0,0.0,0.0,0.0,0.0,0.0,0.0,0.0,0.0,0.0,0.0,0.0,0.0,0.0,0.0,0.0,0.0,0.0,0.0,0.0,0.0,0.0,0.0,0.0,0.0,0.0,0.0,0.0,0.0,1.1486,0.0,0.0,0.0,0.0,0.0,0.0,0.0,0.0,0.0,0.0,0.0,0.0,0.0,0.0,0.0,0.0,0.0,0.0,0.0,0.0,0.0,0.0,0.0,0.0,0.0,0.0,0.0,0.0,0.0,0.0,0.0,1.4686,1.7084,1.7328,2.1658,2.5217,2.6341,2.9134,2.9977,2.7391,2.9408,3.0498,2.9523,3.1491,3.33,3.4644,3.5271,3.5698,3.5939,3.6861,3.738,3.7555,3.8075,3.825,3.8067,3.8145,3.8036,3.7781,3.7714,3.7674,3.7676,3.7301,3.7021,3.6766,3.6326,3.6019,3.5738,3.4536,3.4043,3.4029,3.3975,3.3868,3.3647,0.0,0.0,0.0,0.0,0.0,0.0,0.0,0.0,0.0,0.0,0.0,0.0,0.0,0.0,0.0,0.0,0.0,0.0,0.0,0.0,0.0,0.0,0.0,0.0,0.0,0.0,0.0,0.0,0.0,0.0,0.0,0.0,0.0,0.0,0.0,0.0,0.0,0.0,0.0,0.0,0.0,0.0,1.2286,1.171,1.1459,1.1396,1.1145,1.1066,1.1221,1.1928,0.0,0.0,0.0,0.0,0.0,0.0,0.0,0.0,0.0,0.0,0.0,0.0,0.0,0.0,0.0,0.0,0.0,0.0,0.0,0.0,0.0,0.0,0.0,0.0,1.7359,2.0478,2.2462,2.5765,2.866,3.0526,3.2259,3.2848,3.1655,3.2716,3.3204,3.2512,3.4072,3.5257,3.5725,3.6327,3.6755,3.7009,3.7782,3.8288,3.8544,3.8905,3.8945,3.8653,3.8653,3.8477,3.8183,3.8183,3.8183,3.8155,3.7889,3.7664,3.7448,3.6873,3.658,3.6326,0.0,0.0,0.0,0.0,3.4242,3.3881,0.0,0.0,0.0,0.0,0.0,0.0,0.0,0.0,0.0,0.0,0.0,0.0,0.0,0.0,0.0,0.0,0.0,0.0,0.0,0.0,0.0,0.0,0.0,0.0,0.0,0.0,0.0,0.0,0.0,0.0,0.0,0.0,0.0,0.0,0.0,0.0,0.0,0.0,0.0,0.0,0.0,0.0,1.4119,1.3171,1.2907,1.2973,1.2422,1.2102,1.1924,1.2045,0.0,0.0,0.0,0.0,0.0,0.0,0.0,0.0,0.0,0.0,0.0,0.0,0.0,0.0,0.0,0.0,0.0,0.0,0.0,0.0,0.0,0.0,0.0,0.0,2.124,2.5042,2.8916,2.9614,3.0889,3.4038,3.4457,3.4723,3.5244,3.5084,3.5178,3.5765,3.6072,3.6394,3.6687,3.7235,0.0,0.0,0.0,3.9092,3.9599,3.964,3.9493,3.9169,3.9169,3.902,3.8809,3.8809,3.8809,3.8798,3.8504,3.8359,3.8279,3.7422,3.702,3.6846,3.5738,3.5458,3.5591,3.5083,3.4535,3.4028,0.0,0.0,0.0,0.0,0.0,0.0,0.0,0.0,0.0,0.0,0.0,0.0,0.0,0.0,0.0,0.0,0.0,0.0,0.0,0.0,0.0,0.0,0.0,0.0,0.0,0.0,0.0,0.0,0.0,0.0,0.0,0.0,0.0,0.0,0.0,0.0,0.0,0.0,0.0,0.0,0.0,0.0,1.9115,1.6876,1.5632,1.51,1.4996,1.4948,1.5395,1.8374,1.7221,1.4717,1.5758,0.0,0.0,0.0,0.0,0.0,0.0,0.0,0.0,0.0,0.0,0.0,0.0,0.0,0.0,0.0,0.0,0.0,0.0,0.0,0.0,2.0968,2.5134,2.8544,3.0336,3.2983,3.4795,3.4991,3.5471,3.5805,3.5926,3.6246,3.6647,3.7021,3.7116,3.737,3.7918,3.8279,3.8582,3.8913,3.9463,3.9706,3.9599,3.9813,3.9783,3.949,3.949,0.0,3.9426,3.9426,3.9426,3.9412,3.9089,3.8838,3.8582,3.8183,3.7744,3.7195,3.63,3.5966,3.5966,3.5591,3.5244,3.491,0.0,0.0,0.0,0.0,0.0,0.0,0.0,0.0,0.0,0.0,1.0751,1.1613,1.1925,0.0,0.0,0.0,0.0,0.0,0.0,0.0,0.0,0.0,0.0,0.0,0.0,0.0,0.0,0.0,0.0,0.0,0.0,0.0,0.0,0.0,0.0,0.0,0.0,0.0,0.0,0.0,0.0,0.0,2.5346,2.1192,1.9172,1.8529,1.84,1.818,1.8213,1.9956,1.9112,1.7455,1.8055,1.7127,1.6107,0.0,0.0,0.0,0.0,0.0,0.0,0.0,0.0,0.0,0.0,0.0,0.0,0.0,0.0,1.8292,1.9275,0.0,2.16,2.538,2.8321,3.1057,3.3775,3.564,3.658,3.6126,3.6473,3.6861,3.7156,3.745,3.7744,3.8036,3.8183,3.8368,3.8691,3.8985,3.9276,3.954,3.982,4.004,4.004,4.0187,4.0107,3.9783,3.9783,3.9746,3.9599,3.9599,3.9599,3.9599,3.9423,3.9169,3.8876,3.8466,3.8025,3.7529,3.6968,3.6567,3.6233,3.5765,3.5418,3.5151,0.0,0.0,0.0,0.0,0.0,0.0,0.0,0.0,0.0,0.0,0.0,1.1155,1.1398,1.1954,0.0,0.0,0.0,0.0,0.0,0.0,0.0,0.0,0.0,0.0,0.0,0.0,0.0,0.0,0.0,0.0,0.0,0.0,0.0,0.0,0.0,0.0,0.0,0.0,0.0,0.0,0.0,0.0,3.0558,2.5901,2.3365,2.2264,2.198,2.1363,2.0718,2.1109,2.058,1.9768,1.9925,1.9533,1.9194,2.0145,2.0605,0.0,0.0,0.0,0.0,0.0,0.0,0.0,0.0,0.0,2.0696,1.9937,2.1274,2.2604,2.2772,2.3732,2.5766,2.9775,3.1437,3.3459,3.6983,3.7597,3.7569,3.7354,3.7529,3.7849,3.8399,3.8506,3.8653,3.8865,3.9089,3.9207,3.9273,3.9599,3.9863,4.0077,4.0144,4.0294,4.0512,4.0512,4.0361,4.0107,4.0107,3.997,3.9786,3.9786,3.9786,3.9776,3.964,3.9412,3.906,3.8584,3.8223,3.7956,3.7676,3.7235,3.6659,3.5979,3.5565,3.5324,0.0,0.0,0.0,0.0,0.0,0.0,0.0,0.0,0.0,0.0,0.0,0.0,0.0,0.0,0.0,0.0,0.0,0.0,0.0,0.0,0.0,0.0,0.0,0.0,0.0,0.0,0.0,0.0,0.0,0.0,0.0,0.0,0.0,0.0,0.0,0.0,0.0,0.0,0.0,0.0,0.0,0.0,3.1856,3.0983,2.849,2.5444,2.5186,2.4011,2.3015,2.5857,2.4507,2.1895,2.306,2.2596,2.1592,2.1609,0.0,2.2508,2.2025,2.0398,1.9342,2.1441,2.0916,2.0648,0.0,0.0,2.5055,2.5688,2.5165,2.5383,2.8086,2.8803,3.0006,3.3247,3.5165,3.6608,3.7606,3.8223,3.8622,3.8836,3.8689,3.8662,3.8982,3.9276,3.9452,3.9493,3.9533,3.9637,3.989,4.0214,4.0401,4.0441,4.0695,4.0695,4.0512,4.0512,4.0468,4.0441,4.0441,4.0431,4.0405,4.0405,4.0405,4.0361,3.9813,3.9412,3.9089,3.8769,3.8622,3.8584,3.829,3.7998,3.7529,3.6433,3.6033,3.5926,0.0,0.0,0.0,0.0,0.0,0.0,0.0,0.0,0.0,0.0,0.0,0.0,0.0,0.0,0.0,0.0,0.0,0.0,0.0,0.0,0.0,0.0,0.0,0.0,0.0,0.0,0.0,0.0,0.0,0.0,0.0,0.0,0.0,0.0,0.0,0.0,0.0,0.0,0.0,0.0,0.0,0.0,3.2772,3.1995,3.027,2.8156,2.7381,2.6275,0.0,0.0,2.576,2.4691,2.5408,2.5024,2.4284,2.4042,2.3705,0.0,2.2261,2.1662,2.1603,2.2887,2.3656,2.4539,2.6215,2.6974,2.7541,2.8422,2.8573,2.9218,3.1378,3.2399,3.3603,3.5764,3.7021,3.8036,3.8942,3.9169,3.9199,3.91,3.9169,3.9346,3.9596,3.9933,4.0107,4.0107,4.0107,4.0177,4.0294,4.0575,4.0735,4.0735,4.0985,4.0985,4.0735,4.0735,4.0655,4.0512,4.0512,4.0512,4.0512,4.0512,4.0512,4.0471,4.004,3.9666,3.9386,3.9062,3.8836,3.8662,3.8183,3.7929,3.7674,3.6687,3.6326,3.6246,0.0,0.0,0.0,0.0,0.0,0.0,0.0,0.0,0.0,0.0,0.0,0.0,0.0,0.0,0.0,0.0,0.0,0.0,0.0,1.4462,1.5932,1.769,0.0,0.0,0.0,0.0,0.0,0.0,0.0,0.0,0.0,0.0,0.0,0.0,0.0,0.0,0.0,0.0,0.0,0.0,0.0,0.0,3.3267,3.1955,3.0702,2.9504,2.8438,2.7208,0.0,0.0,2.5537,2.555,2.622,2.6119,2.5703,2.5451,2.4449,2.3264,2.2539,2.2936,2.3723,2.4454,2.6092,2.7736,2.8404,2.9138,2.9913,3.0692,3.1426,3.2334,3.3668,3.4817,3.5979,3.7303,3.8076,3.8878,3.9863,3.9677,3.9383,3.9127,3.9169,3.9386,3.9717,4.0117,4.0441,4.0618,4.0538,4.0548,4.0725,4.0909,4.1016,4.1016,4.1279,4.131,4.1016,4.0949,4.0802,4.0618,4.0538,4.0512,4.0512,4.0512,4.0512,4.0468,4.0147,3.9853,3.9559,3.9236,3.8942,3.8662,3.8221,3.7996,3.7849,3.7128,3.6727,3.6433,0.0,0.0,0.0,0.0,0.0,0.0,0.0,0.0,0.0,0.0,0.0,0.0,0.0,0.0,0.0,0.0,0.0,0.0,0.0,1.396,1.6307,2.0315,2.4022,2.753,3.0876,3.3888,3.5485,3.5578,0.0,0.0,0.0,0.0,0.0,0.0,0.0,0.0,0.0,0.0,0.0,0.0,0.0,0.0,3.3227,3.1476,3.0087,2.8908,2.8043,0.0,0.0,0.0,2.3915,2.3308,2.501,2.5344,0.0,2.5109,2.3848,0.0,0.0,0.0,2.4583,2.6286,2.807,2.9655,3.0501,3.162,3.2623,3.3187,3.3574,3.4082,3.4977,3.5872,3.6754,3.7634,3.8515,3.9273,3.99,3.949,3.91,3.91,3.8651,3.8544,3.9089,3.9677,4.0264,4.0842,4.0659,4.0735,4.1239,4.1274,4.1274,4.1274,4.1603,4.1599,4.1274,4.1025,4.0909,4.0878,4.0615,4.0512,4.0512,4.0512,4.0512,4.0468,4.0147,3.9853,3.9559,3.9236,3.8942,3.8689,3.8691,3.8504,3.8252,3.7889,3.7235,3.6473,0.0,0.0,0.0,0.0,0.0,0.0,0.0,0.0,0.0,0.0,0.0,0.0,0.0,0.0,0.0,0.0,0.0,0.0,0.0,1.377,1.6025,1.9456,2.3471,2.7023,2.9966,3.3353,3.5151,3.5338,3.5338,3.5338,0.0,0.0,0.0,0.0,0.0,0.0,0.0,0.0,0.0,0.0,0.0,0.0,3.2933,3.1193,2.9428,2.7669,0.0,0.0,0.0,0.0,0.0,0.0,2.379,0.0,0.0,2.3763,0.0,0.0,0.0,0.0,2.7455,2.8853,3.0524,3.2062,3.2933,3.3748,3.4388,3.4549,3.4523,3.4589,3.4883,3.5471,3.6246,3.737,3.8437,3.9383,4.0214,4.0147,3.957,3.8368,3.8582,3.8582,3.8036,3.8836,3.9743,4.0578,4.0725,4.0842,4.1025,4.1416,4.1644,4.1644,4.1893,4.1924,4.1644,4.1537,4.139,4.1172,4.0878,4.0655,4.0512,4.0512,4.0512,4.0481,4.0361,4.0147,3.9853,3.9559,3.9236,3.8913,3.8584,3.8399,3.8252,3.7929,3.7489,3.7048,0.0,0.0,0.0,0.0,0.0,0.0,0.0,0.0,0.0,0.0,0.0,0.0,0.0,0.0,0.0,0.0,0.0,0.0,0.0,0.0,1.6191,1.9694,2.3092,2.6342,2.942,3.1617,3.2998,3.3467,3.3467,3.376,3.4281,3.4388,0.0,0.0,0.0,0.0,0.0,0.0,0.0,0.0,0.0,0.0,3.1196,2.924,2.7476,0.0,0.0,0.0,0.0,0.0,0.0,0.0,0.0,0.0,0.0,0.0,0.0,0.0,0.0,2.7909,2.9824,3.1142,3.281,3.4254,3.4817,3.5324,3.5605,3.5391,3.487,3.4441,3.4335,3.4416,3.495,3.626,3.7233,3.8368,3.9783,3.9746,3.9239,3.8368,3.8475,3.8435,3.7929,3.8622,3.949,4.0431,4.0766,4.0985,4.1203,4.1595,4.1849,4.1924,4.2111,4.2106,4.1924,4.1849,4.1644,4.1305,4.1025,4.0802,4.0645,4.0538,4.0512,4.0512,4.0512,4.0324,3.9997,3.9813,3.949,3.906,3.8731,3.8533,3.8426,3.8181,3.7956,3.7664,0.0,0.0,0.0,0.0,0.0,0.0,0.0,0.0,0.0,0.0,0.0,0.0,0.0,0.0,0.0,0.0,0.0,0.0,0.0,0.0,0.0,2.0869,2.2826,2.5553,2.9282,2.9077,2.9392,3.0293,3.0293,3.1002,3.238,3.265,3.2906,3.3175,0.0,0.0,0.0,0.0,0.0,0.0,0.0,0.0,2.8243,2.5959,0.0,0.0,0.0,0.0,0.0,0.0,0.0,0.0,0.0,0.0,0.0,0.0,0.0,2.5791,2.815,3.0051,3.1733,3.3177,3.487,3.6139,3.6139,3.6313,3.6326,3.5672,3.4629,3.3708,3.332,3.2891,3.3076,3.4548,3.5338,3.6552,3.8876,3.8486,3.8261,0.0,0.0,0.0,0.0,0.0,3.957,4.0441,4.0762,4.1203,4.1782,4.1849,4.1964,4.2186,4.2218,4.2218,4.2186,4.1969,4.1644,4.1305,4.1056,4.0909,4.0869,4.0618,4.0512,4.0512,4.0512,4.0321,4.0007,3.9997,3.9677,3.914,3.9127,3.8953,3.8729,3.8729,3.8544,3.8252,0.0,0.0,0.0,0.0,0.0,0.0,0.0,0.0,0.0,0.0,0.0,0.0,0.0,0.0,0.0,0.0,0.0,0.0,0.0,0.0,0.0,0.0,0.0,0.0,0.0,0.0,0.0,0.0,0.0,2.8941,2.9338,2.9601,2.9766,0.0,3.0528,0.0,0.0,0.0,0.0,0.0,0.0,0.0,2.6814,0.0,0.0,0.0,0.0,0.0,0.0,0.0,0.0,0.0,0.0,2.3273,2.403,0.0,0.0,2.8217,3.0568,3.2481,3.4097,3.5391,3.6192,3.6699,3.6699,3.6579,3.6153,3.4884,3.3708,3.2581,3.138,3.1965,3.3076,3.4548,3.654,3.8515,4.0184,4.0441,0.0,3.9823,0.0,3.9709,3.9383,3.9853,4.0334,4.0762,4.1269,4.1644,4.179,4.2405,4.2579,4.2218,4.2445,4.2445,4.2186,4.2151,4.1826,4.1305,4.1239,4.0985,4.0618,4.0538,4.0512,4.0512,4.0512,4.0441,4.0364,4.0107,3.99,3.9743,3.9559,3.9276,3.8993,3.8993,3.8689,3.8319,0.0,0.0,0.0,0.0,0.0,0.0,0.0,0.0,0.0,0.0,0.0,0.0,0.0,0.0,0.0,0.0,0.0,0.0,0.0,0.0,0.0,0.0,0.0,0.0,0.0,0.0,0.0,0.0,0.0,0.0,0.0,2.6994,2.7222,2.7468,2.8056,2.8323,0.0,0.0,0.0,0.0,0.0,0.0,0.0,0.0,0.0,0.0,0.0,0.0,0.0,0.0,0.0,2.318,2.4168,2.497,2.5938,2.7816,0.0,3.0648,3.3013,3.4724,3.6099,3.7048,3.7489,3.7487,3.6727,3.6326,3.5498,3.3375,3.2024,3.0818,2.9468,3.031,3.1714,3.3185,3.5631,3.8075,4.0214,4.0624,4.0731,0.0,4.0842,0.0,4.0371,4.0792,4.1243,4.1675,4.1857,4.1964,4.1964,4.2699,4.2873,4.2432,4.2592,4.2544,4.2186,4.2186,4.2031,4.1679,4.1572,4.1279,4.0842,4.0735,4.0618,4.0512,4.0512,4.0512,4.0481,4.0294,4.0147,3.9997,3.9823,3.9599,3.9316,3.9169,3.8916,3.8651,0.0,0.0,0.0,0.0,0.0,0.0,0.0,0.0,0.0,0.0,0.0,0.0,0.0,0.0,0.0,0.0,0.0,0.0,0.0,0.0,0.0,0.0,0.0,0.0,0.0,0.0,0.0,0.0,0.0,0.0,0.0,0.0,0.0,0.0,0.0,0.0,0.0,0.0,0.0,0.0,0.0,0.0,0.0,0.0,0.0,0.0,0.0,0.0,0.0,0.0,2.436,2.4526,2.5998,2.7122,2.8286,3.0293,3.1647,3.3013,3.5271,3.6727,3.7702,3.8319,3.8533,3.8143,3.6473,3.5631,3.4377,3.1506,3.0007,2.8866,2.7736,2.8564,3.0003,3.1714,3.4122,3.6834,3.9823,4.0264,4.0691,4.1849,4.1719,4.1532,4.1532,4.1826,4.225,4.2771,4.2619,4.244,4.2325,4.2881,4.3092,4.2771,4.2731,4.2544,4.2186,4.2186,4.2178,4.2151,4.1857,4.1563,4.1239,4.0976,4.0722,4.0512,4.0512,4.0512,4.0512,4.0512,4.0334,4.0077,4.0077,3.989,3.964,3.9313,3.9207,3.9127,0.0,0.0,0.0,0.0,0.0,0.0,0.0,0.0,0.0,0.0,0.0,0.0,0.0,0.0,0.0,0.0,0.0,0.0,0.0,0.0,0.0,0.0,0.0,0.0,0.0,0.0,0.0,0.0,0.0,0.0,0.0,0.0,0.0,0.0,0.0,0.0,0.0,0.0,0.0,0.0,0.0,0.0,0.0,0.0,0.0,0.0,0.0,0.0,0.0,0.0,2.6145,2.6961,2.8425,2.9829,3.1246,3.2837,3.3935,3.507,3.6913,3.7928,3.8624,3.9239,3.8651,3.7635,3.6394,3.4548,0.0,2.9904,2.847,2.7462,2.6767,2.7969,3.0051,3.3051,3.5284,3.7781,4.1016,4.167,4.208,0.0,4.28,4.2806,4.2806,4.306,4.3241,4.3348,4.3781,4.3714,4.298,4.3527,4.3607,4.3052,4.2811,4.2544,4.2186,4.2186,4.208,4.1857,4.1532,4.1239,4.0945,4.0695,4.0538,4.0512,4.0512,4.0512,4.0512,4.0512,4.0471,4.0401,4.0401,4.0214,3.993,3.9863,3.9717,3.949,0.0,0.0,0.0,0.0,0.0,0.0,0.0,0.0,0.0,0.0,0.0,0.0,0.0,0.0,0.0,0.0,0.0,0.0,0.0,0.0,0.0,0.0,0.0,0.0,0.0,0.0,0.0,0.0,0.0,0.0,0.0,0.0,0.0,0.0,0.0,0.0,0.0,0.0,0.0,0.0,0.0,0.0,0.0,0.0,0.0,0.0,0.0,0.0,0.0,0.0,2.6566,2.8759,3.0537,3.2008,3.3334,3.4817,3.5765,3.6687,3.829,3.9052,3.949,3.996,3.8905,3.7301,3.5404,0.0,0.0,2.7768,2.6627,2.6018,2.5558,2.7288,2.9557,3.1904,3.4002,3.658,4.0147,4.0762,4.1416,4.2913,4.3201,4.338,4.3567,4.3682,4.3888,4.4189,4.4516,4.4409,4.3821,4.3928,4.3781,4.3308,4.2918,4.2624,4.2477,4.2298,4.2151,4.2004,4.1857,4.1532,4.1092,4.0976,4.0762,4.0512,4.0512,4.0512,4.0512,4.0512,4.0512,4.0512,4.0512,4.0401,4.0254,4.0077,3.993,3.9783,0.0,0.0,0.0,0.0,0.0,0.0,0.0,0.0,0.0,0.0,0.0,0.0,0.0,0.0,0.0,0.0,0.0,0.0,0.0,0.0,0.0,0.0,0.0,0.0,0.0,0.0,0.0,2.1093,0.0,0.0,0.0,0.0,0.0,0.0,2.1093,0.0,0.0,0.0,0.0,0.0,0.0,0.0,0.0,0.0,0.0,0.0,0.0,0.0,0.0,0.0,2.6319,2.912,3.1269,3.3158,3.4804,3.5979,3.698,3.8076,3.9412,4.0,4.0264,4.0508,3.9014,3.6794,3.4349,3.1741,2.896,2.5926,2.509,2.4882,2.4738,2.658,2.8738,3.0581,3.2412,3.499,3.8865,3.964,4.0645,4.2913,4.3461,4.3748,4.4155,4.4182,4.4409,4.495,4.5024,4.4877,4.4409,4.4189,4.3895,4.3495,4.3052,4.2771,4.2691,4.2365,4.2186,4.2186,4.2151,4.1853,4.1385,4.1279,4.0985,4.0578,4.0508,4.0512,4.0512,4.0512,4.0512,4.0512,4.0512,4.0512,4.0471,4.0184,4.0117,4.0077,0.0,0.0,0.0,0.0,0.0,0.0,0.0,0.0,0.0,0.0,0.0,0.0,0.0,0.0,0.0,0.0,0.0,0.0,0.0,0.0,0.0,0.0,0.0,0.0,0.0,0.0,0.0,2.1093,2.1082,0.0,0.0,0.0,0.0,0.0,0.0,2.1093,2.1093,0.0,0.0,0.0,0.0,0.0,0.0,0.0,0.0,0.0,0.0,0.0,0.0,0.0,0.0,2.6734,2.9053,3.2412,3.5511,3.5645,3.7233,3.9169,4.0147,4.0615,4.0811,4.0869,3.8544,3.5752,3.3883,0.0,2.7335,2.5119,2.4471,2.4436,2.4962,2.5892,2.7602,3.0665,0.0,3.4134,3.821,3.9736,4.1163,4.3201,4.3748,4.4182,4.4763,4.481,4.495,4.5237,4.5497,4.527,4.4443,4.4362,4.4109,4.3535,4.3207,4.2945,4.2691,4.2365,4.2186,4.2186,4.1964,4.1822,4.1742,4.1203,4.0909,4.0842,4.0618,4.0512,4.0512,4.0512,4.0512,4.0512,4.0512,4.0512,4.0512,4.0471,4.0441,4.0441,0.0,0.0,0.0,0.0,0.0,0.0,0.0,0.0,0.0,0.0,0.0,0.0,0.0,0.0,0.0,0.0,0.0,0.0,0.0,0.0,0.0,0.0,0.0,0.0,0.0,0.0,0.0,0.0,0.0,0.0,0.0,0.0,0.0,0.0,0.0,2.1093,2.1093,0.0,0.0,0.0,0.0,0.0,0.0,0.0,0.0,0.0,0.0,0.0,2.1526,0.0,0.0,0.0,2.5705,2.8703,0.0,0.0,3.6366,3.8181,4.0,4.0802,4.1092,4.0949,3.8477,3.5591,3.3614,0.0,2.6426,2.4711,2.399,2.3897,2.4658,2.5531,2.6914,2.9272,0.0,3.1246,3.4991,3.6099,3.7811,4.1269,4.229,4.3314,4.4984,4.5131,4.5244,4.5524,4.5644,4.5497,4.4984,4.4797,4.4516,4.4075,4.3607,4.3281,4.3167,4.2726,4.2504,4.2504,4.2191,4.1964,4.179,4.135,4.1052,4.0878,4.0618,4.0512,4.0512,4.0512,4.0512,4.0512,4.0512,4.0512,4.0512,4.0512,4.0512,4.0512,0.0,0.0,0.0,0.0,0.0,0.0,0.0,0.0,0.0,0.0,0.0,0.0,0.0,0.0,0.0,0.0,0.0,0.0,0.0,0.0,0.0,0.0,0.0,0.0,0.0,0.0,0.0,0.0,0.0,0.0,0.0,0.0,2.0605,2.1093,0.0,0.0,0.0,0.0,0.0,0.0,0.0,0.0,0.0,0.0,0.0,0.0,0.0,0.0,0.0,0.0,0.0,0.0,0.0,0.0,0.0,0.0,3.5057,3.7233,3.9386,4.0544,4.1172,4.1056,3.833,3.5191,3.328,2.9432,2.5858,2.4401,2.3741,2.3656,2.4346,2.5304,2.6493,2.7963,2.8412,2.9682,3.2828,3.3868,3.5685,3.9415,4.0471,4.1857,4.4289,4.5057,4.5497,4.5677,4.5711,4.5596,4.5417,4.5171,4.4837,4.4403,4.3895,4.3567,4.338,4.2913,4.2651,4.2544,4.2293,4.2111,4.1897,4.1603,4.1279,4.0985,4.0735,4.0578,4.0512,4.0512,4.0512,4.0512,4.0512,4.0512,4.0512,4.0512,4.0512,4.0512,0.0,0.0,0.0,0.0,0.0,0.0,0.0,0.0,0.0,0.0,0.0,0.0,0.0,0.0,0.0,0.0,0.0,0.0,0.0,0.0,0.0,0.0,0.0,0.0,0.0,0.0,0.0,0.0,0.0,0.0,0.0,0.0,0.0,2.1093,0.0,0.0,0.0,0.0,0.0,0.0,0.0,0.0,0.0,0.0,0.0,0.0,0.0,0.0,0.0,0.0,0.0,0.0,0.0,0.0,0.0,0.0,3.3332,3.6834,3.833,3.9783,4.0976,4.1239,3.7966,3.4324,3.283,2.9125,2.5583,2.4111,2.3803,2.3879,2.4155,2.5189,2.6292,2.7175,2.8532,3.031,3.2677,3.4255,3.5979,3.8065,3.8573,3.9786,4.2477,4.4509,4.5711,4.5711,4.5711,4.5711,4.5711,4.5417,4.5017,4.4409,4.4142,4.3714,4.31,4.2838,4.2544,4.2218,4.2186,4.2186,4.2186,4.1924,4.1603,4.1279,4.1016,4.0766,4.0512,4.0512,4.0512,4.0512,4.0512,4.0512,4.0512,4.0512,4.0512,4.0512,0.0,0.0,0.0,0.0,0.0,0.0,0.0,0.0,0.0,0.0,0.0,0.0,0.0,0.0,0.0,0.0,0.0,0.0,0.0,0.0,0.0,0.0,0.0,0.0,0.0,0.0,0.0,0.0,0.0,0.0,0.0,0.0,0.0,0.0,2.1093,0.0,0.0,0.0,0.0,0.0,0.0,0.0,0.0,0.0,0.0,0.0,0.0,0.0,0.0,0.0,0.0,0.0,0.0,0.0,0.0,0.0,0.0,0.0,3.5178,3.6647,3.7489,3.6981,3.4883,3.2481,3.0835,2.7963,2.5291,2.4071,2.3625,2.3621,2.4115,2.4997,2.6213,2.7909,2.8729,2.9771,3.1506,3.3375,3.5511,3.7998,4.1376,4.3815,4.4656,4.531,4.5711,4.5711,4.5711,4.5711,4.5711,4.5465,4.5131,4.477,4.4436,4.3962,4.338,4.31,4.2838,4.2544,4.2293,4.2186,4.2186,4.1679,4.1385,4.1279,4.0811,4.0578,4.0512,4.0512,4.0512,4.0512,4.0512,4.0512,4.0512,4.0512,4.0512,4.0512,0.0,0.0,0.0,0.0,0.0,0.0,0.0,0.0,0.0,0.0,0.0,0.0,0.0,0.0,0.0,0.0,0.0,0.0,0.0,0.0,0.0,0.0,0.0,0.0,0.0,0.0,0.0,0.0,0.0,0.0,0.0,0.0,0.0,0.0,0.0,0.0,0.0,0.0,0.0,0.0,0.0,0.0,2.0962,0.0,0.0,0.0,0.0,0.0,0.0,0.0,0.0,0.0,0.0,0.0,0.0,0.0,0.0,0.0,0.0,3.4255,3.5311,3.487,3.3173,3.1236,2.9829,2.7355,2.5077,2.4146,2.3701,2.3634,2.4115,2.501,2.6106,2.7422,2.8217,2.9259,3.0835,3.2721,3.5084,3.8105,4.2071,4.4583,4.4583,4.5244,4.5711,4.5711,4.5711,4.5671,4.5564,4.539,4.5057,4.4589,4.4369,4.3968,4.3348,4.3092,4.2798,4.2517,4.2298,4.2151,4.2044,4.167,4.1345,4.1132,4.0802,4.0588,0.0,4.0512,4.0512,4.0512,4.0512,4.0512,4.0512,4.0512,4.0512,4.0512,0.0,0.0,0.0,0.0,0.0,0.0,0.0,0.0,0.0,0.0,0.0,0.0,0.0,0.0,0.0,0.0,0.0,0.0,0.0,0.0,0.0,0.0,0.0,0.0,0.0,0.0,0.0,0.0,0.0,0.0,0.0,0.0,0.0,0.0,0.0,0.0,0.0,0.0,0.0,0.0,0.0,0.0,0.0,0.0,0.0,0.0,0.0,0.0,0.0,0.0,0.0,0.0,0.0,0.0,0.0,0.0,0.0,0.0,0.0,0.0,0.0,0.0,0.0,0.0,0.0,0.0,0.0,0.0,2.3973,2.391,2.4209,2.5189,2.6011,2.6158,2.7349,2.8874,3.0631,3.2572,3.5071,3.8542,4.1314,4.2878,4.2838,4.4583,4.5711,4.5711,4.5711,4.5564,4.5318,4.5277,4.4877,4.4035,4.3968,4.368,4.3092,4.2806,4.2544,4.2186,4.2186,4.2071,4.179,4.1782,4.1456,4.0909,4.0869,4.0735,4.0512,4.0512,4.0512,4.0512,4.0512,4.0512,4.0512,4.0512,4.0512,4.0512,0.0,0.0,0.0,0.0,0.0,0.0,0.0,0.0,0.0,0.0,0.0,0.0,0.0,0.0,0.0,0.0,0.0,0.0,0.0,0.0,0.0,0.0,0.0,0.0,0.0,0.0,0.0,0.0,0.0,0.0,0.0,0.0,0.0,0.0,0.0,0.0,0.0,0.0,0.0,0.0,0.0,0.0,0.0,0.0,0.0,0.0,2.1093,2.1093,0.0,0.0,0.0,0.0,0.0,0.0,0.0,0.0,2.3785,0.0,0.0,0.0,0.0,0.0,0.0,0.0,0.0,0.0,0.0,0.0,0.0,2.4013,2.4761,2.5277,2.6132,2.7722,2.8457,2.9446,3.1233,3.5097,3.8662,4.1092,4.3527,4.4736,4.4075,4.5017,4.5711,4.5711,4.5711,4.5564,4.5318,4.5104,4.469,4.4002,4.3567,4.3127,4.2798,4.2731,4.2544,4.2186,4.2186,4.2071,4.179,4.1532,4.1243,4.0878,4.0685,4.0548,4.0512,4.0512,4.0512,4.0512,4.0512,4.0512,4.0512,4.0512,4.0512,4.0512,0.0,0.0,0.0,0.0,0.0,0.0,0.0,0.0,0.0,0.0,0.0,0.0,0.0,0.0,0.0,0.0,0.0,0.0,0.0,0.0,0.0,0.0,0.0,0.0,0.0,0.0,0.0,0.0,0.0,0.0,0.0,0.0,0.0,0.0,0.0,0.0,0.0,0.0,0.0,0.0,2.1056,0.0,0.0,0.0,0.0,0.0,2.1093,2.1203,0.0,2.1997,2.2291,2.2435,0.0,0.0,0.0,0.0,2.3006,0.0,0.0,0.0,0.0,0.0,0.0,0.0,0.0,0.0,0.0,0.0,0.0,0.0,2.4935,2.5443,2.6232,2.777,2.8556,3.0011,3.2917,3.6433,3.9637,4.2143,4.3895,4.495,4.499,4.5417,4.5711,4.5711,4.5604,4.531,4.491,4.4623,4.4155,4.342,4.3092,4.2838,4.2691,4.2544,4.233,4.2036,4.2036,4.179,4.1376,4.1203,4.0976,4.0725,4.0548,4.0512,4.0512,4.0512,4.0512,4.0512,4.0512,4.0512,4.0512,4.0512,4.0512,4.0512,0.0,0.0,0.0,0.0,0.0,0.0,0.0,0.0,0.0,0.0,0.0,0.0,0.0,0.0,0.0,0.0,0.0,0.0,0.0,0.0,0.0,0.0,0.0,0.0,0.0,0.0,0.0,0.0,0.0,0.0,0.0,0.0,0.0,0.0,0.0,0.0,0.0,0.0,0.0,0.0,2.1015,0.0,0.0,0.0,0.0,0.0,0.0,0.0,0.0,2.2385,2.2693,2.28,2.2909,0.0,0.0,0.0,0.0,0.0,0.0,0.0,0.0,0.0,0.0,0.0,0.0,0.0,0.0,0.0,0.0,0.0,0.0,2.5837,0.0,2.7496,2.8831,3.1132,3.511,3.741,3.9699,4.237,4.36,4.4543,4.5417,4.5596,4.5711,4.5711,4.5457,4.503,4.4443,4.4155,4.3607,4.2731,4.2691,4.2696,4.2624,4.2298,4.1999,4.179,4.175,4.1416,4.0909,4.0909,4.0762,4.0512,4.0512,4.0512,4.0512,4.0512,4.0512,4.0512,4.0512,4.0512,4.0512,4.0512,4.0512,4.0512,0.0,0.0,0.0,0.0,0.0,0.0,0.0,0.0,0.0,0.0,0.0,0.0,0.0,0.0,0.0,0.0,0.0,0.0,0.0,0.0,0.0,0.0,0.0,0.0,0.0,0.0,0.0,0.0,0.0,0.0,0.0,0.0,0.0,0.0,0.0,0.0,0.0,0.0,0.0,0.0,2.108,0.0,0.0,0.0,0.0,0.0,0.0,0.0,0.0,2.1336,2.1726,2.2061,2.159,0.0,0.0,0.0,0.0,0.0,2.4039,0.0,0.0,0.0,0.0,0.0,0.0,0.0,0.0,0.0,0.0,0.0,0.0,2.6887,2.7823,2.8973,3.1396,3.4229,3.737,3.9375,4.1056,4.2517,4.4115,4.4984,4.4616,4.527,4.5711,4.5711,4.5457,4.503,4.4443,4.4155,4.3607,4.2731,4.2691,4.2552,4.2298,4.2004,4.1849,4.179,4.1492,4.1198,4.0909,4.0909,4.0762,4.0512,4.0512,4.0512,4.0512,4.0512,4.0512,4.0512,4.0512,4.0512,4.0512,4.0512,4.0512,4.0512,0.0,0.0,0.0,0.0,0.0,0.0,0.0,0.0,0.0,0.0,0.0,0.0,0.0,0.0,0.0,0.0,0.0,0.0,0.0,0.0,0.0,0.0,0.0,0.0,0.0,0.0,0.0,0.0,0.0,0.0,0.0,0.0,0.0,0.0,0.0,0.0,0.0,0.0,0.0,0.0,0.0,0.0,0.0,0.0,0.0,0.0,0.0,0.0,0.0,0.0,2.2352,2.2632,2.2208,0.0,0.0,0.0,0.0,0.0,2.3407,2.4422,0.0,0.0,0.0,0.0,0.0,0.0,0.0,0.0,0.0,0.0,0.0,2.8083,2.97,3.2171,3.4108,3.6046,3.8212,3.9493,4.0869,4.2699,4.3754,4.4509,4.5057,4.5457,4.5644,4.5497,4.5057,4.4549,4.3968,4.3527,4.302,4.2445,4.2432,4.2298,4.2004,4.1679,4.1532,4.1523,4.1243,4.0949,4.0695,4.0695,4.0618,4.0512,4.0512,4.0512,4.0512,4.0512,4.0512,4.0512,4.0512,4.0512,4.0512,4.0512,4.0512,4.0512,0.0,0.0,0.0,0.0,0.0,0.0,0.0,0.0,0.0,0.0,0.0,0.0,0.0,0.0,0.0,0.0,0.0,0.0,0.0,0.0,0.0,0.0,0.0,0.0,0.0,0.0,0.0,0.0,0.0,0.0,0.0,0.0,0.0,0.0,0.0,0.0,0.0,0.0,0.0,0.0,0.0,0.0,0.0,0.0,0.0,0.0,0.0,0.0,0.0,0.0,0.0,0.0,0.0,0.0,0.0,0.0,2.2365,2.2382,2.3201,2.3946,0.0,0.0,0.0,0.0,0.0,0.0,0.0,0.0,0.0,0.0,0.0,2.9553,3.1787,3.507,3.6513,3.7702,3.9089,3.996,4.1127,4.298,4.3567,4.4256,4.539,4.5564,4.5497,4.5237,4.4663,4.4069,4.3535,4.298,4.2517,4.2106,4.2111,4.1964,4.167,4.1376,4.1198,4.1198,4.0949,4.0695,4.0512,4.0512,4.0512,4.0512,4.0512,4.0512,4.0512,4.0512,4.0512,4.0512,4.0512,4.0512,4.0512,4.0512,4.0512,4.0512,0.0,0.0,0.0,0.0,0.0,0.0,0.0,0.0,0.0,0.0,0.0,0.0,0.0,0.0,0.0,0.0,0.0,0.0,0.0,0.0,0.0,0.0,0.0,0.0,0.0,0.0,0.0,0.0,0.0,0.0,0.0,0.0,0.0,0.0,0.0,0.0,0.0,0.0,0.0,0.0,0.0,0.0,0.0,0.0,0.0,0.0,0.0,0.0,0.0,0.0,0.0,0.0,0.0,0.0,0.0,0.0,0.0,2.3148,2.4548,2.517,0.0,0.0,0.0,0.0,0.0,0.0,0.0,0.0,0.0,0.0,0.0,3.1426,3.3937,3.6378,3.825,3.9786,4.0945,4.2111,4.2987,4.3415,4.4262,4.4843,4.495,4.5171,4.5204,4.495,4.4369,4.3855,4.3527,4.298,4.2437,4.1849,4.1817,4.167,4.1345,4.1065,4.0949,4.0949,4.0655,4.0508,4.0512,4.0512,4.0512,4.0512,4.0512,4.0512,4.0512,4.0512,4.0512,4.0512,4.0512,4.0512,4.0512,4.0512,4.0512,4.0512,0.0,0.0,0.0,0.0,0.0,0.0,0.0,0.0,0.0,0.0,0.0,0.0,0.0,0.0,0.0,0.0,0.0,0.0,0.0,0.0,0.0,0.0,0.0,0.0,0.0,0.0,0.0,0.0,0.0,0.0,0.0,0.0,0.0,0.0,0.0,0.0,0.0,0.0,0.0,0.0,0.0,0.0,0.0,0.0,0.0,0.0,0.0,0.0,0.0,0.0,0.0,0.0,0.0,0.0,0.0,0.0,0.0,2.3067,2.3781,2.4609,0.0,0.0,0.0,0.0,0.0,0.0,0.0,0.0,0.0,0.0,0.0,3.4175,3.5912,3.7742,3.949,4.1016,4.2031,4.2846,4.3527,4.4002,4.4556,4.491,4.491,4.481,4.4616,4.4369,4.3781,4.3314,4.302,4.2619,4.2223,4.1822,4.179,4.1563,4.1052,4.0945,4.0832,4.0655,4.0538,4.0512,4.0512,4.0512,4.0512,4.0512,4.0512,4.0512,4.0512,4.0512,4.0512,4.0512,4.0512,4.0512,4.0512,4.0512,4.0512,4.0512,0.0,0.0,0.0,0.0,0.0,0.0,0.0,0.0,0.0,0.0,0.0,0.0,0.0,0.0,0.0,0.0,0.0,0.0,0.0,0.0,0.0,0.0,0.0,0.0,0.0,0.0,0.0,0.0,0.0,0.0,0.0,0.0,0.0,0.0,0.0,0.0,0.0,0.0,0.0,0.0,0.0,0.0,0.0,0.0,0.0,0.0,0.0,0.0,0.0,0.0,0.0,0.0,0.0,0.0,0.0,0.0,0.0,0.0,2.3434,2.4115,0.0,0.0,0.0,0.0,0.0,0.0,0.0,0.0,0.0,0.0,0.0,0.0,3.6968,3.8357,4.0264,4.1857,4.2584,4.3247,4.3781,4.4082,4.4483,4.4663,4.4476,4.4369,4.4109,4.3754,4.3247,4.2846,4.2552,4.2258,4.1897,4.1523,4.1528,4.1269,4.0762,4.0762,4.0685,4.0512,4.0512,4.0512,4.0512,4.0512,4.0512,4.0512,4.0512,4.0512,4.0512,4.0512,4.0512,4.0512,4.0512,4.0512,4.0512,4.0512,4.0512,4.0512,0.0,0.0,0.0,0.0,0.0,0.0,0.0,0.0,0.0,0.0,0.0,0.0,0.0,0.0,0.0,0.0,0.0,0.0,0.0,0.0,0.0,0.0,0.0,0.0,0.0,0.0,0.0,0.0,0.0,0.0,0.0,0.0,0.0,0.0,0.0,0.0,0.0,0.0,0.0,0.0,0.0,0.0,0.0,0.0,0.0,0.0,0.0,0.0,0.0,0.0,0.0,0.0,0.0,0.0,0.0,0.0,2.3986,2.4142,2.3866,2.3999,0.0,0.0,0.0,0.0,0.0,0.0,0.0,0.0,0.0,3.4898,3.5511,3.6139,3.6901,3.8133,4.0512,4.2325,4.2651,4.3453,4.3855,4.3535,4.4042,4.4149,4.3561,4.3788,4.3754,4.3127,4.2838,4.2544,4.2218,4.1924,4.1523,4.0918,4.0909,4.0762,4.0512,4.0512,4.0512,4.0512,4.0512,4.0512,4.0512,4.0512,4.0512,4.0512,4.0512,4.0512,4.0512,4.0512,4.0512,4.0512,4.0512,4.0512,4.0512,4.0512,4.0512,4.0512,0.0,0.0,0.0,0.0,0.0,0.0,0.0,0.0,0.0,0.0,0.0,0.0,0.0,0.0,0.0,0.0,0.0,0.0,0.0,0.0,0.0,0.0,0.0,0.0,0.0,0.0,0.0,0.0,0.0,0.0,0.0,0.0,0.0,0.0,0.0,0.0,0.0,0.0,0.0,0.0,0.0,0.0,0.0,0.0,0.0,0.0,0.0,0.0,0.0,0.0,0.0,0.0,0.0,0.0,0.0,0.0,2.3808,2.4088,2.3594,0.0,0.0,2.614,0.0,0.0,0.0,0.0,0.0,0.0,3.7235,3.6766,3.7382,3.7781,3.8288,3.9092,4.0735,4.2183,4.2873,4.338,4.3714,4.3861,4.3788,4.3714,4.3527,4.3247,4.2913,4.2512,4.2218,4.1924,4.1568,4.1492,4.1279,4.0909,4.0909,4.0762,4.0512,4.0512,4.0512,4.0512,4.0512,4.0512,4.0512,4.0512,4.0512,4.0481,4.0254,4.0294,4.0512,4.0512,4.0512,4.0512,4.0512,4.0512,4.0512,4.0512,4.0512,4.0512,0.0,0.0,0.0,0.0,0.0,0.0,0.0,0.0,0.0,0.0,0.0,0.0,0.0,0.0,0.0,0.0,0.0,0.0,0.0,0.0,0.0,0.0,0.0,0.0,0.0,0.0,0.0,0.0,0.0,0.0,0.0,0.0,0.0,0.0,0.0,0.0,0.0,0.0,0.0,0.0,0.0,0.0,0.0,0.0,0.0,0.0,0.0,0.0,0.0,0.0,0.0,0.0,0.0,0.0,0.0,2.3309,2.3563,2.3875,2.3977,0.0,0.0,2.7442,2.9414,3.1767,3.5017,0.0,0.0,0.0,3.8624,3.8076,3.8544,3.8758,3.9062,3.9666,4.0985,4.2191,4.2846,4.3167,4.342,4.3607,4.3461,4.3314,4.3207,4.2873,4.2517,4.2071,4.1897,4.1603,4.1172,4.1132,4.1025,4.0766,4.0735,4.0655,4.0512,4.0512,4.0431,4.0294,4.0431,4.0361,4.0147,4.0391,4.0512,4.0468,4.0147,4.0117,4.0294,4.0294,4.0361,4.0481,4.0364,4.0361,4.0468,4.0364,4.0391,4.0512,0.0,0.0,0.0,0.0,0.0,0.0,0.0,0.0,0.0,0.0,0.0,0.0,0.0,0.0,0.0,0.0,0.0,0.0,0.0,0.0,0.0,0.0,0.0,0.0,0.0,0.0,0.0,0.0,0.0,0.0,0.0,0.0,0.0,0.0,0.0,0.0,0.0,0.0,0.0,0.0,0.0,0.0,0.0,0.0,0.0,0.0,0.0,0.0,0.0,0.0,0.0,0.0,0.0,0.0,2.2248,2.3029,2.3323,2.363,2.4802,0.0,0.0,2.9027,3.1005,0.0,3.6755,3.8651,3.9813,4.0324,3.9599,3.8942,3.9207,3.9276,3.946,4.0077,4.1305,4.2325,4.2651,4.2918,4.306,4.31,4.306,4.2913,4.2731,4.2651,4.237,4.179,4.1742,4.1456,4.0878,4.0869,4.0762,4.0512,4.0512,4.0512,4.0512,4.0512,4.0334,3.9997,4.0324,4.0147,3.964,4.0187,4.0431,4.0364,4.0077,3.997,3.997,3.997,4.0144,4.0431,4.0117,4.0187,4.0431,4.0144,4.0254,4.0512,0.0,0.0,0.0,0.0,0.0,0.0,0.0,0.0,0.0,0.0,0.0,0.0,0.0,0.0,0.0,0.0,0.0,0.0,0.0,0.0,0.0,0.0,0.0,0.0,0.0,0.0,0.0,0.0,0.0,0.0,0.0,0.0,0.0,0.0,0.0,0.0,0.0,0.0,0.0,0.0,0.0,0.0,0.0,0.0,0.0,0.0,0.0,0.0,0.0,0.0,0.0,0.0,2.182,2.2331,2.2746,2.2916,2.346,2.4168,0.0,2.5644,0.0,0.0,3.4067,3.7224,3.8435,3.9559,4.0217,3.9853,3.996,4.0187,4.0468,4.0518,4.0691,4.131,4.1857,4.2325,4.2651,4.2763,4.2878,4.306,4.2686,4.2472,4.2691,4.2258,4.1817,4.1456,4.1198,4.0949,4.0618,4.0588,4.0548,4.0512,4.0512,4.0512,4.0512,4.0512,4.0334,3.9997,4.0077,3.9933,3.9599,3.996,3.985,3.9423,3.9596,3.9677,3.9677,3.9677,3.9853,4.0107,4.0037,4.0037,4.0147,4.0321,4.0441,4.0512,0.0,0.0,0.0,0.0,0.0,0.0,0.0,0.0,0.0,0.0,0.0,0.0,0.0,0.0,0.0,0.0,0.0,0.0,0.0,0.0,0.0,0.0,0.0,0.0,0.0,0.0,0.0,0.0,0.0,0.0,0.0,0.0,0.0,0.0,0.0,0.0,0.0,0.0,0.0,0.0,0.0,0.0,0.0,0.0,0.0,0.0,0.0,0.0,0.0,0.0,0.0,0.0,0.0,0.0,2.2154,2.2733,2.3104,0.0,0.0,0.0,0.0,3.2703,0.0,3.8662,3.9383,4.004,4.0401,4.011,4.0284,4.0538,4.0685,4.0802,4.0985,4.131,4.1742,4.2071,4.225,4.2365,4.2512,4.2659,4.2298,4.2071,4.225,4.1849,4.1425,4.1132,4.0989,4.0762,4.0512,4.0512,4.0431,4.0254,4.0254,4.0217,4.0067,4.0067,3.9893,3.9567,3.9746,3.9637,3.9383,3.9677,3.957,3.91,3.9276,3.9343,3.9343,3.9343,3.953,3.9783,3.9637,3.9677,3.9823,4.0,4.0147,4.0294,0.0,0.0,0.0,0.0,0.0,0.0,0.0,0.0,0.0,0.0,0.0,0.0,0.0,0.0,0.0,0.0,0.0,0.0,0.0,0.0,0.0,0.0,0.0,0.0,0.0,0.0,0.0,0.0,0.0,0.0,0.0,0.0,0.0,0.0,0.0,0.0,0.0,0.0,0.0,0.0,0.0,0.0,0.0,0.0,0.0,0.0,0.0,0.0,0.0,0.0,0.0,0.0,0.0,0.0,2.1456,2.2452,2.2622,0.0,0.0,0.0,3.0172,3.4976,3.7529,3.9062,3.9823,4.0254,4.0512,4.0512,4.0512,4.0512,4.0548,4.0762,4.0909,4.0945,4.139,4.171,4.171,4.1893,4.204,4.204,4.1857,4.171,4.171,4.1425,4.1132,4.0918,4.0869,4.0735,4.0512,4.0441,4.0294,3.9997,3.997,3.9823,3.9599,3.9599,3.9423,3.91,3.9346,3.9306,3.902,3.9316,3.9276,3.902,3.902,3.906,3.91,3.906,3.9207,3.9493,3.9207,3.9276,3.9533,3.964,3.9786,4.0,0.0,0.0,0.0,0.0,0.0,0.0,0.0,0.0,0.0,0.0,0.0,0.0,0.0,0.0,0.0,0.0,0.0,0.0,0.0,0.0,0.0,0.0,0.0,0.0,0.0,0.0,0.0,0.0,0.0,0.0,0.0,0.0,0.0,0.0,0.0,0.0,0.0,0.0,0.0,0.0,0.0,0.0,0.0,0.0,0.0,0.0,0.0,0.0,0.0,0.0,2.1981,0.0,0.0,0.0,2.1914,2.2074,2.2448,0.0,0.0,0.0,3.3024,3.5752,3.7998,3.9559,3.993,4.0254,4.0512,4.0512,4.0512,4.0578,4.0802,4.0869,4.0989,4.1198,4.1305,4.1385,4.1385,4.1381,4.1425,4.1425,4.1385,4.1385,4.1385,4.1122,4.0949,4.0909,4.0695,4.0538,4.0512,4.0214,4.0037,3.9997,3.9786,3.964,3.9599,3.9599,3.9423,3.91,3.8916,3.8809,3.8769,3.8809,3.8809,3.8769,3.8769,3.8886,3.9089,3.8836,3.8916,3.9169,3.9129,3.9127,3.9236,3.9743,3.9823,3.9746,0.0,0.0,0.0,0.0,0.0,0.0,0.0,0.0,0.0,0.0,0.0,0.0,0.0,0.0,0.0,0.0,0.0,0.0,0.0,0.0,0.0,0.0,0.0,0.0,0.0,0.0,0.0,0.0,0.0,0.0,0.0,2.4569,2.5336,0.0,0.0,0.0,0.0,0.0,0.0,0.0,0.0,0.0,0.0,0.0,0.0,0.0,0.0,0.0,0.0,0.0,0.0,2.2205,2.2101,0.0,0.0,0.0,2.2542,2.3549,2.6493,2.9833,3.3213,3.6246,3.8076,3.9306,4.0107,4.0391,4.0441,4.0254,4.0361,4.0538,4.0655,4.0685,4.0725,4.0842,4.0989,4.1096,4.1096,4.1198,4.1305,4.1305,4.1172,4.1096,4.1096,4.0842,4.0685,4.0685,4.0578,4.0431,4.0224,4.0077,3.985,3.95,3.9383,3.9236,3.9089,3.9089,3.9022,3.8876,3.8582,3.8544,3.8689,3.8689,3.8689,3.8689,3.8689,3.8769,3.8876,3.8758,3.8769,3.8876,3.8876,3.8876,3.8913,3.9343,3.953,3.9666,0.0,0.0,0.0,0.0,0.0,0.0,0.0,0.0,0.0,0.0,0.0,0.0,0.0,0.0,0.0,0.0,0.0,0.0,0.0,0.0,0.0,0.0,0.0,0.0,0.0,0.0,0.0,0.0,0.0,0.0,2.5323,2.5403,2.6279,0.0,2.6293,0.0,0.0,0.0,0.0,0.0,0.0,0.0,0.0,0.0,0.0,0.0,0.0,0.0,0.0,0.0,0.0,0.0,2.2428,2.2255,0.0,0.0,0.0,2.371,2.7341,2.9797,3.2158,3.5631,3.7448,3.8691,3.9853,4.0254,4.0334,4.0144,4.0334,4.0471,4.0391,4.0441,4.0512,4.0512,4.0655,4.0802,4.0802,4.0976,4.1092,4.1092,4.0918,4.0802,4.0802,4.0615,4.0512,4.0512,4.0512,4.0364,4.004,3.993,3.9647,3.9129,3.8982,3.8836,3.8689,3.8622,3.8622,3.8689,3.8426,3.8437,3.8689,3.8689,3.8689,3.8689,3.8689,3.8689,3.8689,3.8689,3.8689,3.8689,3.8689,3.8689,3.8729,3.8993,3.9276,3.9533,0.0,0.0,0.0,0.0,0.0,0.0,0.0,0.0,0.0,0.0,0.0,0.0,0.0,0.0,0.0,0.0,0.0,0.0,0.0,0.0,0.0,0.0,0.0,0.0,0.0,0.0,0.0,0.0,0.0,0.0,2.5957,2.6219,2.7863,3.0488,2.8198,2.6847,2.6146,0.0,0.0,0.0,0.0,0.0,0.0,0.0,0.0,0.0,0.0,0.0,0.0,0.0,0.0,0.0,0.0,0.0,0.0,0.0,0.0,0.0,2.5871,2.7808,2.9958,3.3253,3.5805,3.7782,3.8916,3.9607,4.0117,4.0401,4.0481,4.0401,4.0077,4.0294,4.0512,4.0512,4.0512,4.0508,4.0508,4.0538,4.0538,4.0538,4.0538,4.0508,4.0508,4.0512,4.0512,4.0512,4.0512,4.0364,4.004,3.9743,3.9463,3.91,3.8611,3.8466,3.8689,3.8437,3.8437,3.8689,3.8426,3.8437,3.8689,3.8689,3.8689,3.8689,3.8689,3.8689,3.8689,3.8689,3.8689,3.8689,3.8689,3.8689,3.8729,3.8993,3.91,3.9207,0.0,0.0,0.0,0.0,0.0,0.0,0.0,0.0,0.0,0.0,0.0,0.0,0.0,0.0,0.0,0.0,0.0,0.0,0.0,0.0,0.0,0.0,0.0,0.0,0.0,0.0,0.0,0.0,0.0,2.2468,2.5098,2.5598,2.7094,2.9325,2.7917,2.7061,2.6507,2.4062,0.0,0.0,0.0,0.0,0.0,0.0,0.0,0.0,0.0,0.0,0.0,0.0,0.0,0.0,0.0,0.0,0.0,0.0,0.0,2.4093,2.5697,2.7288,2.9174,3.2024,3.4095,3.5778,3.7127,3.8328,3.9159,3.9094,3.9533,3.9813,3.949,3.9997,4.0431,4.0214,4.0361,4.0512,4.0512,4.0512,4.0512,4.0512,4.0512,4.0431,4.0184,4.0361,4.0334,3.9963,4.008,3.997,3.9463,3.9313,3.9062,3.8613,3.8584,3.8582,3.8689,3.8426,3.8426,3.8689,3.8426,3.8437,3.8689,3.8689,3.8689,3.8689,3.8689,3.8689,3.8689,3.8689,3.8689,3.8689,3.8689,3.8689,3.8731,3.8809,3.9089,3.9463,0.0,0.0,0.0,0.0,0.0,0.0,0.0,0.0,0.0,0.0,0.0,0.0,0.0,0.0,0.0,0.0,0.0,0.0,0.0,0.0,0.0,0.0,0.0,0.0,0.0,0.0,0.0,0.0,0.0,0.0,0.0,0.0,2.652,2.8551,2.7382,0.0,0.0,0.0,0.0,2.3968,0.0,0.0,2.3669,0.0,0.0,0.0,0.0,0.0,0.0,0.0,0.0,0.0,0.0,0.0,0.0,0.0,0.0,0.0,2.5296,2.6526,2.8232,3.0872,3.2332,3.3708,3.5872,3.7048,3.7754,3.8065,3.8758,3.9239,3.9022,3.964,4.0107,3.989,4.004,4.0217,4.0217,4.0217,4.0217,4.0217,4.0217,4.0107,3.9893,4.0067,4.004,3.964,3.9786,3.9637,3.9127,3.91,3.8836,3.8319,3.8477,3.8584,3.8584,3.8399,3.8426,3.8689,3.8426,3.8437,3.8689,3.8689,3.8689,3.8689,3.8689,3.8689,3.8689,3.8689,3.8689,3.8689,3.8689,3.8689,3.8731,3.8809,3.9169,3.9599,0.0,0.0,0.0,0.0,0.0,0.0,0.0,0.0,0.0,0.0,0.0,0.0,0.0,0.0,0.0,0.0,0.0,0.0,0.0,0.0,0.0,0.0,0.0,0.0,0.0,0.0,0.0,0.0,0.0,0.0,0.0,0.0,2.6266,0.0,2.676,2.7282,2.9294,0.0,2.6921,2.7021,0.0,2.4048,2.5203,0.0,0.0,0.0,2.6613,2.626,0.0,2.4583,0.0,0.0,0.0,0.0,0.0,0.0,0.0,0.0,0.0,0.0,0.0,2.9637,3.0497,3.161,3.511,3.5685,3.5898,3.738,3.8183,3.8622,3.8662,3.9159,3.9559,3.9559,3.9559,3.9599,3.9599,3.9599,3.9599,3.9599,3.9599,3.9599,3.9599,3.9599,3.9599,3.9559,3.9559,3.9423,3.91,3.906,3.8836,3.8319,3.8279,3.8279,3.8292,3.8292,3.8426,3.8689,3.8426,3.8437,3.8689,3.8689,3.8689,3.8689,3.8689,3.8689,3.8689,3.8689,3.8689,3.8689,3.8689,3.8689,3.8729,3.8993,3.9316,3.964,0.0,0.0,0.0,0.0,0.0,0.0,0.0,0.0,0.0,0.0,0.0,0.0,0.0,0.0,0.0,0.0,0.0,0.0,0.0,0.0,0.0,0.0,0.0,0.0,0.0,0.0,0.0,0.0,0.0,0.0,0.0,0.0,0.0,0.0,2.6024,2.6479,2.7141,2.5112,0.0,0.0,2.4387,2.4628,0.0,0.0,0.0,0.0,0.0,2.6647,2.6433,0.0,2.6045,2.5398,0.0,0.0,0.0,0.0,0.0,0.0,2.4572,0.0,0.0,0.0,0.0,0.0,3.0912,3.1891,3.2961,3.4871,3.5765,3.6473,3.7555,3.8034,3.8288,3.8288,3.9025,3.9599,3.9599,3.9599,3.9599,3.9599,3.9599,3.949,3.9276,3.9463,3.9412,3.8982,3.8942,3.8916,3.8838,3.8408,3.8181,3.8292,3.7891,3.7851,3.8292,3.8292,3.8426,3.8689,3.8622,3.8622,3.8689,3.8689,3.8689,3.8689,3.8689,3.8689,3.8689,3.8689,3.8689,3.8689,3.8689,3.8689,3.8731,3.8769,3.9159,3.9599,0.0,0.0,0.0,0.0,0.0,0.0,0.0,0.0,0.0,0.0,0.0,0.0,0.0,0.0,0.0,0.0,0.0,0.0,0.0,0.0,0.0,0.0,0.0,0.0,0.0,0.0,0.0,0.0,0.0,0.0,0.0,0.0,0.0,0.0,0.0,0.0,0.0,0.0,0.0,0.0,2.5363,0.0,0.0,2.7034,2.7409,0.0,0.0,0.0,2.843,2.811,2.7362,0.0,0.0,0.0,0.0,0.0,0.0,0.0,0.0,0.0,0.0,0.0,0.0,0.0,2.9428,3.0087,3.0906,3.3133,3.4148,3.5017,3.6273,3.6901,3.7274,3.7422,3.8143,3.8731,3.8838,3.8836,3.8905,3.9054,3.8945,3.8838,3.8769,3.8838,3.8758,3.8544,3.8544,3.8544,3.8544,3.7956,3.7782,3.8076,3.7635,3.7624,3.8105,3.824,3.8399,3.8544,3.8651,3.8689,3.8689,3.8689,3.8689,3.8689,3.8689,3.8689,3.8689,3.8689,3.8689,3.8689,3.8689,3.8769,3.8876,3.8876,3.9236,3.9786,0.0,0.0,0.0,0.0,0.0,0.0,0.0,0.0,0.0,0.0,0.0,0.0,0.0,0.0,0.0,0.0,0.0,0.0,0.0,0.0,0.0,0.0,0.0,0.0,0.0,0.0,0.0,0.0,0.0,0.0,0.0,0.0,0.0,0.0,0.0,0.0,0.0,0.0,0.0,2.6319,2.6613,2.7501,0.0,0.0,2.9936,3.0511,3.0805,3.0915,3.0768,2.9597,2.8249,0.0,0.0,0.0,0.0,0.0,2.5317,0.0,0.0,0.0,0.0,0.0,2.7122,0.0,2.9356,2.9392,2.953,3.1764,3.2891,3.3813,3.4776,3.5672,3.6299,3.6473,3.6901,3.7342,3.7742,3.7781,3.7929,3.8212,3.7996,3.7956,3.8212,3.7996,3.7956,3.8212,3.8281,3.8281,3.8214,3.7702,3.7529,3.7742,3.7489,3.7489,3.7754,3.8076,3.8252,3.8292,3.8584,3.8689,3.8689,3.8689,3.8689,3.8689,3.8689,3.8689,3.8689,3.8689,3.8689,3.8689,3.8689,3.8876,3.91,3.91,3.949,3.9997,0.0,0.0,0.0,0.0,0.0,0.0,0.0,0.0,0.0,0.0,0.0,0.0,0.0,0.0,0.0,0.0,0.0,0.0,0.0,0.0,0.0,0.0,0.0,0.0,0.0,0.0,0.0,0.0,0.0,0.0,0.0,0.0,0.0,0.0,0.0,0.0,0.0,0.0,0.0,2.5705,2.6018,0.0,2.9352,2.97,3.0318,3.1102,3.142,3.165,3.1704,3.0768,2.9611,2.8396,0.0,0.0,0.0,0.0,0.0,0.0,0.0,0.0,0.0,0.0,0.0,0.0,2.7001,2.763,2.8612,2.9504,3.0434,3.1554,3.3145,3.4148,3.4577,3.415,3.5124,3.6366,3.7635,3.7781,3.7821,3.7889,3.8076,3.8103,3.7929,3.8076,3.8103,3.7929,3.8145,3.8093,3.7597,3.7676,3.7635,3.749,3.7167,3.7155,3.7477,3.7771,3.8036,3.8292,3.8584,3.8689,3.8689,3.8689,3.8689,3.8689,3.8689,3.8689,3.8689,3.8689,3.8689,3.8689,3.8689,3.8876,3.91,3.91,3.949,3.9997,0.0,0.0,0.0,0.0,0.0,0.0,0.0,0.0,0.0,0.0,0.0,0.0,0.0,0.0,0.0,0.0,0.0,0.0,0.0,0.0,0.0,0.0,0.0,0.0,0.0,0.0,0.0,0.0,0.0,0.0,0.0,0.0,0.0,0.0,0.0,0.0,0.0,0.0,2.4636,2.5451,2.7235,0.0,3.0043,3.0912,3.1597,3.2118,3.2289,3.2436,3.2318,3.0849,3.0238,0.0,0.0,2.7716,2.781,0.0,2.7061,2.7235,0.0,0.0,0.0,2.7415,0.0,0.0,0.0,2.7095,2.7449,2.8743,2.9032,2.9548,3.1156,3.1824,3.2241,3.2692,3.3627,3.483,3.6299,3.6767,3.698,3.7127,3.7301,3.7343,3.7168,3.7422,3.7595,3.7595,3.7771,3.7702,3.741,3.7382,3.7274,3.7155,3.698,3.698,3.7155,3.7448,3.7676,3.7851,3.829,3.8504,3.8504,3.8651,3.8689,3.8689,3.8689,3.8689,3.8689,3.8689,3.8689,3.8689,3.8689,3.8985,3.9346,3.9169,3.9596,4.0214,0.0,0.0,0.0,0.0,0.0,0.0,0.0,0.0,0.0,0.0,0.0,0.0,0.0,0.0,0.0,0.0,0.0,0.0,0.0,0.0,0.0,0.0,0.0,2.0804,0.0,0.0,0.0,0.0,0.0,0.0,0.0,0.0,0.0,0.0,0.0,0.0,0.0,0.0,0.0,2.5858,0.0,2.9993,3.0297,3.1845,3.2634,3.2944,3.3118,3.3171,3.2891,3.0969,3.0745,3.0902,2.8612,2.8826,0.0,0.0,0.0,0.0,0.0,0.0,0.0,0.0,0.0,2.7342,0.0,0.0,0.0,2.8222,2.8062,2.8083,2.9339,2.9673,3.0051,3.1089,3.2038,3.3026,3.4108,3.4896,3.5565,3.6179,3.6299,3.634,3.634,3.6473,3.6726,3.7116,3.7156,3.7168,3.7222,3.7088,3.698,3.6913,3.6913,3.6913,3.6913,3.7235,3.741,3.741,3.7958,3.8212,3.8212,3.8475,3.8624,3.8622,3.8691,3.8689,3.8689,3.8689,3.8689,3.8689,3.8689,3.9022,3.9493,3.9276,3.9717,4.0361,0.0,0.0,0.0,0.0,0.0,0.0,0.0,0.0,0.0,0.0,0.0,0.0,0.0,0.0,0.0,0.0,0.0,0.0,1.3642,0.0,0.0,0.0,0.0,0.0,2.0737,0.0,0.0,0.0,0.0,0.0,0.0,0.0,0.0,0.0,2.2007,0.0,0.0,0.0,2.5384,0.0,2.9232,2.9597,0.0,3.1139,3.2152,3.2741,3.3519,3.3813,3.3613,0.0,3.1744,3.146,0.0,2.9989,2.9811,2.9406,0.0,0.0,0.0,0.0,0.0,0.0,2.9459,0.0,2.6867,0.0,2.8003,2.6907,0.0,2.7829,2.8312,0.0,0.0,2.8297,2.9984,3.1303,3.0979,3.1874,3.3253,3.5124,3.5578,3.5698,3.5698,3.5498,3.5618,3.6206,3.6246,3.6367,3.658,3.7075,3.7195,3.6913,3.6913,3.6913,3.6913,3.7235,3.741,3.741,3.7702,3.7849,3.7861,3.8212,3.8348,3.8359,3.8582,3.8689,3.8689,3.8689,3.8689,3.8689,3.8689,3.8876,3.9196,3.9452,3.9743,4.0077,0.0,0.0,0.0,0.0,0.0,0.0,0.0,0.0,0.0,0.0,0.0,0.0,0.0,0.0,0.0,0.0,0.0,1.203,0.0,0.0,0.0,0.0,0.0,0.0,0.0,0.0,0.0,0.0,2.1283,0.0,0.0,0.0,0.0,0.0,2.2525,0.0,2.3999,0.0,2.5571,0.0,0.0,0.0,0.0,3.2048,3.3131,3.3425,3.3948,3.3908,3.3454,0.0,3.2155,0.0,0.0,0.0,0.0,0.0,0.0,0.0,0.0,0.0,0.0,0.0,0.0,0.0,2.7657,0.0,2.7061,2.6941,0.0,0.0,0.0,0.0,0.0,0.0,2.8938,2.986,3.0323,3.0805,3.1821,3.3706,3.3708,3.3829,3.4549,3.4509,3.4709,3.5297,3.5311,3.5485,3.5939,3.654,3.6873,3.6913,3.6754,3.6726,3.6913,3.6873,3.6968,3.7128,3.7422,3.7635,3.7809,3.8145,3.8399,3.8544,3.8651,3.8689,3.8689,3.8689,3.8689,3.8689,3.8689,3.8876,3.914,3.9493,3.9786,4.0037,0.0,0.0,0.0,0.0,0.0,0.0,0.0,0.0,0.0,0.0,0.0,0.0,1.3173,1.3091,0.0,0.0,1.2802,1.3519,0.0,0.0,1.7984,1.9516,2.0705,0.0,0.0,0.0,0.0,0.0,0.0,0.0,0.0,0.0,0.0,0.0,0.0,2.3981,2.4561,0.0,2.6553,2.7816,2.8978,3.0047,3.1129,3.304,3.3855,3.4042,3.4216,3.4016,3.3509,3.2732,3.269,0.0,3.2235,3.2115,3.2128,0.0,0.0,0.0,3.1109,0.0,0.0,0.0,0.0,0.0,0.0,0.0,0.0,2.7542,2.7215,0.0,0.0,0.0,0.0,0.0,0.0,2.8965,2.9704,2.9731,3.031,3.2075,3.2262,3.269,3.3774,3.3693,3.3826,3.4495,3.419,3.4403,3.5311,3.5872,3.6353,3.6766,3.6659,3.6659,3.6806,3.6659,3.6659,3.6806,3.7128,3.7354,3.7567,3.7889,3.8212,3.8464,3.8544,3.8622,3.8689,3.8689,3.8689,3.8689,3.8689,3.8806,3.902,3.9343,3.9637,3.993,0.0,1.0132,0.0,0.0,0.0,0.0,0.0,0.0,0.0,0.0,0.0,0.0,0.0,0.0,0.0,0.0,0.0,1.6453,1.7865,0.0,2.0573,2.1017,2.1641,2.1579,0.0,0.0,0.0,0.0,0.0,0.0,0.0,0.0,0.0,0.0,0.0,2.5218,2.636,2.7241,2.893,3.1079,3.146,3.2786,3.4444,0.0,3.3762,3.4283,3.4296,0.0,0.0,3.3549,3.3574,3.3734,3.3158,0.0,0.0,0.0,0.0,0.0,0.0,0.0,0.0,3.0885,0.0,0.0,0.0,0.0,2.885,0.0,0.0,3.015,2.986,0.0,0.0,0.0,0.0,0.0,0.0,2.7984,2.8465,3.0279,3.1724,3.2942,3.3801,3.3156,3.3009,3.3867,3.2839,3.2946,3.4722,3.5097,3.5631,3.6473,3.6766,3.6766,3.6513,3.6766,3.6766,3.6513,3.6806,3.6912,3.6953,3.7275,3.7597,3.7849,3.8172,3.8466,3.8689,3.8689,3.8689,3.8689,3.8689,3.8731,3.8758,3.9022,3.9346,3.9637,0.0,0.0,0.0,0.0,0.0,0.0,0.0,1.1712,0.0,0.0,0.0,0.0,0.0,1.4719,1.5348,0.0,0.0,1.8838,2.1444,2.1985,0.0,0.0,0.0,2.3313,0.0,0.0,0.0,0.0,0.0,0.0,0.0,0.0,0.0,0.0,0.0,2.5379,0.0,0.0,0.0,0.0,0.0,3.3654,3.5231,3.4511,3.4403,3.4643,3.483,3.4643,3.4323,3.4536,3.4135,3.3641,3.4054,3.3586,3.2891,3.2946,3.304,3.312,3.312,3.3719,3.388,3.1984,3.1223,3.0448,2.8577,2.8596,0.0,0.0,0.0,0.0,0.0,0.0,0.0,0.0,0.0,0.0,0.0,2.7329,2.7642,2.9032,3.035,3.1166,3.1249,3.1353,3.1597,3.2091,3.142,3.1821,3.3761,3.4349,3.4991,3.5872,3.6206,3.6313,3.6246,3.65,3.6579,3.65,3.6766,3.702,3.7235,3.7342,3.7664,3.8145,3.8252,3.8437,3.8689,3.8689,3.8689,3.8689,3.8689,3.8689,3.8729,3.8993,3.9316,3.9666,1.0699,0.0,0.0,0.0,0.0,0.0,0.0,0.0,0.0,0.0,1.4238,0.0,1.5523,0.0,1.7629,0.0,2.0829,2.238,2.3777,2.4817,0.0,2.5253,2.517,0.0,0.0,0.0,0.0,0.0,0.0,2.2846,0.0,0.0,0.0,0.0,0.0,2.5979,2.7108,2.9032,3.043,0.0,0.0,3.4416,3.5551,3.5071,3.4951,3.5083,3.4937,3.471,3.4509,3.467,3.4429,3.4108,3.4482,3.404,3.3424,3.3534,3.3521,3.348,3.3561,3.4082,3.4308,3.2906,3.2211,3.1476,3.002,3.0087,3.0354,3.0074,3.1032,3.1784,0.0,0.0,0.0,0.0,0.0,0.0,0.0,2.6881,2.7167,2.8163,2.9232,2.998,3.0207,3.0171,3.0265,3.0558,2.9989,3.0404,3.2249,3.3187,3.411,3.5111,3.5859,3.6206,3.6099,3.6473,3.6579,3.65,3.6766,3.702,3.7235,3.7235,3.7555,3.8103,3.8103,3.833,3.8689,3.8689,3.8689,3.8689,3.8689,3.8689,3.8729,3.8886,3.9236,3.9709,0.0,0.0,0.0,0.0,1.0985,0.0,0.0,0.0,1.3404,0.0,1.4869,1.5676,1.6307,1.8695,2.0302,2.043,2.4875,2.6943,2.5155,2.7918,0.0,0.0,2.6527,2.6286,2.4853,0.0,0.0,0.0,0.0,0.0,0.0,0.0,0.0,0.0,2.5739,0.0,2.7536,3.0702,3.2438,3.3171,3.4348,3.5137,3.5591,3.5311,3.5391,3.5511,3.4644,3.4549,3.4722,3.4147,3.4508,3.507,3.4523,3.4523,3.4669,3.4121,3.4122,3.4282,3.4002,3.4148,3.4216,3.3654,3.3253,3.2824,3.1995,3.2449,3.2971,3.2701,3.3332,3.3908,0.0,0.0,0.0,0.0,0.0,0.0,0.0,2.664,2.6994,2.7602,2.8369,2.933,3.0528,2.9597,2.905,2.9374,2.8607,2.8767,3.0279,3.169,3.2988,3.419,3.5672,3.6313,3.6086,3.662,3.6739,3.65,3.6766,3.6913,3.6913,3.6913,3.7206,3.7782,3.7781,3.8143,3.8691,3.8689,3.8689,3.8689,3.8689,3.8689,3.8689,3.8729,3.9089,3.9709,1.1042,1.1942,1.2599,0.0,1.1023,1.1666,0.0,0.0,0.0,0.0,1.8455,1.9884,2.2791,2.3562,2.4608,2.6455,2.8,0.0,0.0,0.0,0.0,2.9499,2.921,2.8716,2.7881,2.7121,0.0,2.5598,0.0,0.0,2.395,0.0,0.0,0.0,0.0,2.6907,2.7783,3.0354,3.2401,3.4042,3.479,3.5431,3.5926,3.5391,3.5511,3.5872,3.5204,3.5017,3.503,3.4682,3.4722,3.4883,3.4722,3.4549,3.4442,3.4548,3.4615,3.4655,3.4589,3.491,3.5178,3.483,3.4189,3.3626,3.3399,3.3519,3.3586,3.3253,3.3883,3.4163,0.0,0.0,0.0,0.0,0.0,0.0,0.0,2.6587,2.672,2.7329,2.7021,2.7235,2.8377,2.8051,2.777,2.785,2.7436,2.7909,2.9642,3.0889,3.208,3.3305,3.4763,3.5605,3.5738,3.6326,3.658,3.65,3.6766,3.6913,3.6913,3.6913,3.7127,3.7517,3.7702,3.8036,3.8426,3.8624,3.8689,3.8689,3.8689,3.8689,3.8758,3.9199,3.9452,3.9709,1.2282,1.2462,0.0,1.3914,0.0,0.0,1.4122,1.5381,0.0,1.8892,2.0742,0.0,2.4809,2.6443,2.7961,2.9334,3.0713,0.0,3.2083,0.0,0.0,3.1036,3.0915,3.0474,2.9633,2.8732,0.0,2.6794,0.0,0.0,2.4569,0.0,0.0,0.0,0.0,2.7001,2.7896,3.0879,3.3135,3.4736,3.507,3.5471,0.0,3.5364,3.5404,3.5672,3.5311,3.5191,3.5137,3.471,3.4682,3.4789,3.4789,3.4669,3.4576,3.4896,3.4976,3.4976,3.4976,3.5191,3.5431,3.5364,3.4923,3.4456,3.4456,3.4388,3.4215,3.4016,3.4176,3.4136,3.3479,0.0,0.0,0.0,0.0,0.0,0.0,0.0,2.656,2.7034,2.654,2.6419,2.7068,2.6507,2.6333,2.6861,2.672,2.7121,2.8257,3.0145,3.1583,3.2409,3.4349,3.5431,3.5605,3.6473,3.6767,3.65,3.6766,3.6913,3.6913,3.6913,3.7088,3.741,3.7555,3.7891,3.8321,3.8466,3.8582,3.8689,3.8689,3.8689,3.8769,3.9386,3.9599,3.9709,1.3621,0.0,0.0,0.0,0.0,0.0,0.0,1.823,0.0,2.022,0.0,2.5222,2.563,2.8709,3.0744,3.0744,0.0,3.3921,3.2902,3.3532,3.324,3.1626,3.1984,3.1754,3.0721,2.9976,2.8933,0.0,0.0,2.5384,2.5016,0.0,0.0,0.0,0.0,2.7281,2.8283,3.1797,3.3948,3.4977,3.5097,3.5311,3.5525,3.5297,3.5191,3.5191,3.5191,3.5191,3.511,3.4563,3.4576,3.4843,3.4802,3.4816,3.4896,3.5124,3.5191,3.5191,3.5191,3.5191,3.5271,3.5525,3.5405,3.5257,3.5297,3.511,3.4896,3.4844,3.4377,3.4028,3.4122,3.2427,3.0305,0.0,0.0,0.0,0.0,0.0,0.0,0.0,2.6627,0.0,2.6453,2.5432,2.5192,2.6219,2.6326,2.648,2.678,2.941,3.1156,3.1674,3.4055,3.5458,3.5765,3.6727,3.7049,3.6659,3.6833,3.6913,3.6913,3.6913,3.706,3.7343,3.7382,3.7702,3.8252,3.8279,3.8466,3.8689,3.8729,3.8769,3.8836,3.9423,3.9637,3.9746,1.2196,0.0,0.0,0.0,0.0,2.4574,2.1579,2.2557,2.4639,2.7414,2.8578,3.0139,3.2672,3.333,3.3575,3.3575,3.4277,0.0,0.0,0.0,0.0,3.344,3.304,3.265,3.2219,3.0922,2.9749,0.0,2.6834,2.5497,2.4684,0.0,0.0,0.0,2.6019,2.7963,3.0043,3.1952,3.3118,3.3788,3.4562,3.5043,3.5271,3.5217,3.5191,3.5191,3.5191,3.5191,3.5151,3.4829,3.4909,3.507,3.4804,3.4897,3.5137,3.5177,3.5191,3.5191,3.5191,3.5191,3.5271,3.5525,3.5565,3.5591,3.5885,3.5685,3.5445,3.5445,3.5017,3.4348,3.3412,3.153,2.9686,2.8339,0.0,0.0,0.0,0.0,0.0,0.0,0.0,2.6727,2.6727,2.6152,2.5724,2.5665,2.5911,2.6286,2.6767,2.8428,3.0091,3.1647,3.3053,3.471,3.6659,3.6433,3.6755,3.7567,3.7127,3.6913,3.6913,3.6913,3.6912,3.698,3.7275,3.7597,3.7929,3.8172,3.8466,3.8729,3.8942,3.902,3.91,3.9717,3.993,3.997,1.5695,0.0,0.0,0.0,2.4219,2.7437,2.7828,2.9052,2.9845,2.9546,3.1031,3.2725,3.4367,3.495,3.5164,3.4991,3.5124,3.503,3.4576,3.4549,3.4416,3.4122,3.3706,3.3332,3.3013,3.157,3.0381,2.9477,2.7141,2.5784,0.0,0.0,0.0,2.4471,2.5926,2.8024,3.048,3.1644,3.2623,3.3507,3.4563,3.507,3.5191,3.5191,3.5191,3.5191,3.5191,3.5191,3.5177,3.5057,3.5003,3.5003,3.4977,3.4977,3.503,3.5151,3.5191,3.5191,3.5191,3.5191,3.5231,3.5364,3.5378,3.5444,3.5591,3.5511,3.5378,3.5378,3.5083,3.4375,3.3049,3.157,3.0314,2.9476,2.8933,0.0,0.0,0.0,2.781,0.0,0.0,0.0,2.64,2.6272,2.646,2.7047,2.6553,2.6707,2.7888,2.8601,2.9691,3.1193,3.2628,3.4243,3.5992,3.6353,3.6727,3.7128,3.698,3.6913,3.6913,3.6913,3.6913,3.6913,3.7233,3.7555,3.7849,3.833,3.8584,3.8729,3.8993,3.91,3.9167,3.9783,3.9997,4.0037,0.0,1.913,0.0,0.0,2.7152,2.9466,3.2328,3.4214,3.4177,3.1045,3.2827,3.4442,3.467,3.5511,3.5979,3.5631,3.5605,3.5404,3.4923,3.4816,3.4682,3.4429,3.4082,3.3774,3.3522,3.212,3.0865,2.9797,2.7576,2.6172,2.5577,2.4566,2.4329,2.4839,2.6186,2.801,3.0176,3.1246,3.2369,3.3495,3.4656,3.5137,3.5191,3.5191,3.5191,3.5191,3.5191,3.5191,3.5191,3.5191,3.507,3.4923,3.5124,3.507,3.4923,3.5124,3.5191,3.5191,3.5191,3.5191,3.5191,3.5191,3.5191,3.5191,3.5191,3.5191,3.5191,3.5191,3.499,3.4375,3.3011,3.2171,3.1436,3.0684,3.0007,2.9611,0.0,0.0,0.0,0.0,0.0,0.0,2.6091,2.6353,2.7115,2.8323,2.7409,2.7295,2.8468,2.8948,2.9624,3.0581,3.2307,3.3883,3.5271,3.6232,3.6754,3.6766,3.6873,3.6913,3.6913,3.6913,3.6913,3.6913,3.7233,3.7595,3.7956,3.8475,3.8689,3.8729,3.906,3.9207,3.9273,3.989,4.0117,4.0147,0.0,0.0,2.5293,2.6365,2.9826,3.2671,3.3242,3.459,3.5445,3.5059,3.5524,3.5912,3.5926,3.6033,3.5979,3.5631,3.5605,3.5471,3.5177,3.4936,3.4776,3.4749,3.4214,3.3893,3.3841,3.2639,3.1196,2.9548,2.85,2.6747,2.4382,2.4788,2.513,2.5485,2.7255,2.8438,2.9228,3.0979,3.2358,3.347,3.4468,3.499,3.5191,3.5191,3.5191,3.5191,3.5191,3.5191,3.5191,3.5191,3.5177,3.5164,3.5191,3.5177,3.5164,3.5191,3.5191,3.5191,3.5191,3.5191,3.5191,3.5191,3.5191,3.5191,3.5191,3.5191,3.5191,3.5191,3.499,3.4495,3.3509,3.3255,3.2734,3.1346,3.1303,3.1273,0.0,0.0,3.0167,2.8983,0.0,0.0,2.6212,2.6747,2.7369,2.7749,2.7951,2.7716,2.7047,2.8796,2.9864,2.9971,3.1727,3.3613,3.5538,3.5965,3.6687,3.7676,3.7139,3.6913,3.6913,3.6913,3.6913,3.6913,3.7233,3.7702,3.8279,3.8584,3.8689,3.8769,3.9346,3.9559,3.964,4.0214,4.0441,4.0471,2.6508,2.6708,2.7516,3.0037,3.1871,3.3374,3.4537,3.5525,3.6125,3.6125,3.6259,3.6393,3.6553,3.658,3.6473,3.6179,3.6125,3.5925,3.5458,3.5351,3.5204,3.5057,3.4655,3.4348,3.4148,3.3146,3.1874,0.0,2.9053,2.7623,2.6045,2.5403,2.5518,2.6326,2.7422,2.8625,2.9927,3.133,3.2505,3.3495,3.4589,3.5097,3.5191,3.5191,3.5191,3.5191,3.5191,3.5191,3.5191,3.5191,3.5191,3.5191,3.5191,3.5191,3.5191,3.5191,3.5191,3.5191,3.5191,3.5191,3.5244,3.5418,3.5431,3.5431,3.5431,3.5431,3.5378,3.5231,3.5097,3.4883,3.4336,3.3788,3.328,3.2893,3.2489,3.2166,0.0,0.0,0.0,2.9135,0.0,2.7208,2.6105,2.6139,2.6547,2.7395,2.7248,2.7402,2.8068,2.8257,2.8759,2.9633,3.1219,3.2957,3.4804,3.5658,3.65,3.7274,3.702,3.6913,3.6913,3.6913,3.71,3.746,3.7782,3.8172,3.8544,3.8662,3.8689,3.8729,3.9129,3.9423,3.964,4.0037,4.0334,4.0512,3.0508,2.9866,2.9919,3.286,3.3587,3.4215,3.5525,3.6179,3.654,3.662,3.6619,3.6699,3.6873,3.698,3.6901,3.654,3.65,3.6299,3.5792,3.5765,3.5631,3.5338,3.507,3.4776,3.4456,3.3654,3.2596,3.1183,3.006,2.8778,2.7395,2.6353,2.6386,2.7368,2.823,2.9428,3.0868,3.1984,3.3,3.3895,3.4817,3.5191,3.5191,3.5191,3.5191,3.5191,3.5191,3.5244,3.5324,3.5324,3.5378,3.5431,3.5351,3.5271,3.5231,3.5404,3.5338,3.5231,3.5404,3.5391,3.5391,3.5685,3.5672,3.5631,3.5712,3.5672,3.5551,3.5364,3.5257,3.5137,3.495,3.4295,3.3828,3.3881,3.3385,3.2902,3.2634,3.1781,0.0,2.9544,2.8096,2.6854,2.6078,2.5858,2.6099,2.6867,2.6673,2.7134,2.8543,2.8177,2.8385,2.9325,3.0965,3.2612,3.427,3.5511,3.6366,3.6913,3.6913,3.6913,3.6913,3.698,3.7382,3.7956,3.8212,3.8437,3.8689,3.8689,3.8689,3.8729,3.8993,3.9316,3.964,3.989,4.0214,4.0512,3.1917,3.2545,3.3215,3.4123,3.4991,3.5672,3.6046,3.6313,3.662,3.6873,3.6913,3.6913,3.6913,3.7195,3.7156,3.654,3.65,3.638,3.6113,3.6099,3.5939,3.5605,3.5351,3.5083,3.4789,3.4201,3.3293,3.2091,3.1808,3.031,2.7696,2.7682,2.7989,2.8644,3.0114,3.1112,3.1754,3.2893,3.3921,3.4802,3.5097,3.5191,3.5191,3.5191,3.5191,3.5191,3.5191,3.5378,3.5605,3.5605,3.5819,3.6033,3.5685,3.5405,3.5311,3.5912,3.5685,3.5324,3.5926,3.5845,3.5672,3.6019,3.5845,3.5685,3.6033,3.5845,3.5605,3.5605,3.5364,3.5191,3.5191,3.4976,3.4589,3.4014,3.3907,3.3586,3.2714,3.2302,0.0,3.0533,2.9553,2.8182,2.6198,2.6232,2.6286,2.6038,2.6493,2.7061,2.7682,2.8818,2.9325,2.9015,3.1036,3.2812,3.4283,3.5511,3.6366,3.6913,3.6913,3.6913,3.6913,3.7235,3.7702,3.8292,3.8292,3.8437,3.8689,3.8689,3.8689,3.8729,3.8993,3.9316,3.964,3.989,4.0214,4.0512,3.3267,3.3813,3.4375,3.483,3.5284,3.5765,3.6286,3.662,3.6806,3.6885,3.7274,3.7448,3.7275,3.7127,3.698,3.6806,3.6766,3.6659,3.6393,3.6366,3.6139,3.5618,3.5511,3.5257,3.4802,3.4602,3.392,3.2706,3.2436,3.1246,2.9219,2.9619,2.9913,3.0154,3.1447,3.2342,3.2919,3.3933,3.4522,3.4829,3.5297,3.5471,3.5485,3.5712,3.5672,3.5485,3.5725,3.5725,3.5631,3.5859,3.6019,3.6113,3.6193,3.5858,3.5498,3.5685,3.5605,3.5551,3.5992,3.6033,3.6006,3.6299,3.6299,3.6246,3.6353,3.6139,3.5872,3.5645,3.5525,3.5431,3.5231,3.5124,3.4896,3.4282,3.4189,3.3734,3.2449,3.1674,3.0702,2.9325,2.8377,2.7355,2.6118,2.6607,2.6988,2.6894,2.7201,2.7415,2.7422,2.8746,2.9446,2.9352,3.1717,3.3495,3.4551,3.5778,3.6553,3.6913,3.7127,3.7342,3.7527,3.7849,3.8133,3.8321,3.8506,3.8624,3.8689,3.8689,3.8689,3.8731,3.8795,3.9129,3.9599,3.9706,4.007,4.0512,3.4028,3.4455,3.4883,3.5151,3.5525,3.5952,3.6433,3.6726,3.6913,3.6913,3.7342,3.7595,3.7422,3.7301,3.7207,3.71,3.698,3.6833,3.6659,3.6659,3.6432,3.5952,3.5859,3.5578,3.5097,3.4896,3.4428,3.3679,3.2955,3.2115,3.1236,3.1263,3.153,3.1998,3.2995,3.3666,3.4122,3.4803,3.5084,3.5124,3.5458,3.5605,3.5631,3.5952,3.5952,3.5819,3.6033,3.6019,3.5965,3.6166,3.6313,3.6393,3.6473,3.6259,3.5952,3.6059,3.5939,3.5912,3.6433,3.642,3.6326,3.6727,3.6688,3.65,3.65,3.6366,3.6179,3.5965,3.5752,3.5551,3.5391,3.5177,3.4883,3.4377,3.4229,3.3641,3.2169,3.1299,3.0287,2.8903,2.827,2.7609,2.6714,2.7529,2.8024,2.781,2.8371,2.8585,2.8291,2.8938,2.9566,3.0127,3.2254,3.3936,3.5018,3.6112,3.6806,3.7087,3.738,3.7702,3.7996,3.8212,3.8359,3.8466,3.8622,3.8689,3.8689,3.8689,3.8689,3.8689,3.8689,3.9062,3.9599,3.9599,3.996,4.0512,3.4296,3.4616,3.495,3.5231,3.5778,3.626,3.6513,3.6794,3.6952,3.6952,3.7235,3.745,3.7448,3.7676,3.7702,3.749,3.7155,3.6953,3.6953,3.6912,3.6806,3.6513,3.6233,3.5939,3.5645,3.5097,3.4816,3.4789,3.341,3.2971,3.3429,3.2639,3.2866,3.4,3.4562,3.4976,3.5244,3.5511,3.5618,3.5605,3.5631,3.5631,3.5672,3.5992,3.6126,3.6126,3.6153,3.6286,3.65,3.6513,3.6727,3.6885,3.6647,3.658,3.6619,3.6834,3.6513,3.6313,3.7168,3.6981,3.6659,3.7275,3.7021,3.658,3.658,3.658,3.658,3.654,3.6072,3.5672,3.5618,3.5177,3.4709,3.4376,3.4028,3.3318,3.1861,3.1152,3.0327,2.913,2.9063,2.8756,2.7883,2.8831,2.9285,2.8738,2.9735,3.0243,2.9993,2.9517,2.9891,3.1279,3.2763,3.4256,3.5685,3.6513,3.7128,3.7477,3.7702,3.7996,3.8319,3.8319,3.8466,3.8689,3.8689,3.8689,3.8689,3.8689,3.8689,3.8689,3.8689,3.9062,3.9599,3.9599,3.996,4.0512,3.4937,3.5231,3.5591,3.6099,3.6473,3.6834,3.7128,3.7422,3.7595,3.7595,3.7676,3.7811,3.8065,3.7929,3.7889,3.8065,3.7782,3.75,3.7301,3.7275,3.7048,3.6513,3.6233,3.6073,3.5965,3.5418,3.5016,3.4789,3.4189,3.3975,3.407,3.3895,3.4068,3.4602,3.4963,3.5257,3.5525,3.5845,3.5832,3.5618,3.5872,3.5965,3.5992,3.6286,3.6393,3.6433,3.6647,3.6619,3.654,3.6726,3.702,3.7275,3.7195,3.7342,3.7382,3.6766,3.65,3.654,3.7222,3.7128,3.6953,3.7555,3.7595,3.7489,3.7489,3.7489,3.7354,3.6913,3.6699,3.6406,3.5725,3.5338,3.4923,3.4377,3.3532,3.253,3.1476,3.0835,3.0043,2.8845,2.9499,2.9722,2.8783,2.9357,2.9753,2.9597,2.986,3.0181,3.0568,3.1326,3.2008,3.257,3.419,3.5578,3.6579,3.7048,3.7557,3.8093,3.8145,3.833,3.8611,3.8611,3.8651,3.8689,3.8689,3.8689,3.8689,3.8689,3.8689,3.8689,3.8689,3.9062,3.9599,3.9599,3.996,4.0512,3.5311,3.5498,3.5832,3.6553,3.6806,3.706,3.7529,3.7702,3.7781,3.7781,3.7929,3.8105,3.8279,3.825,3.829,3.8477,3.8076,3.7674,3.7422,3.741,3.7196,3.6699,3.6433,3.6273,3.6273,3.5698,3.5244,3.499,3.4696,3.4656,3.4884,3.4776,3.495,3.5404,3.5805,3.5979,3.6019,3.634,3.6299,3.6019,3.6206,3.6273,3.6299,3.658,3.6687,3.6699,3.6846,3.6913,3.6941,3.7088,3.7342,3.7597,3.7597,3.7676,3.7702,3.7235,3.7088,3.7195,3.7676,3.7569,3.738,3.7714,3.7781,3.7781,3.7781,3.7781,3.7714,3.738,3.7087,3.6726,3.6112,3.5471,3.4736,3.3841,3.2957,3.1915,3.0608,3.0417,3.0043,2.9112,3.019,3.0791,3.0287,3.0986,3.1319,3.0942,3.1266,3.1597,3.1784,3.2944,3.3557,3.3425,3.4817,3.6019,3.6885,3.7517,3.8038,3.8477,3.8477,3.8544,3.8689,3.8689,3.8689,3.8689,3.8689,3.8689,3.8689,3.8689,3.8689,3.8689,3.8689,3.9062,3.9599,3.9599,3.996,4.0512,3.5618,3.5765,3.6045,3.6833,3.706,3.7274,3.7781,3.7929,3.7928,3.7928,3.8183,3.8359,3.8359,3.8555,3.8689,3.8689,3.8221,3.7781,3.749,3.7517,3.7342,3.6913,3.6687,3.6553,3.6553,3.6005,3.5591,3.5324,3.511,3.5244,3.5672,3.5444,3.5618,3.6193,3.6647,3.6726,3.658,3.6806,3.6754,3.65,3.65,3.65,3.6513,3.6739,3.6913,3.698,3.6913,3.7128,3.741,3.741,3.7597,3.7809,3.7849,3.7888,3.7928,3.7928,3.7928,3.7996,3.8223,3.8103,3.7929,3.7889,3.7928,3.7996,3.7956,3.7968,3.7968,3.7889,3.746,3.698,3.658,3.5618,3.4548,3.3385,3.2465,3.1383,2.9887,3.0096,3.0217,2.9762,3.1032,3.1981,3.2021,3.2837,3.3093,3.2478,3.3,3.332,3.3278,3.4281,3.4682,3.4295,3.5258,3.6219,3.71,3.7929,3.8477,3.8689,3.8689,3.8689,3.8689,3.8689,3.8689,3.8689,3.8689,3.8689,3.8689,3.8689,3.8689,3.8689,3.8689,3.9062,3.9599,3.9599,3.996,4.0512,3.6259,3.6553,3.6833,3.7263,3.7744,3.8105,3.8212,3.8397,3.8555,3.8555,3.8611,3.8651,3.8651,3.8691,3.8689,3.8689,3.8622,3.8328,3.7782,3.7996,3.7782,3.6953,3.6873,3.6833,3.6833,3.6513,3.6233,3.5966,3.5912,3.5939,3.6033,3.5992,3.6139,3.6433,3.6513,3.6659,3.6833,3.6873,3.6754,3.65,3.65,3.65,3.65,3.654,3.6874,3.7303,3.698,3.7128,3.741,3.741,3.7597,3.7849,3.8145,3.8399,3.8555,3.8555,3.8555,3.8515,3.8359,3.8426,3.8504,3.8279,3.8555,3.8836,3.8622,3.8729,3.8769,3.8319,3.8145,3.7771,3.6687,3.5952,3.5164,3.4269,3.2358,3.0902,3.0635,3.0484,3.0444,3.0568,3.2104,3.324,3.3546,3.3265,3.3307,3.3896,3.34,3.3492,3.4468,3.4923,3.5431,3.6086,3.6473,3.7127,3.8065,3.8437,3.8662,3.8689,3.8689,3.8689,3.8689,3.8689,3.8689,3.8689,3.8689,3.8689,3.8689,3.8689,3.8689,3.8689,3.8689,3.9062,3.9599,3.9599,3.996,4.0512,3.658,3.6834,3.7128,3.7771,3.8133,3.8359,3.8506,3.8624,3.8769,3.8916,3.8916,3.8916,3.8916,3.8916,3.8876,3.8731,3.8689,3.8515,3.8105,3.8036,3.7674,3.6912,3.6913,3.6833,3.6699,3.6553,3.6366,3.6099,3.6099,3.618,3.6313,3.6313,3.6473,3.6726,3.706,3.7087,3.6912,3.7233,3.7127,3.6727,3.6727,3.6727,3.6726,3.6914,3.7048,3.7127,3.7155,3.7354,3.7624,3.7624,3.7929,3.833,3.8477,3.8582,3.8689,3.8689,3.8689,3.8689,3.8731,3.8731,3.8689,3.8731,3.8809,3.8846,3.8729,3.8916,3.8993,3.8613,3.8504,3.8212,3.7168,3.6233,3.5271,3.4255,3.2238,3.0849,3.1009,3.0768,3.0965,3.1888,3.3253,3.4283,3.4776,3.4576,3.4576,3.4964,3.4496,3.4482,3.5191,3.5658,3.6153,3.6699,3.7342,3.7849,3.8292,3.8584,3.8689,3.8689,3.8689,3.8689,3.8689,3.8689,3.8689,3.8689,3.8689,3.8689,3.8689,3.8689,3.8689,3.8689,3.8689,3.9062,3.9599,3.9599,3.996,4.0512,3.6766,3.702,3.7342,3.8065,3.8292,3.8466,3.8662,3.8689,3.8769,3.8982,3.906,3.91,3.91,3.91,3.902,3.8809,3.8729,3.8584,3.8319,3.8065,3.7676,3.7127,3.7099,3.702,3.6806,3.6726,3.662,3.6407,3.6313,3.6433,3.6727,3.6727,3.6873,3.7233,3.7635,3.7595,3.7233,3.7567,3.7448,3.702,3.702,3.702,3.7048,3.7301,3.7343,3.7233,3.737,3.7624,3.7929,3.7929,3.8223,3.8624,3.8691,3.8729,3.8795,3.8795,3.8836,3.8942,3.9169,3.9062,3.8956,3.9169,3.91,3.8985,3.8806,3.9022,3.9129,3.8769,3.8689,3.8435,3.7635,3.6619,3.5525,3.4376,3.2596,3.1356,3.1517,3.1343,3.1714,3.3051,3.415,3.5057,3.5645,3.5738,3.5738,3.5738,3.5591,3.5631,3.5885,3.6433,3.6874,3.7207,3.7918,3.8319,3.8399,3.8582,3.8689,3.8689,3.8689,3.8689,3.8689,3.8689,3.8689,3.8689,3.8689,3.8689,3.8689,3.8689,3.8689,3.8731,3.8769,3.9132,3.9599,3.9666,4.004,4.0512,3.6833,3.7354,3.7754,3.7821,3.8288,3.8691,3.8689,3.8689,3.8731,3.8729,3.8942,3.91,3.91,3.91,3.91,3.906,3.8836,3.8584,3.8319,3.8281,3.8105,3.7754,3.7742,3.7714,3.7702,3.7448,3.7315,3.7303,3.698,3.7021,3.7343,3.7343,3.7635,3.8172,3.7929,3.7958,3.8174,3.7635,3.741,3.737,3.737,3.737,3.737,3.7382,3.7744,3.8133,3.7597,3.7771,3.8252,3.8252,3.8292,3.8359,3.8624,3.8876,3.906,3.906,3.9276,3.9533,3.9559,3.9559,3.9533,3.9559,3.9746,3.9743,3.9207,3.9346,3.9383,3.8838,3.8689,3.8515,3.7889,3.7233,3.6432,3.5284,3.384,3.2757,3.2527,3.2474,3.2822,3.3708,3.4616,3.5391,3.6006,3.6073,3.6073,3.6073,3.6273,3.6513,3.6806,3.7127,3.7597,3.8172,3.8252,3.8426,3.8662,3.8689,3.8689,3.8689,3.8689,3.8689,3.8689,3.8689,3.8689,3.8689,3.8689,3.8689,3.8689,3.8689,3.8689,3.8729,3.8982,3.9276,3.964,3.9893,4.0184,4.0512,3.7342,3.7634,3.7929,3.8288,3.8542,3.8689,3.8689,3.8836,3.8942,3.8942,3.9239,3.9313,3.9127,3.91,3.902,3.8876,3.8769,3.8662,3.8544,3.8544,3.833,3.7821,3.7781,3.7781,3.7781,3.7702,3.7635,3.7635,3.7529,3.7529,3.7635,3.7635,3.7782,3.7996,3.8076,3.8065,3.7998,3.7958,3.7851,3.7635,3.7635,3.7635,3.7676,3.7891,3.7969,3.7998,3.7958,3.8105,3.8292,3.8292,3.8504,3.8809,3.8916,3.9169,3.9452,3.961,3.9743,3.989,4.0107,3.9893,3.964,3.9813,3.9783,3.9677,3.9463,3.9637,3.9746,3.9346,3.9265,3.9062,3.8475,3.7742,3.698,3.6352,3.4883,3.3961,3.4402,3.3988,3.4108,3.5364,3.5965,3.6473,3.7088,3.7155,3.7155,3.7155,3.7233,3.7354,3.746,3.7928,3.8397,3.8769,3.8809,3.8769,3.8689,3.8689,3.8689,3.8689,3.8689,3.8689,3.8689,3.8689,3.8689,3.8689,3.8689,3.8689,3.8689,3.8689,3.8689,3.8729,3.8993,3.9316,3.964,3.989,4.0214,4.0512,3.7676,3.7889,3.8105,3.8504,3.8651,3.8729,3.8809,3.8982,3.91,3.91,3.9383,3.9463,3.914,3.9196,3.914,3.8836,3.8836,3.8795,3.8731,3.8689,3.8515,3.8103,3.8075,3.8075,3.8075,3.7996,3.7956,3.7956,3.7849,3.7849,3.7956,3.7956,3.7996,3.8075,3.833,3.829,3.8075,3.8252,3.8172,3.7956,3.7956,3.7956,3.7998,3.8212,3.8212,3.8103,3.8252,3.8359,3.8426,3.8504,3.8798,3.9129,3.9207,3.9463,3.9786,4.0067,4.0144,4.0214,4.0441,4.0217,3.9933,4.0107,4.004,3.9853,3.9746,3.9863,3.993,3.9666,3.9599,3.9463,3.9062,3.8408,3.7781,3.738,3.6193,3.5458,3.5939,3.5418,3.5444,3.6647,3.6941,3.7233,3.7754,3.7781,3.7781,3.7781,3.7968,3.8183,3.8357,3.8662,3.8956,3.9247,3.9276,3.9169,3.8982,3.8876,3.8836,3.8836,3.8836,3.8769,3.8689,3.8689,3.8689,3.8689,3.8689,3.8689,3.8731,3.8795,3.8836,3.8876,3.9236,3.953,3.9743,4.0037,4.0294,4.0512,3.7742,3.8065,3.8292,3.8292,3.8504,3.8795,3.906,3.91,3.91,3.91,3.9383,3.9463,3.9127,3.9383,3.9463,3.9127,3.91,3.8993,3.8729,3.8689,3.8689,3.8689,3.8689,3.8689,3.8689,3.8437,3.8292,3.8292,3.7969,3.7998,3.8292,3.8292,3.8437,3.8689,3.8689,3.8689,3.8691,3.8426,3.8292,3.8292,3.8292,3.8292,3.8292,3.8292,3.8466,3.8662,3.8399,3.8477,3.8729,3.9022,3.91,3.9167,3.949,3.9783,4.0077,4.0401,4.0512,4.0512,4.0512,4.0512,4.0512,4.0512,4.0512,4.0401,4.0077,3.9997,3.993,3.9666,3.9599,3.9599,3.9599,3.9313,3.8913,3.8399,3.7811,3.7301,3.6953,3.6687,3.6727,3.7343,3.741,3.7517,3.7782,3.7809,3.7809,3.7809,3.8368,3.8956,3.9559,3.9276,3.9276,3.9599,3.9599,3.9599,3.9599,3.9276,3.91,3.91,3.91,3.8953,3.8689,3.8689,3.8689,3.8689,3.8689,3.8689,3.8729,3.8993,3.91,3.9167,3.9754,3.9997,4.0037,4.0361,4.0512,4.0512,3.7742,3.8065,3.8359,3.8544,3.8651,3.8729,3.8809,3.9169,3.9306,3.8876,3.9452,3.961,3.8916,3.9276,3.9386,3.8876,3.9209,3.9316,3.8993,3.8982,3.8916,3.8731,3.8689,3.8689,3.8689,3.8624,3.8584,3.8584,3.8475,3.8475,3.8584,3.8584,3.8622,3.8689,3.8689,3.8689,3.8689,3.8611,3.8584,3.8584,3.8584,3.8584,3.8584,3.8584,3.8622,3.8731,3.8838,3.8916,3.902,3.9343,3.957,3.9783,4.0137,4.0284,4.0361,4.0471,4.0512,4.0512,4.0512,4.0512,4.0512,4.0512,4.0512,4.0471,4.0361,4.0364,4.0334,4.0257,4.004,3.9893,3.9893,3.9637,3.9316,3.8945,3.87,3.8437,3.7958,3.7998,3.8036,3.8025,3.8212,3.8328,3.8437,3.8435,3.8435,3.8435,3.8769,3.906,3.9236,3.957,3.9783,3.9893,3.9893,4.0,4.0214,3.9706,3.9313,3.91,3.91,3.8953,3.8689,3.8689,3.8689,3.8689,3.8689,3.8689,3.8731,3.8795,3.8913,3.914,3.957,3.9823,4.0037,4.0361,4.0512,4.0512,3.8075,3.833,3.8504,3.8662,3.8689,3.8729,3.8836,3.9169,3.9276,3.8916,3.9423,3.9599,3.8913,3.9306,3.9452,3.9092,3.9386,3.949,3.9316,3.9316,3.9169,3.8876,3.8876,3.8809,3.8689,3.8689,3.8689,3.8689,3.8689,3.8689,3.8689,3.8809,3.8809,3.8689,3.8809,3.8809,3.8731,3.8809,3.8809,3.8731,3.8838,3.8795,3.8689,3.8689,3.8769,3.8876,3.902,3.9196,3.9343,3.9637,3.996,4.0224,4.0431,4.0512,4.0512,4.0512,4.0512,4.0512,4.0512,4.0512,4.0512,4.0512,4.0512,4.0512,4.0512,4.0512,4.0512,4.0512,4.0334,4.0184,4.0184,4.0067,3.9893,3.9677,3.954,3.9343,3.9012,3.9012,3.8982,3.8827,3.8945,3.8982,3.8876,3.8982,3.9089,3.9209,3.9276,3.9393,3.9637,3.9863,4.0067,4.0184,4.0184,4.0294,4.0512,4.0137,3.9786,3.9463,3.9463,3.9316,3.9052,3.9052,3.8982,3.8876,3.8876,3.8809,3.8731,3.8956,3.9159,3.9343,3.9786,4.007,4.0214,4.0431,4.0512,4.0512,3.8555,3.8691,3.8731,3.8729,3.8729,3.8806,3.906,3.9127,3.9127,3.906,3.9383,3.9463,3.914,3.9423,3.964,3.9599,3.9599,3.9599,3.964,3.964,3.9493,3.9169,3.9167,3.902,3.8729,3.8731,3.8689,3.8689,3.8689,3.8731,3.8729,3.8953,3.8942,3.8758,3.8982,3.8913,3.8731,3.8953,3.8913,3.8729,3.8982,3.8913,3.8729,3.8729,3.8916,3.9169,3.9167,3.9383,3.968,3.996,4.0254,4.0512,4.0512,4.0512,4.0512,4.0512,4.0512,4.0512,4.0512,4.0512,4.0512,4.0512,4.0512,4.0512,4.0512,4.0512,4.0512,4.0512,4.0512,4.0512,4.0512,4.0512,4.0512,4.0512,4.0254,4.0037,3.9997,3.9813,3.9666,3.9599,3.964,3.949,3.9167,3.9423,3.9706,3.996,3.9743,3.9883,4.0431,4.0184,4.0187,4.0481,4.0512,4.0512,4.0512,4.0512,4.0334,3.9997,3.9997,3.9863,3.9599,3.9599,3.9423,3.91,3.91,3.8942,3.8729,3.9316,3.9559,3.9666,4.0214,4.0471,4.0512,4.0512,4.0512,4.0512,3.8359,3.8544,3.8769,3.8982,3.9022,3.902,3.91,3.9316,3.9316,3.8836,3.9265,3.9463,3.914,3.9596,3.9823,3.964,3.9599,3.9677,3.989,3.989,3.9783,3.949,3.9677,3.957,3.902,3.8809,3.8689,3.8689,3.8689,3.8809,3.9022,3.8876,3.8876,3.9022,3.8846,3.8769,3.8689,3.8769,3.8769,3.8731,3.8769,3.8876,3.9022,3.9022,3.9209,3.9533,3.9714,3.985,3.997,4.0294,4.0441,4.0512,4.0512,4.0512,4.0512,4.0512,4.0512,4.0512,4.0512,4.0512,4.0512,4.0512,4.0512,4.0512,4.0512,4.0512,4.0512,4.0512,4.0512,4.0512,4.0512,4.0512,4.0512,4.0512,4.0441,4.0294,4.0037,4.0187,4.0137,3.9669,3.9783,3.9783,3.9533,3.9559,3.964,3.968,3.9823,3.997,4.0107,4.0294,4.0431,4.0512,4.0512,4.0512,4.0512,4.0512,4.0334,3.9997,3.9997,3.9863,3.9599,3.9599,3.9423,3.91,3.91,3.8942,3.8729,3.906,3.9343,3.964,3.997,4.0254,4.0512,4.0512,4.0512,4.0512,3.8466,3.8582,3.8766,3.906,3.91,3.9169,3.9316,3.9343,3.9236,3.8913,3.9169,3.9343,3.9343,3.964,3.9783,3.9783,3.9933,4.008,4.0214,4.0254,4.0107,3.9783,3.993,3.9783,3.9343,3.9196,3.8982,3.8689,3.8982,3.9062,3.8916,3.9062,3.9062,3.8916,3.8916,3.8806,3.8731,3.8836,3.8806,3.8729,3.9012,3.9052,3.8913,3.906,3.9316,3.964,3.9743,4.0,4.0254,4.0441,4.0512,4.0512,4.0512,4.0512,4.0512,4.0512,4.0512,4.0512,4.0512,4.0512,4.0512,4.0512,4.0512,4.0512,4.0512,4.0512,4.0512,4.0512,4.0512,4.0512,4.0512,4.0512,4.0512,4.0512,4.0512,4.0441,4.0254,4.0391,4.0361,4.007,4.0147,4.0187,4.004,3.9893,3.9853,4.003,4.0147,4.0254,4.0254,4.0401,4.0512,4.0512,4.0512,4.0512,4.0512,4.0512,4.0401,4.0254,4.0254,4.0187,4.003,4.003,3.9853,3.953,3.9383,3.9265,3.9129,3.9276,3.9533,3.9823,4.0117,4.0364,4.0512,4.0512,4.0512,4.0512,3.8729,3.8809,3.8916,3.9169,3.9207,3.9313,3.9559,3.9393,3.9247,3.9196,3.9196,3.9316,3.964,4.0182,4.0423,4.011,4.0834,4.1047,4.0542,4.0512,4.0361,4.0107,4.0077,3.996,3.9666,3.9706,3.9423,3.8769,3.9346,3.9306,3.8769,3.9276,3.9236,3.8769,3.8953,3.8916,3.8731,3.8942,3.8916,3.8758,3.9276,3.9236,3.8876,3.9169,3.9463,3.9746,3.9746,4.008,4.0512,4.0512,4.0512,4.0512,4.0512,4.0512,4.0512,4.0512,4.0512,4.0512,4.0512,4.0512,4.0512,4.0512,4.0512,4.0512,4.0512,4.0512,4.0512,4.0512,4.0512,4.0512,4.0512,4.0512,4.0512,4.0512,4.0512,4.0512,4.0512,4.0512,4.0512,4.0512,4.0512,4.0512,4.0512,4.0254,4.0184,4.0471,4.0512,4.0512,4.0512,4.0512,4.0512,4.0512,4.0512,4.0512,4.0512,4.0512,4.0512,4.0512,4.0512,4.0512,4.0512,4.0512,4.0321,3.9997,3.9706,3.9599,3.9599,3.9599,3.9743,4.0037,4.0361,4.0512,4.0512,4.0512,4.0512,4.0512,3.902,3.9276,3.9493,3.9533,3.9717,3.9823,3.964,3.9743,3.9783,3.9559,3.9533,3.964,3.992,4.2575,4.3299,4.0673,4.2919,4.3354,4.068,4.0512,4.0468,4.0431,4.0431,4.0294,3.997,4.0214,3.9933,3.9062,3.9423,3.9412,3.9062,3.9127,3.9129,3.902,3.8836,3.8729,3.8689,3.8729,3.8729,3.8729,3.902,3.9276,3.949,3.9783,4.0077,4.0361,4.0361,4.0431,4.0512,4.0512,4.0512,4.0512,4.0512,4.0512,4.0512,4.0512,4.0512,4.0512,4.0512,4.0512,4.0512,4.0512,4.0512,4.0512,4.0512,4.0512,4.0512,4.0512,4.0512,4.0512,4.0512,4.0512,4.0512,4.0512,4.0512,4.0512,4.0512,4.0512,4.0512,4.0512,4.0512,4.0512,4.0512,4.0471,4.0441,4.0512,4.0512,4.0512,4.0512,4.0512,4.0512,4.0512,4.0512,4.0512,4.0512,4.0512,4.0512,4.0512,4.0512,4.0512,4.0512,4.0512,4.0321,3.9997,3.9706,3.9599,3.9599,3.9599,3.9743,4.0037,4.0361,4.0512,4.0512,4.0512,4.0512,4.0512,3.906,3.9207,3.9383,3.9559,3.9823,3.997,3.9853,3.9783,3.9666,3.9343,3.9316,3.9452,3.9746,4.1435,4.2677,4.3053,4.2739,4.1938,4.0572,4.0512,4.0431,4.0214,4.0401,4.0334,3.9997,4.0334,4.0214,3.9596,3.9743,3.957,3.91,3.91,3.902,3.8876,3.8769,3.8689,3.882,4.0497,4.0322,3.9075,4.0889,4.079,3.9599,3.9746,3.996,4.0254,4.0431,4.0512,4.0512,4.0512,4.0512,4.0512,4.0512,4.0512,4.0512,4.0512,4.0512,4.0512,4.0512,4.0512,4.0512,4.0512,4.0512,4.0512,4.0512,4.0512,4.0512,4.0512,4.0512,4.0512,4.0512,4.0512,4.0512,4.0512,4.0512,4.0512,4.0512,4.0512,4.0512,4.0512,4.0512,4.0512,4.0512,4.0512,4.0512,4.0512,4.0512,4.0512,4.0512,4.0512,4.0512,4.0512,4.0512,4.0512,4.0512,4.0512,4.0512,4.0512,4.0512,4.0512,4.0512,4.0512,4.0431,4.0254,3.996,3.9933,4.008,3.989,4.0,4.0294,4.0441,4.0512,4.0512,4.0512,4.0512,4.0512]}]]